Kopte, Robert; Nitsche, Frank (2026): Shipboard ADCP current measurements (38 kHz) during RV MARIA S. MERIAN cruise MSM141/2 [dataset]. PANGAEA, https://doi.org/10.1594/PANGAEA.992811
Always quote citation above when using data! You can download the citation in several formats below.
Published: 2026-03-09 • DOI registered: 2026-04-07
Abstract:
Current velocities of the upper water column along the cruise track of R/V Maria S. Merian cruise MSM141/2 were collected by a vessel-mounted 38 kHz RDI Ocean Surveyor ADCP. The ADCP transducer was located at 6.0 m below the water line. The instrument was operated in narrowband mode (WM10) with a bin size of 32.00 m, a blanking distance of 16.00 m, and a total of 50 bins, covering the depth range between 54.0 m and 1622.0 m. Attitude data from the ship's motion reference unit were used by the data acquisition software VmDAS internally to convert ADCP beam velocities to geographic coordinates. The Python toolbox OSADCP (version 2.2.0) was used for data post-processing. Acoustic Interferences were identified based on outliers in the ADCP echo intensity data. Echo intensity data were cleaned accordingly and affected velocity cells were flagged to be removed prior ensemble-averaging. The ship's velocity was calculated from position fixes obtained by the Global Navigation Satellite System (GNSS), taking into account lever arms of ADCP transducer and GNSS antenna. Accuracy of the derived water velocities mainly depends on the quality of the position fixes and the ship's heading data. Further errors stem from a misalignment of the transducer with the ship's centerline. Data processing included water track calibration of the misalignment angle (0.7318° +/- 0.3643°) and scale factor (1.0031 +/- 0.0091) of the measured velocities. The velocity data were averaged in time using an average interval of 60 s. Depth cells with ensemble-averaged percent-good values below 25% are marked as 'bad data'.
Related to:
Kopte, Robert; Nitsche, Frank (2026): Shipboard ADCP current measurements (75 kHz) during RV MARIA S. MERIAN MSM141/2 [dataset]. PANGAEA, https://doi.org/10.1594/PANGAEA.992810
Other version:
nc file: ADCP current measurements (38 kHz) during RV MARIA S. MERIAN cruise MSM141_2 (2026). msm_141_2_vmadcp_38khz.nc
Data processing report:
Kopte, Robert (2026): Upper-ocean acoustic Doppler current profiler (38kHz-ADCP) underway measurements during MARIA S. MERIAN cruise MSM141_2. Institute of Geosciences, Kiel University, msm_141_2_vmadcp_38khz_proc_report.pdf
Standard operating procedure:
Kopte, Robert; Anselm, Norbert (2024): SOP 38kHz ADCP aboard of RV Maria S Merian (1.2)(vessel:maria_s_merian:adcp_38khz_1207). Zenodo, https://doi.org/10.5281/ZENODO.14532469
Project(s):
DAM Underway Research Data (DAM_Underway)
Coverage:
Median Latitude: -5.221697 * Median Longitude: -28.900069 * South-bound Latitude: -17.126300 * West-bound Longitude: -34.977400 * North-bound Latitude: 6.485100 * East-bound Longitude: -24.075600
Date/Time Start: 2025-12-11T04:03:00 * Date/Time End: 2025-12-16T06:33:00
Minimum DEPTH, water: 54.0 m * Maximum DEPTH, water: 1622.0 m
Event(s):
MSM141/2_0_Underway-2 * Latitude Start: -17.126300 * Longitude Start: -34.977400 * Latitude End: 6.485100 * Longitude End: -24.075600 * Date/Time Start: 2025-12-11T04:03:00 * Date/Time End: 2025-12-16T06:33:00 * O2A Registry URI: https://registry.o2a-data.de/items/7471 * Campaign: MSM141/2 (CARD-UP) * Basis: Maria S. Merian * Method/Device: Vessel mounted Acoustic Doppler Current Profiler [38 kHz] (VMADCP-38)
Parameter(s):
License:
Creative Commons Attribution 4.0 International (CC-BY-4.0)
Status:
Curation Level: Enhanced curation (CurationLevelC) * Processing Level: PANGAEA data processing level 2 (ProcLevel2)
Size:
1987602 data points
Data
| 1 Date/Time | 2 Latitude | 3 Longitude | 4 Depth water [m] | 5 Cur vel U [cm/s] | 6 Cur vel V [cm/s] | 7 QF cur vel | 8 Echo int [cts] | 9 Echo int clean [cts] | 10 Backsc rel [dB] | 11 Pings per ens [#] | 12 good ping [%] |
|---|---|---|---|---|---|---|---|---|---|---|---|
| 2025-12-11T04:03:00 | -17.1263 | -34.9774 | 54.0 | 1.73 | -20.87 | 1 | 181.3 | 181.3 | -75.6 | 20 | 87.5 |
| 2025-12-11T04:03:00 | -17.1263 | -34.9774 | 86.0 | 13.40 | -20.40 | 1 | 160.4 | 160.4 | -78.8 | 21 | 91.7 |
| 2025-12-11T04:03:00 | -17.1263 | -34.9774 | 118.0 | -4.05 | -23.10 | 1 | 144.4 | 144.4 | -81.9 | 20 | 83.3 |
| 2025-12-11T04:03:00 | -17.1263 | -34.9774 | 150.0 | -6.54 | -23.46 | 1 | 131.2 | 131.2 | -84.6 | 23 | 100.0 |
| 2025-12-11T04:03:00 | -17.1263 | -34.9774 | 182.0 | 2.25 | -25.92 | 1 | 122.9 | 122.9 | -85.7 | 22 | 95.8 |
| 2025-12-11T04:03:00 | -17.1263 | -34.9774 | 214.0 | -1.17 | -26.62 | 1 | 109.4 | 109.1 | -89.5 | 21 | 87.5 |
| 2025-12-11T04:03:00 | -17.1263 | -34.9774 | 246.0 | 6.73 | -14.86 | 1 | 106.8 | 106.8 | -88.5 | 21 | 91.7 |
| 2025-12-11T04:03:00 | -17.1263 | -34.9774 | 278.0 | 5.49 | -16.89 | 1 | 107.9 | 107.9 | -86.3 | 21 | 91.7 |
| 2025-12-11T04:03:00 | -17.1263 | -34.9774 | 310.0 | -1.42 | -9.14 | 1 | 88.9 | 88.9 | -92.7 | 22 | 95.8 |
| 2025-12-11T04:03:00 | -17.1263 | -34.9774 | 342.0 | -4.09 | -5.38 | 1 | 79.0 | 79.0 | -95.4 | 23 | 100.0 |
| 2025-12-11T04:03:00 | -17.1263 | -34.9774 | 374.0 | -3.42 | -11.76 | 1 | 74.1 | 73.1 | -96.4 | 21 | 91.7 |
| 2025-12-11T04:03:00 | -17.1263 | -34.9774 | 406.0 | -3.03 | -13.02 | 1 | 64.2 | 63.1 | -99.3 | 20 | 87.5 |
| 2025-12-11T04:03:00 | -17.1263 | -34.9774 | 438.0 | 0.54 | 2.30 | 1 | 66.0 | 65.1 | -97.1 | 19 | 83.3 |
| 2025-12-11T04:03:00 | -17.1263 | -34.9774 | 470.0 | -0.95 | -0.37 | 1 | 65.5 | 64.8 | -95.9 | 21 | 91.7 |
| 2025-12-11T04:03:00 | -17.1263 | -34.9774 | 502.0 | 3.55 | 0.92 | 1 | 66.7 | 66.6 | -93.8 | 22 | 95.8 |
| 2025-12-11T04:03:00 | -17.1263 | -34.9774 | 534.0 | 5.29 | -3.82 | 1 | 75.4 | 75.4 | -88.9 | 22 | 95.8 |
| 2025-12-11T04:03:00 | -17.1263 | -34.9774 | 566.0 | 3.55 | -12.63 | 1 | 78.1 | 77.8 | -86.7 | 21 | 91.7 |
| 2025-12-11T04:03:00 | -17.1263 | -34.9774 | 598.0 | 13.62 | -13.84 | 1 | 76.2 | 75.6 | -86.4 | 19 | 83.3 |
| 2025-12-11T04:03:00 | -17.1263 | -34.9774 | 630.0 | -1.02 | -19.95 | 1 | 64.1 | 64.1 | -90.2 | 22 | 95.8 |
| 2025-12-11T04:03:00 | -17.1263 | -34.9774 | 662.0 | 4.53 | -10.81 | 1 | 59.7 | 59.7 | -90.9 | 21 | 91.7 |
| 2025-12-11T04:03:00 | -17.1263 | -34.9774 | 694.0 | 2.22 | -18.30 | 1 | 57.1 | 57.1 | -90.9 | 23 | 100.0 |
| 2025-12-11T04:03:00 | -17.1263 | -34.9774 | 726.0 | 1.35 | -18.30 | 1 | 54.5 | 54.5 | -91.0 | 22 | 95.8 |
| 2025-12-11T04:03:00 | -17.1263 | -34.9774 | 758.0 | -0.03 | -20.73 | 1 | 51.4 | 51.2 | -91.3 | 21 | 91.7 |
| 2025-12-11T04:03:00 | -17.1263 | -34.9774 | 790.0 | 5.13 | -16.89 | 1 | 51.4 | 50.0 | -90.8 | 15 | 66.7 |
| 2025-12-11T04:03:00 | -17.1263 | -34.9774 | 822.0 | 3.56 | -15.83 | 1 | 49.7 | 48.0 | -90.6 | 16 | 70.8 |
| 2025-12-11T04:03:00 | -17.1263 | -34.9774 | 854.0 | -4.04 | -16.74 | 1 | 47.8 | 47.3 | -90.0 | 16 | 70.8 |
| 2025-12-11T04:03:00 | -17.1263 | -34.9774 | 886.0 | -0.57 | -28.47 | 1 | 47.4 | 42.8 | -90.9 | 11 | 45.8 |
| 2025-12-11T04:03:00 | -17.1263 | -34.9774 | 918.0 | 7.97 | -30.52 | 1 | 47.8 | 45.4 | -88.8 | 7 | 29.2 |
| 2025-12-11T04:03:00 | -17.1263 | -34.9774 | 950.0 | -4.12 | -17.05 | 4 | 48.4 | 37.5 | -91.2 | 4 | 16.7 |
| 2025-12-11T04:03:00 | -17.1263 | -34.9774 | 982.0 | 5.35 | -36.96 | 4 | 48.9 | 33.5 | -92.1 | 1 | 4.2 |
| 2025-12-11T04:04:00 | -17.1226 | -34.9753 | 54.0 | 6.63 | -14.85 | 1 | 180.9 | 180.9 | -75.7 | 17 | 89.5 |
| 2025-12-11T04:04:00 | -17.1226 | -34.9753 | 86.0 | 12.72 | -20.75 | 1 | 160.1 | 160.1 | -79.0 | 17 | 89.5 |
| 2025-12-11T04:04:00 | -17.1226 | -34.9753 | 118.0 | -11.27 | -31.47 | 1 | 146.5 | 146.5 | -81.0 | 17 | 89.5 |
| 2025-12-11T04:04:00 | -17.1226 | -34.9753 | 150.0 | 2.04 | -25.33 | 1 | 132.2 | 132.2 | -84.2 | 18 | 94.7 |
| 2025-12-11T04:04:00 | -17.1226 | -34.9753 | 182.0 | -1.23 | -24.11 | 1 | 122.8 | 122.8 | -85.8 | 19 | 100.0 |
| 2025-12-11T04:04:00 | -17.1226 | -34.9753 | 214.0 | 4.02 | -17.99 | 1 | 111.9 | 111.9 | -88.3 | 19 | 100.0 |
| 2025-12-11T04:04:00 | -17.1226 | -34.9753 | 246.0 | 8.46 | -14.12 | 1 | 109.5 | 109.1 | -87.5 | 17 | 89.5 |
| 2025-12-11T04:04:00 | -17.1226 | -34.9753 | 278.0 | 11.04 | -11.08 | 1 | 109.1 | 108.6 | -86.0 | 18 | 94.7 |
| 2025-12-11T04:04:00 | -17.1226 | -34.9753 | 310.0 | -7.83 | -12.99 | 1 | 91.2 | 91.2 | -91.8 | 18 | 94.7 |
| 2025-12-11T04:04:00 | -17.1226 | -34.9753 | 342.0 | -0.94 | -15.31 | 1 | 78.9 | 78.9 | -95.4 | 19 | 100.0 |
| 2025-12-11T04:04:00 | -17.1226 | -34.9753 | 374.0 | -0.92 | -8.86 | 1 | 72.4 | 72.4 | -96.7 | 19 | 100.0 |
| 2025-12-11T04:04:00 | -17.1226 | -34.9753 | 406.0 | -0.88 | -1.51 | 1 | 64.6 | 64.6 | -98.6 | 18 | 94.7 |
| 2025-12-11T04:04:00 | -17.1226 | -34.9753 | 438.0 | -5.92 | 1.37 | 1 | 64.1 | 64.1 | -97.5 | 19 | 100.0 |
| 2025-12-11T04:04:00 | -17.1226 | -34.9753 | 470.0 | 3.64 | -8.33 | 1 | 65.8 | 65.1 | -95.8 | 17 | 89.5 |
| 2025-12-11T04:04:00 | -17.1226 | -34.9753 | 502.0 | 6.87 | -6.93 | 1 | 65.7 | 64.3 | -94.8 | 16 | 84.2 |
| 2025-12-11T04:04:00 | -17.1226 | -34.9753 | 534.0 | -4.11 | -2.97 | 1 | 71.3 | 71.3 | -90.6 | 15 | 78.9 |
| 2025-12-11T04:04:00 | -17.1226 | -34.9753 | 566.0 | 2.18 | -9.29 | 1 | 73.7 | 73.7 | -88.4 | 18 | 94.7 |
| 2025-12-11T04:04:00 | -17.1226 | -34.9753 | 598.0 | 6.15 | -11.10 | 1 | 73.9 | 73.9 | -87.1 | 19 | 100.0 |
| 2025-12-11T04:04:00 | -17.1226 | -34.9753 | 630.0 | 5.83 | -17.76 | 1 | 64.3 | 64.3 | -90.1 | 19 | 100.0 |
| 2025-12-11T04:04:00 | -17.1226 | -34.9753 | 662.0 | 4.09 | -10.19 | 1 | 59.5 | 58.1 | -91.6 | 17 | 89.5 |
| 2025-12-11T04:04:00 | -17.1226 | -34.9753 | 694.0 | -7.14 | -22.00 | 1 | 59.3 | 58.6 | -90.3 | 18 | 94.7 |
| 2025-12-11T04:04:00 | -17.1226 | -34.9753 | 726.0 | 6.20 | -21.93 | 1 | 54.0 | 53.7 | -91.3 | 18 | 94.7 |
| 2025-12-11T04:04:00 | -17.1226 | -34.9753 | 758.0 | -4.06 | -20.40 | 1 | 53.2 | 49.9 | -91.9 | 15 | 78.9 |
| 2025-12-11T04:04:00 | -17.1226 | -34.9753 | 790.0 | 6.79 | -23.38 | 1 | 52.7 | 50.8 | -90.5 | 15 | 78.9 |
| 2025-12-11T04:04:00 | -17.1226 | -34.9753 | 822.0 | 1.07 | -21.17 | 1 | 51.6 | 50.7 | -89.5 | 16 | 84.2 |
| 2025-12-11T04:04:00 | -17.1226 | -34.9753 | 854.0 | 3.88 | -20.72 | 1 | 48.6 | 47.1 | -90.0 | 16 | 84.2 |
| 2025-12-11T04:04:00 | -17.1226 | -34.9753 | 886.0 | -3.27 | -15.20 | 1 | 47.5 | 45.2 | -89.9 | 13 | 68.4 |
| 2025-12-11T04:04:00 | -17.1226 | -34.9753 | 918.0 | 0.75 | -2.01 | 1 | 47.5 | 44.3 | -89.3 | 8 | 42.1 |
| 2025-12-11T04:04:00 | -17.1226 | -34.9753 | 950.0 | 12.43 | 4.91 | 4 | 48.1 | 45.5 | -87.8 | 2 | 10.5 |
| 2025-12-11T04:05:00 | -17.1193 | -34.9736 | 54.0 | 5.10 | -17.63 | 1 | 180.6 | 180.6 | -75.9 | 18 | 100.0 |
| 2025-12-11T04:05:00 | -17.1193 | -34.9736 | 86.0 | 9.03 | -32.38 | 1 | 161.8 | 161.8 | -78.2 | 17 | 94.4 |
| 2025-12-11T04:05:00 | -17.1193 | -34.9736 | 118.0 | -3.06 | -24.54 | 1 | 143.3 | 143.3 | -82.4 | 17 | 94.4 |
| 2025-12-11T04:05:00 | -17.1193 | -34.9736 | 150.0 | -3.28 | -23.50 | 1 | 132.4 | 132.4 | -84.1 | 18 | 100.0 |
| 2025-12-11T04:05:00 | -17.1193 | -34.9736 | 182.0 | 2.95 | -28.28 | 1 | 121.7 | 121.7 | -86.2 | 18 | 100.0 |
| 2025-12-11T04:05:00 | -17.1193 | -34.9736 | 214.0 | 5.35 | -27.94 | 1 | 113.0 | 113.0 | -87.8 | 18 | 100.0 |
| 2025-12-11T04:05:00 | -17.1193 | -34.9736 | 246.0 | 6.43 | -7.00 | 1 | 109.3 | 109.3 | -87.5 | 18 | 100.0 |
| 2025-12-11T04:05:00 | -17.1193 | -34.9736 | 278.0 | 2.29 | -19.89 | 1 | 109.5 | 109.5 | -85.6 | 18 | 100.0 |
| 2025-12-11T04:05:00 | -17.1193 | -34.9736 | 310.0 | 0.40 | -19.57 | 1 | 89.3 | 89.3 | -92.6 | 16 | 88.9 |
| 2025-12-11T04:05:00 | -17.1193 | -34.9736 | 342.0 | 5.44 | -5.33 | 1 | 78.5 | 78.5 | -95.6 | 18 | 100.0 |
| 2025-12-11T04:05:00 | -17.1193 | -34.9736 | 374.0 | 0.24 | -17.81 | 1 | 74.6 | 74.0 | -96.0 | 16 | 88.9 |
| 2025-12-11T04:05:00 | -17.1193 | -34.9736 | 406.0 | -3.45 | -4.52 | 1 | 63.1 | 62.5 | -99.5 | 16 | 88.9 |
| 2025-12-11T04:05:00 | -17.1193 | -34.9736 | 438.0 | -2.17 | -2.00 | 1 | 66.9 | 66.9 | -96.3 | 18 | 100.0 |
| 2025-12-11T04:05:00 | -17.1193 | -34.9736 | 470.0 | 5.22 | -10.04 | 1 | 67.5 | 67.5 | -94.7 | 18 | 100.0 |
| 2025-12-11T04:05:00 | -17.1193 | -34.9736 | 502.0 | -0.07 | -7.02 | 1 | 65.7 | 65.7 | -94.2 | 17 | 94.4 |
| 2025-12-11T04:05:00 | -17.1193 | -34.9736 | 534.0 | 6.19 | -4.75 | 1 | 72.7 | 72.7 | -90.0 | 17 | 94.4 |
| 2025-12-11T04:05:00 | -17.1193 | -34.9736 | 566.0 | 4.54 | -14.21 | 1 | 76.5 | 76.5 | -87.2 | 16 | 88.9 |
| 2025-12-11T04:05:00 | -17.1193 | -34.9736 | 598.0 | 2.07 | -7.34 | 1 | 76.1 | 75.4 | -86.5 | 17 | 94.4 |
| 2025-12-11T04:05:00 | -17.1193 | -34.9736 | 630.0 | 10.18 | -17.29 | 1 | 64.9 | 64.6 | -90.0 | 17 | 94.4 |
| 2025-12-11T04:05:00 | -17.1193 | -34.9736 | 662.0 | 8.37 | -15.72 | 1 | 62.7 | 61.1 | -90.3 | 14 | 77.8 |
| 2025-12-11T04:05:00 | -17.1193 | -34.9736 | 694.0 | 7.08 | -16.78 | 1 | 56.2 | 53.7 | -92.4 | 12 | 66.7 |
| 2025-12-11T04:05:00 | -17.1193 | -34.9736 | 726.0 | 8.33 | -25.49 | 1 | 53.6 | 52.3 | -91.9 | 13 | 72.2 |
| 2025-12-11T04:05:00 | -17.1193 | -34.9736 | 758.0 | 5.15 | -24.25 | 1 | 47.6 | 45.4 | -93.8 | 13 | 72.2 |
| 2025-12-11T04:05:00 | -17.1193 | -34.9736 | 790.0 | -0.21 | -12.54 | 1 | 50.6 | 46.5 | -92.3 | 12 | 66.7 |
| 2025-12-11T04:05:00 | -17.1193 | -34.9736 | 822.0 | 11.77 | -14.37 | 1 | 47.8 | 45.7 | -91.6 | 11 | 61.1 |
| 2025-12-11T04:05:00 | -17.1193 | -34.9736 | 854.0 | -0.99 | -18.33 | 1 | 49.2 | 44.9 | -91.0 | 12 | 66.7 |
| 2025-12-11T04:05:00 | -17.1193 | -34.9736 | 886.0 | -0.49 | -24.89 | 1 | 46.3 | 42.9 | -90.8 | 12 | 66.7 |
| 2025-12-11T04:05:00 | -17.1193 | -34.9736 | 918.0 | -13.42 | -23.63 | 1 | 47.8 | 44.2 | -89.3 | 5 | 27.8 |
| 2025-12-11T04:05:00 | -17.1193 | -34.9736 | 950.0 | -3.74 | -32.30 | 1 | 47.3 | 42.8 | -89.0 | 5 | 27.8 |
| 2025-12-11T04:06:00 | -17.1161 | -34.9719 | 54.0 | -1.23 | -12.73 | 1 | 183.3 | 183.3 | -74.7 | 12 | 66.7 |
| 2025-12-11T04:06:00 | -17.1161 | -34.9719 | 86.0 | 6.87 | -18.71 | 1 | 162.3 | 162.3 | -78.0 | 17 | 94.4 |
| 2025-12-11T04:06:00 | -17.1161 | -34.9719 | 118.0 | -6.43 | -24.99 | 1 | 146.8 | 146.8 | -80.9 | 14 | 77.8 |
| 2025-12-11T04:06:00 | -17.1161 | -34.9719 | 150.0 | 2.13 | -29.93 | 1 | 132.4 | 132.4 | -84.1 | 17 | 94.4 |
| 2025-12-11T04:06:00 | -17.1161 | -34.9719 | 182.0 | 1.21 | -34.25 | 1 | 122.2 | 122.2 | -86.0 | 15 | 83.3 |
| 2025-12-11T04:06:00 | -17.1161 | -34.9719 | 214.0 | 1.07 | -22.90 | 1 | 111.5 | 111.5 | -88.4 | 17 | 94.4 |
| 2025-12-11T04:06:00 | -17.1161 | -34.9719 | 246.0 | 3.92 | -19.33 | 1 | 110.1 | 110.1 | -87.1 | 17 | 94.4 |
| 2025-12-11T04:06:00 | -17.1161 | -34.9719 | 278.0 | 3.63 | -15.36 | 1 | 110.6 | 110.6 | -85.1 | 18 | 100.0 |
| 2025-12-11T04:06:00 | -17.1161 | -34.9719 | 310.0 | -2.00 | -11.79 | 1 | 88.7 | 88.7 | -92.8 | 17 | 94.4 |
| 2025-12-11T04:06:00 | -17.1161 | -34.9719 | 342.0 | -1.29 | -7.12 | 1 | 78.7 | 78.7 | -95.5 | 17 | 94.4 |
| 2025-12-11T04:06:00 | -17.1161 | -34.9719 | 374.0 | 7.74 | -12.35 | 1 | 74.6 | 74.6 | -95.8 | 18 | 100.0 |
| 2025-12-11T04:06:00 | -17.1161 | -34.9719 | 406.0 | -7.97 | -9.32 | 1 | 63.5 | 63.5 | -99.1 | 18 | 100.0 |
| 2025-12-11T04:06:00 | -17.1161 | -34.9719 | 438.0 | -6.95 | 8.39 | 1 | 68.3 | 67.1 | -96.2 | 17 | 94.4 |
| 2025-12-11T04:06:00 | -17.1161 | -34.9719 | 470.0 | -2.89 | 0.07 | 1 | 65.5 | 64.8 | -95.9 | 17 | 94.4 |
| 2025-12-11T04:06:00 | -17.1161 | -34.9719 | 502.0 | -1.24 | -7.67 | 1 | 67.2 | 67.2 | -93.6 | 16 | 88.9 |
| 2025-12-11T04:06:00 | -17.1161 | -34.9719 | 534.0 | 3.45 | -2.06 | 1 | 75.2 | 75.2 | -89.0 | 18 | 100.0 |
| 2025-12-11T04:06:00 | -17.1161 | -34.9719 | 566.0 | 6.81 | -15.32 | 1 | 78.5 | 77.3 | -86.9 | 17 | 94.4 |
| 2025-12-11T04:06:00 | -17.1161 | -34.9719 | 598.0 | 0.74 | -12.37 | 1 | 78.0 | 78.0 | -85.4 | 18 | 100.0 |
| 2025-12-11T04:06:00 | -17.1161 | -34.9719 | 630.0 | -1.64 | -18.49 | 1 | 64.8 | 64.8 | -89.9 | 17 | 94.4 |
| 2025-12-11T04:06:00 | -17.1161 | -34.9719 | 662.0 | 2.39 | -14.21 | 1 | 59.0 | 59.0 | -91.2 | 18 | 100.0 |
| 2025-12-11T04:06:00 | -17.1161 | -34.9719 | 694.0 | -2.89 | -17.69 | 1 | 56.2 | 55.6 | -91.6 | 17 | 94.4 |
| 2025-12-11T04:06:00 | -17.1161 | -34.9719 | 726.0 | 9.28 | -22.82 | 1 | 56.0 | 55.8 | -90.4 | 16 | 88.9 |
| 2025-12-11T04:06:00 | -17.1161 | -34.9719 | 758.0 | -2.39 | -26.19 | 1 | 50.3 | 49.9 | -91.9 | 16 | 88.9 |
| 2025-12-11T04:06:00 | -17.1161 | -34.9719 | 790.0 | 0.67 | -25.42 | 1 | 50.3 | 48.5 | -91.4 | 14 | 77.8 |
| 2025-12-11T04:06:00 | -17.1161 | -34.9719 | 822.0 | 2.80 | -16.69 | 1 | 50.4 | 46.6 | -91.2 | 13 | 72.2 |
| 2025-12-11T04:06:00 | -17.1161 | -34.9719 | 854.0 | -0.46 | -15.51 | 1 | 50.2 | 48.2 | -89.6 | 14 | 77.8 |
| 2025-12-11T04:06:00 | -17.1161 | -34.9719 | 886.0 | 3.38 | -25.31 | 1 | 48.7 | 47.1 | -89.0 | 10 | 55.6 |
| 2025-12-11T04:06:00 | -17.1161 | -34.9719 | 918.0 | -3.45 | -27.20 | 4 | 48.3 | 47.9 | -87.7 | 3 | 16.7 |
| 2025-12-11T04:06:00 | -17.1161 | -34.9719 | 950.0 | -0.89 | -6.13 | 4 | 48.1 | 47.6 | -86.9 | 4 | 22.2 |
| 2025-12-11T04:06:00 | -17.1161 | -34.9719 | 982.0 | -12.33 | -45.81 | 4 | 46.6 | 45.2 | -87.0 | 1 | 5.6 |
| 2025-12-11T04:07:00 | -17.1129 | -34.9701 | 54.0 | -3.30 | -13.40 | 1 | 179.9 | 179.9 | -76.2 | 16 | 88.9 |
| 2025-12-11T04:07:00 | -17.1129 | -34.9701 | 86.0 | 9.63 | -25.76 | 1 | 163.0 | 163.0 | -77.7 | 15 | 83.3 |
| 2025-12-11T04:07:00 | -17.1129 | -34.9701 | 118.0 | -1.42 | -24.13 | 1 | 148.4 | 148.4 | -80.2 | 17 | 94.4 |
| 2025-12-11T04:07:00 | -17.1129 | -34.9701 | 150.0 | 2.10 | -21.86 | 1 | 133.4 | 132.7 | -84.0 | 16 | 88.9 |
| 2025-12-11T04:07:00 | -17.1129 | -34.9701 | 182.0 | -10.51 | -19.03 | 1 | 123.2 | 122.8 | -85.8 | 16 | 88.9 |
| 2025-12-11T04:07:00 | -17.1129 | -34.9701 | 214.0 | 0.59 | -14.07 | 1 | 112.0 | 112.0 | -88.2 | 17 | 94.4 |
| 2025-12-11T04:07:00 | -17.1129 | -34.9701 | 246.0 | 4.33 | -11.35 | 1 | 114.5 | 114.5 | -85.3 | 17 | 94.4 |
| 2025-12-11T04:07:00 | -17.1129 | -34.9701 | 278.0 | 3.58 | -9.72 | 1 | 109.1 | 109.1 | -85.8 | 17 | 94.4 |
| 2025-12-11T04:07:00 | -17.1129 | -34.9701 | 310.0 | 1.02 | -18.79 | 1 | 89.5 | 89.5 | -92.5 | 18 | 100.0 |
| 2025-12-11T04:07:00 | -17.1129 | -34.9701 | 342.0 | 1.64 | -2.47 | 1 | 80.8 | 80.8 | -94.6 | 17 | 94.4 |
| 2025-12-11T04:07:00 | -17.1129 | -34.9701 | 374.0 | -2.55 | -7.09 | 1 | 76.2 | 76.2 | -95.1 | 18 | 100.0 |
| 2025-12-11T04:07:00 | -17.1129 | -34.9701 | 406.0 | -2.01 | -5.64 | 1 | 64.9 | 64.9 | -98.5 | 18 | 100.0 |
| 2025-12-11T04:07:00 | -17.1129 | -34.9701 | 438.0 | 4.73 | 1.15 | 1 | 65.3 | 65.3 | -97.0 | 18 | 100.0 |
| 2025-12-11T04:07:00 | -17.1129 | -34.9701 | 470.0 | -5.68 | -6.52 | 1 | 65.9 | 65.9 | -95.4 | 17 | 94.4 |
| 2025-12-11T04:07:00 | -17.1129 | -34.9701 | 502.0 | -5.64 | -3.57 | 1 | 68.0 | 67.7 | -93.4 | 16 | 88.9 |
| 2025-12-11T04:07:00 | -17.1129 | -34.9701 | 534.0 | 11.33 | -5.15 | 1 | 75.8 | 75.3 | -88.9 | 16 | 88.9 |
| 2025-12-11T04:07:00 | -17.1129 | -34.9701 | 566.0 | 7.42 | -6.70 | 1 | 78.9 | 78.9 | -86.2 | 17 | 94.4 |
| 2025-12-11T04:07:00 | -17.1129 | -34.9701 | 598.0 | -1.52 | -11.58 | 1 | 77.2 | 77.2 | -85.8 | 18 | 100.0 |
| 2025-12-11T04:07:00 | -17.1129 | -34.9701 | 630.0 | 0.79 | -18.01 | 1 | 68.0 | 68.0 | -88.5 | 17 | 94.4 |
| 2025-12-11T04:07:00 | -17.1129 | -34.9701 | 662.0 | 0.81 | -16.60 | 1 | 58.5 | 58.5 | -91.4 | 18 | 100.0 |
| 2025-12-11T04:07:00 | -17.1129 | -34.9701 | 694.0 | 1.57 | -15.38 | 1 | 55.9 | 55.9 | -91.4 | 17 | 94.4 |
| 2025-12-11T04:07:00 | -17.1129 | -34.9701 | 726.0 | 2.19 | -13.37 | 1 | 54.2 | 54.2 | -91.1 | 18 | 100.0 |
| 2025-12-11T04:07:00 | -17.1129 | -34.9701 | 758.0 | 4.63 | -17.10 | 1 | 50.7 | 49.5 | -92.0 | 17 | 94.4 |
| 2025-12-11T04:07:00 | -17.1129 | -34.9701 | 790.0 | 4.32 | -20.43 | 1 | 50.1 | 49.3 | -91.1 | 16 | 88.9 |
| 2025-12-11T04:07:00 | -17.1129 | -34.9701 | 822.0 | 9.08 | -13.90 | 1 | 48.4 | 47.0 | -91.1 | 16 | 88.9 |
| 2025-12-11T04:07:00 | -17.1129 | -34.9701 | 854.0 | -6.29 | -31.04 | 1 | 46.8 | 45.2 | -90.8 | 14 | 77.8 |
| 2025-12-11T04:07:00 | -17.1129 | -34.9701 | 886.0 | -1.70 | -20.15 | 1 | 48.2 | 45.5 | -89.7 | 11 | 61.1 |
| 2025-12-11T04:07:00 | -17.1129 | -34.9701 | 918.0 | 6.16 | -24.06 | 1 | 46.3 | 43.0 | -89.9 | 5 | 27.8 |
| 2025-12-11T04:07:00 | -17.1129 | -34.9701 | 950.0 | 0.32 | -10.44 | 4 | 45.7 | 42.1 | -89.2 | 4 | 22.2 |
| 2025-12-11T04:07:00 | -17.1129 | -34.9701 | 982.0 | 4.69 | -44.45 | 4 | 46.0 | 37.5 | -90.3 | 1 | 5.6 |
| 2025-12-11T04:08:00 | -17.1098 | -34.9684 | 54.0 | -1.59 | -15.86 | 1 | 178.0 | 178.0 | -77.0 | 16 | 88.9 |
| 2025-12-11T04:08:00 | -17.1098 | -34.9684 | 86.0 | 4.65 | -18.01 | 1 | 162.1 | 162.1 | -78.1 | 16 | 88.9 |
| 2025-12-11T04:08:00 | -17.1098 | -34.9684 | 118.0 | 3.17 | -19.71 | 1 | 148.8 | 148.8 | -80.0 | 16 | 88.9 |
| 2025-12-11T04:08:00 | -17.1098 | -34.9684 | 150.0 | -6.22 | -21.45 | 1 | 133.0 | 133.0 | -83.9 | 18 | 100.0 |
| 2025-12-11T04:08:00 | -17.1098 | -34.9684 | 182.0 | -10.29 | -33.20 | 1 | 120.1 | 120.1 | -86.9 | 17 | 94.4 |
| 2025-12-11T04:08:00 | -17.1098 | -34.9684 | 214.0 | 2.62 | -22.56 | 1 | 113.5 | 113.5 | -87.6 | 18 | 100.0 |
| 2025-12-11T04:08:00 | -17.1098 | -34.9684 | 246.0 | 1.28 | -19.20 | 1 | 116.8 | 116.8 | -84.3 | 16 | 88.9 |
| 2025-12-11T04:08:00 | -17.1098 | -34.9684 | 278.0 | 2.48 | -10.23 | 1 | 110.2 | 110.2 | -85.3 | 17 | 94.4 |
| 2025-12-11T04:08:00 | -17.1098 | -34.9684 | 310.0 | -11.51 | -15.13 | 1 | 89.2 | 89.2 | -92.6 | 17 | 94.4 |
| 2025-12-11T04:08:00 | -17.1098 | -34.9684 | 342.0 | -4.96 | -9.11 | 1 | 78.1 | 78.1 | -95.8 | 16 | 88.9 |
| 2025-12-11T04:08:00 | -17.1098 | -34.9684 | 374.0 | -6.93 | -4.35 | 1 | 76.0 | 76.0 | -95.2 | 17 | 94.4 |
| 2025-12-11T04:08:00 | -17.1098 | -34.9684 | 406.0 | -10.91 | -6.61 | 1 | 64.9 | 64.9 | -98.5 | 18 | 100.0 |
| 2025-12-11T04:08:00 | -17.1098 | -34.9684 | 438.0 | 0.26 | 0.24 | 1 | 66.9 | 66.9 | -96.3 | 18 | 100.0 |
| 2025-12-11T04:08:00 | -17.1098 | -34.9684 | 470.0 | -9.38 | -2.47 | 1 | 64.3 | 64.3 | -96.1 | 17 | 94.4 |
| 2025-12-11T04:08:00 | -17.1098 | -34.9684 | 502.0 | -2.28 | -1.21 | 1 | 69.0 | 69.0 | -92.8 | 16 | 88.9 |
| 2025-12-11T04:08:00 | -17.1098 | -34.9684 | 534.0 | 4.24 | -3.69 | 1 | 80.2 | 78.9 | -87.4 | 16 | 88.9 |
| 2025-12-11T04:08:00 | -17.1098 | -34.9684 | 566.0 | 2.43 | -10.31 | 1 | 79.0 | 78.9 | -86.2 | 16 | 88.9 |
| 2025-12-11T04:08:00 | -17.1098 | -34.9684 | 598.0 | 1.36 | -16.99 | 1 | 78.6 | 78.6 | -85.1 | 18 | 100.0 |
| 2025-12-11T04:08:00 | -17.1098 | -34.9684 | 630.0 | -0.38 | -14.95 | 1 | 65.6 | 65.6 | -89.5 | 18 | 100.0 |
| 2025-12-11T04:08:00 | -17.1098 | -34.9684 | 662.0 | -1.57 | -13.33 | 1 | 59.5 | 58.6 | -91.4 | 16 | 88.9 |
| 2025-12-11T04:08:00 | -17.1098 | -34.9684 | 694.0 | 5.79 | -18.57 | 1 | 57.7 | 57.7 | -90.7 | 15 | 83.3 |
| 2025-12-11T04:08:00 | -17.1098 | -34.9684 | 726.0 | -2.44 | -19.60 | 1 | 57.9 | 56.8 | -90.0 | 16 | 88.9 |
| 2025-12-11T04:08:00 | -17.1098 | -34.9684 | 758.0 | -9.54 | -27.58 | 1 | 52.5 | 51.9 | -91.0 | 15 | 83.3 |
| 2025-12-11T04:08:00 | -17.1098 | -34.9684 | 790.0 | 0.69 | -23.47 | 1 | 50.6 | 48.3 | -91.5 | 14 | 77.8 |
| 2025-12-11T04:08:00 | -17.1098 | -34.9684 | 822.0 | 0.51 | -13.60 | 1 | 48.4 | 46.4 | -91.3 | 12 | 66.7 |
| 2025-12-11T04:08:00 | -17.1098 | -34.9684 | 854.0 | -8.36 | -16.76 | 1 | 47.0 | 45.9 | -90.6 | 16 | 88.9 |
| 2025-12-11T04:08:00 | -17.1098 | -34.9684 | 886.0 | 3.33 | -26.09 | 1 | 45.4 | 43.8 | -90.4 | 10 | 55.6 |
| 2025-12-11T04:08:00 | -17.1098 | -34.9684 | 918.0 | -4.98 | -21.87 | 1 | 45.5 | 42.2 | -90.2 | 10 | 55.6 |
| 2025-12-11T04:08:00 | -17.1098 | -34.9684 | 950.0 | -6.95 | -14.12 | 1 | 46.8 | 43.6 | -88.6 | 5 | 27.8 |
| 2025-12-11T04:09:00 | -17.1066 | -34.9667 | 54.0 | 12.12 | -12.44 | 1 | 180.6 | 180.6 | -75.9 | 15 | 83.3 |
| 2025-12-11T04:09:00 | -17.1066 | -34.9667 | 86.0 | 14.54 | -24.13 | 1 | 164.1 | 163.7 | -77.4 | 14 | 77.8 |
| 2025-12-11T04:09:00 | -17.1066 | -34.9667 | 118.0 | 11.03 | -18.46 | 1 | 150.1 | 149.7 | -79.6 | 16 | 88.9 |
| 2025-12-11T04:09:00 | -17.1066 | -34.9667 | 150.0 | 13.59 | -7.42 | 1 | 136.1 | 136.1 | -82.5 | 16 | 88.9 |
| 2025-12-11T04:09:00 | -17.1066 | -34.9667 | 182.0 | 0.59 | -18.73 | 1 | 124.6 | 124.2 | -85.2 | 17 | 94.4 |
| 2025-12-11T04:09:00 | -17.1066 | -34.9667 | 214.0 | -0.85 | -24.33 | 1 | 116.5 | 116.3 | -86.4 | 17 | 94.4 |
| 2025-12-11T04:09:00 | -17.1066 | -34.9667 | 246.0 | 4.45 | -12.94 | 1 | 118.7 | 118.7 | -83.5 | 18 | 100.0 |
| 2025-12-11T04:09:00 | -17.1066 | -34.9667 | 278.0 | -4.94 | -10.53 | 1 | 112.0 | 112.0 | -84.6 | 17 | 94.4 |
| 2025-12-11T04:09:00 | -17.1066 | -34.9667 | 310.0 | -5.54 | -8.64 | 1 | 91.1 | 91.1 | -91.8 | 17 | 94.4 |
| 2025-12-11T04:09:00 | -17.1066 | -34.9667 | 342.0 | 1.41 | -1.84 | 1 | 79.4 | 79.4 | -95.2 | 18 | 100.0 |
| 2025-12-11T04:09:00 | -17.1066 | -34.9667 | 374.0 | 2.10 | -9.44 | 1 | 71.7 | 71.7 | -97.0 | 18 | 100.0 |
| 2025-12-11T04:09:00 | -17.1066 | -34.9667 | 406.0 | -3.47 | -1.97 | 1 | 62.9 | 62.9 | -99.4 | 18 | 100.0 |
| 2025-12-11T04:09:00 | -17.1066 | -34.9667 | 438.0 | 3.10 | -5.57 | 1 | 64.7 | 64.7 | -97.2 | 18 | 100.0 |
| 2025-12-11T04:09:00 | -17.1066 | -34.9667 | 470.0 | 2.32 | 5.93 | 1 | 65.0 | 65.0 | -95.8 | 16 | 88.9 |
| 2025-12-11T04:09:00 | -17.1066 | -34.9667 | 502.0 | 3.31 | -8.56 | 1 | 68.4 | 67.8 | -93.3 | 17 | 94.4 |
| 2025-12-11T04:09:00 | -17.1066 | -34.9667 | 534.0 | -2.15 | -9.93 | 1 | 79.5 | 77.4 | -88.0 | 15 | 83.3 |
| 2025-12-11T04:09:00 | -17.1066 | -34.9667 | 566.0 | 6.77 | -8.28 | 1 | 80.2 | 79.3 | -86.0 | 15 | 83.3 |
| 2025-12-11T04:09:00 | -17.1066 | -34.9667 | 598.0 | 2.13 | -17.05 | 1 | 78.8 | 78.5 | -85.2 | 16 | 88.9 |
| 2025-12-11T04:09:00 | -17.1066 | -34.9667 | 630.0 | 3.76 | -13.89 | 1 | 65.4 | 65.4 | -89.6 | 17 | 94.4 |
| 2025-12-11T04:09:00 | -17.1066 | -34.9667 | 662.0 | 7.56 | -14.14 | 1 | 60.2 | 59.6 | -91.0 | 17 | 94.4 |
| 2025-12-11T04:09:00 | -17.1066 | -34.9667 | 694.0 | -0.12 | -14.05 | 1 | 55.8 | 55.9 | -91.4 | 16 | 88.9 |
| 2025-12-11T04:09:00 | -17.1066 | -34.9667 | 726.0 | -1.53 | -23.20 | 1 | 54.1 | 52.6 | -91.8 | 16 | 88.9 |
| 2025-12-11T04:09:00 | -17.1066 | -34.9667 | 758.0 | -0.23 | -23.68 | 1 | 50.8 | 50.1 | -91.8 | 16 | 88.9 |
| 2025-12-11T04:09:00 | -17.1066 | -34.9667 | 790.0 | -3.93 | -11.99 | 1 | 50.2 | 50.0 | -90.8 | 14 | 77.8 |
| 2025-12-11T04:09:00 | -17.1066 | -34.9667 | 822.0 | 5.93 | -9.45 | 1 | 50.2 | 48.8 | -90.3 | 15 | 83.3 |
| 2025-12-11T04:09:00 | -17.1066 | -34.9667 | 854.0 | 2.66 | -15.58 | 1 | 49.0 | 48.4 | -89.5 | 16 | 88.9 |
| 2025-12-11T04:09:00 | -17.1066 | -34.9667 | 886.0 | -8.76 | -26.44 | 1 | 49.9 | 46.5 | -89.3 | 8 | 44.4 |
| 2025-12-11T04:09:00 | -17.1066 | -34.9667 | 918.0 | 7.51 | -18.74 | 4 | 48.8 | 39.6 | -91.3 | 4 | 22.2 |
| 2025-12-11T04:10:00 | -17.1035 | -34.9650 | 54.0 | 5.83 | -22.22 | 1 | 179.7 | 179.7 | -76.2 | 15 | 83.3 |
| 2025-12-11T04:10:00 | -17.1035 | -34.9650 | 86.0 | 7.66 | -21.75 | 1 | 164.2 | 164.2 | -77.2 | 17 | 94.4 |
| 2025-12-11T04:10:00 | -17.1035 | -34.9650 | 118.0 | -3.01 | -24.42 | 1 | 147.6 | 147.6 | -80.5 | 17 | 94.4 |
| 2025-12-11T04:10:00 | -17.1035 | -34.9650 | 150.0 | 7.64 | -12.26 | 1 | 133.2 | 133.2 | -83.8 | 16 | 88.9 |
| 2025-12-11T04:10:00 | -17.1035 | -34.9650 | 182.0 | 3.41 | -29.97 | 1 | 124.6 | 124.6 | -85.0 | 18 | 100.0 |
| 2025-12-11T04:10:00 | -17.1035 | -34.9650 | 214.0 | 5.93 | -22.45 | 1 | 117.3 | 117.3 | -86.0 | 16 | 88.9 |
| 2025-12-11T04:10:00 | -17.1035 | -34.9650 | 246.0 | 11.41 | -12.90 | 1 | 118.1 | 117.8 | -83.9 | 17 | 94.4 |
| 2025-12-11T04:10:00 | -17.1035 | -34.9650 | 278.0 | 10.63 | -8.63 | 1 | 110.1 | 109.8 | -85.5 | 14 | 77.8 |
| 2025-12-11T04:10:00 | -17.1035 | -34.9650 | 310.0 | -2.91 | -11.08 | 1 | 94.1 | 94.1 | -90.5 | 17 | 94.4 |
| 2025-12-11T04:10:00 | -17.1035 | -34.9650 | 342.0 | -4.21 | -12.52 | 1 | 80.4 | 80.4 | -94.8 | 17 | 94.4 |
| 2025-12-11T04:10:00 | -17.1035 | -34.9650 | 374.0 | -1.65 | -8.47 | 1 | 72.4 | 72.4 | -96.7 | 18 | 100.0 |
| 2025-12-11T04:10:00 | -17.1035 | -34.9650 | 406.0 | -6.12 | -4.28 | 1 | 62.3 | 62.3 | -99.6 | 18 | 100.0 |
| 2025-12-11T04:10:00 | -17.1035 | -34.9650 | 438.0 | -3.61 | -3.16 | 1 | 62.5 | 62.5 | -98.2 | 18 | 100.0 |
| 2025-12-11T04:10:00 | -17.1035 | -34.9650 | 470.0 | -1.26 | 2.18 | 1 | 65.1 | 65.1 | -95.8 | 18 | 100.0 |
| 2025-12-11T04:10:00 | -17.1035 | -34.9650 | 502.0 | 7.27 | -10.42 | 1 | 69.7 | 69.7 | -92.5 | 17 | 94.4 |
| 2025-12-11T04:10:00 | -17.1035 | -34.9650 | 534.0 | 1.95 | -5.10 | 1 | 78.4 | 78.4 | -87.6 | 17 | 94.4 |
| 2025-12-11T04:10:00 | -17.1035 | -34.9650 | 566.0 | 9.33 | -6.66 | 1 | 80.3 | 80.3 | -85.6 | 16 | 88.9 |
| 2025-12-11T04:10:00 | -17.1035 | -34.9650 | 598.0 | 4.83 | -3.86 | 1 | 77.7 | 77.2 | -85.7 | 16 | 88.9 |
| 2025-12-11T04:10:00 | -17.1035 | -34.9650 | 630.0 | 0.79 | -16.80 | 1 | 67.1 | 66.8 | -89.0 | 17 | 94.4 |
| 2025-12-11T04:10:00 | -17.1035 | -34.9650 | 662.0 | 3.90 | -9.60 | 1 | 59.0 | 59.0 | -91.2 | 17 | 94.4 |
| 2025-12-11T04:10:00 | -17.1035 | -34.9650 | 694.0 | 10.75 | -17.58 | 1 | 56.2 | 56.2 | -91.3 | 17 | 94.4 |
| 2025-12-11T04:10:00 | -17.1035 | -34.9650 | 726.0 | 4.49 | -13.50 | 1 | 54.3 | 54.3 | -91.0 | 18 | 100.0 |
| 2025-12-11T04:10:00 | -17.1035 | -34.9650 | 758.0 | -1.07 | -16.26 | 1 | 49.9 | 49.9 | -91.9 | 17 | 94.4 |
| 2025-12-11T04:10:00 | -17.1035 | -34.9650 | 790.0 | -0.53 | -7.75 | 1 | 48.8 | 50.4 | -90.6 | 13 | 72.2 |
| 2025-12-11T04:10:00 | -17.1035 | -34.9650 | 822.0 | 0.79 | -16.16 | 1 | 47.1 | 46.3 | -91.4 | 16 | 88.9 |
| 2025-12-11T04:10:00 | -17.1035 | -34.9650 | 854.0 | -7.25 | -7.44 | 1 | 49.7 | 48.3 | -89.5 | 15 | 83.3 |
| 2025-12-11T04:10:00 | -17.1035 | -34.9650 | 886.0 | -5.46 | -20.39 | 1 | 44.5 | 43.4 | -90.6 | 15 | 83.3 |
| 2025-12-11T04:10:00 | -17.1035 | -34.9650 | 918.0 | -6.40 | -31.61 | 1 | 44.9 | 43.0 | -89.8 | 6 | 33.3 |
| 2025-12-11T04:10:00 | -17.1035 | -34.9650 | 950.0 | 6.23 | -32.81 | 4 | 45.2 | 44.1 | -88.4 | 2 | 11.1 |
| 2025-12-11T04:11:00 | -17.1003 | -34.9633 | 54.0 | 0.65 | -17.76 | 1 | 180.8 | 180.6 | -75.9 | 16 | 88.9 |
| 2025-12-11T04:11:00 | -17.1003 | -34.9633 | 86.0 | -0.84 | -29.93 | 1 | 164.2 | 163.9 | -77.4 | 13 | 72.2 |
| 2025-12-11T04:11:00 | -17.1003 | -34.9633 | 118.0 | 7.09 | -23.56 | 1 | 148.7 | 148.7 | -80.1 | 16 | 88.9 |
| 2025-12-11T04:11:00 | -17.1003 | -34.9633 | 150.0 | 3.84 | -30.74 | 1 | 134.8 | 134.8 | -83.1 | 17 | 94.4 |
| 2025-12-11T04:11:00 | -17.1003 | -34.9633 | 182.0 | 2.90 | -19.10 | 1 | 124.6 | 124.6 | -85.0 | 17 | 94.4 |
| 2025-12-11T04:11:00 | -17.1003 | -34.9633 | 214.0 | 4.66 | -22.06 | 1 | 117.0 | 117.0 | -86.1 | 16 | 88.9 |
| 2025-12-11T04:11:00 | -17.1003 | -34.9633 | 246.0 | 0.18 | -9.93 | 1 | 118.3 | 118.3 | -83.7 | 17 | 94.4 |
| 2025-12-11T04:11:00 | -17.1003 | -34.9633 | 278.0 | 8.02 | -12.00 | 1 | 109.5 | 109.5 | -85.6 | 18 | 100.0 |
| 2025-12-11T04:11:00 | -17.1003 | -34.9633 | 310.0 | -4.43 | 0.45 | 1 | 94.2 | 94.2 | -90.5 | 18 | 100.0 |
| 2025-12-11T04:11:00 | -17.1003 | -34.9633 | 342.0 | -5.55 | -4.56 | 1 | 78.9 | 78.9 | -95.4 | 18 | 100.0 |
| 2025-12-11T04:11:00 | -17.1003 | -34.9633 | 374.0 | 1.23 | -10.13 | 1 | 71.9 | 71.9 | -96.9 | 18 | 100.0 |
| 2025-12-11T04:11:00 | -17.1003 | -34.9633 | 406.0 | 8.06 | -15.46 | 1 | 63.3 | 63.3 | -99.2 | 18 | 100.0 |
| 2025-12-11T04:11:00 | -17.1003 | -34.9633 | 438.0 | 5.43 | -6.37 | 1 | 64.0 | 64.0 | -97.6 | 18 | 100.0 |
| 2025-12-11T04:11:00 | -17.1003 | -34.9633 | 470.0 | -2.56 | -4.04 | 1 | 67.0 | 65.6 | -95.5 | 16 | 88.9 |
| 2025-12-11T04:11:00 | -17.1003 | -34.9633 | 502.0 | 3.78 | -7.01 | 1 | 69.4 | 69.4 | -92.7 | 16 | 88.9 |
| 2025-12-11T04:11:00 | -17.1003 | -34.9633 | 534.0 | 3.41 | -4.65 | 1 | 80.3 | 80.3 | -86.8 | 18 | 100.0 |
| 2025-12-11T04:11:00 | -17.1003 | -34.9633 | 566.0 | 6.42 | -11.20 | 1 | 81.6 | 81.6 | -85.0 | 18 | 100.0 |
| 2025-12-11T04:11:00 | -17.1003 | -34.9633 | 598.0 | 2.14 | -8.62 | 1 | 78.2 | 78.2 | -85.3 | 17 | 94.4 |
| 2025-12-11T04:11:00 | -17.1003 | -34.9633 | 630.0 | 0.58 | -16.66 | 1 | 66.7 | 66.4 | -89.2 | 16 | 88.9 |
| 2025-12-11T04:11:00 | -17.1003 | -34.9633 | 662.0 | -2.95 | -8.37 | 1 | 57.9 | 57.7 | -91.8 | 16 | 88.9 |
| 2025-12-11T04:11:00 | -17.1003 | -34.9633 | 694.0 | -3.08 | -10.91 | 1 | 55.7 | 54.2 | -92.2 | 14 | 77.8 |
| 2025-12-11T04:11:00 | -17.1003 | -34.9633 | 726.0 | 4.77 | -12.56 | 1 | 54.1 | 52.3 | -91.9 | 15 | 83.3 |
| 2025-12-11T04:11:00 | -17.1003 | -34.9633 | 758.0 | -4.36 | -20.55 | 1 | 47.8 | 46.6 | -93.3 | 15 | 83.3 |
| 2025-12-11T04:11:00 | -17.1003 | -34.9633 | 790.0 | 10.46 | -32.28 | 1 | 50.0 | 47.9 | -91.7 | 14 | 77.8 |
| 2025-12-11T04:11:00 | -17.1003 | -34.9633 | 822.0 | 3.11 | -14.33 | 1 | 51.9 | 50.9 | -89.4 | 16 | 88.9 |
| 2025-12-11T04:11:00 | -17.1003 | -34.9633 | 854.0 | 4.91 | -10.40 | 1 | 49.3 | 48.9 | -89.3 | 16 | 88.9 |
| 2025-12-11T04:11:00 | -17.1003 | -34.9633 | 886.0 | -5.78 | -16.93 | 1 | 49.9 | 50.0 | -87.8 | 12 | 66.7 |
| 2025-12-11T04:11:00 | -17.1003 | -34.9633 | 918.0 | -4.73 | -31.92 | 1 | 48.8 | 43.4 | -89.6 | 6 | 33.3 |
| 2025-12-11T04:11:00 | -17.1003 | -34.9633 | 950.0 | -45.39 | -18.75 | 4 | 48.3 | 48.0 | -86.7 | 1 | 5.6 |
| 2025-12-11T04:11:00 | -17.1003 | -34.9633 | 982.0 | -15.27 | -30.98 | 4 | 44.4 | 33.9 | -91.9 | 2 | 11.1 |
| 2025-12-11T04:12:00 | -17.0971 | -34.9615 | 54.0 | 8.23 | -27.37 | 1 | 179.9 | 179.9 | -76.2 | 15 | 83.3 |
| 2025-12-11T04:12:00 | -17.0971 | -34.9615 | 86.0 | 5.47 | -23.24 | 1 | 163.3 | 163.3 | -77.6 | 16 | 88.9 |
| 2025-12-11T04:12:00 | -17.0971 | -34.9615 | 118.0 | 2.33 | -10.74 | 1 | 148.2 | 148.2 | -80.3 | 17 | 94.4 |
| 2025-12-11T04:12:00 | -17.0971 | -34.9615 | 150.0 | 1.32 | -17.11 | 1 | 134.1 | 134.1 | -83.4 | 16 | 88.9 |
| 2025-12-11T04:12:00 | -17.0971 | -34.9615 | 182.0 | 8.01 | -7.67 | 1 | 123.2 | 123.2 | -85.6 | 16 | 88.9 |
| 2025-12-11T04:12:00 | -17.0971 | -34.9615 | 214.0 | 1.29 | -13.93 | 1 | 115.0 | 115.0 | -87.0 | 17 | 94.4 |
| 2025-12-11T04:12:00 | -17.0971 | -34.9615 | 246.0 | 4.04 | -14.78 | 1 | 117.0 | 117.0 | -84.2 | 16 | 88.9 |
| 2025-12-11T04:12:00 | -17.0971 | -34.9615 | 278.0 | -6.08 | -14.14 | 1 | 108.7 | 108.7 | -86.0 | 17 | 94.4 |
| 2025-12-11T04:12:00 | -17.0971 | -34.9615 | 310.0 | 5.68 | -9.57 | 1 | 94.2 | 94.2 | -90.5 | 17 | 94.4 |
| 2025-12-11T04:12:00 | -17.0971 | -34.9615 | 342.0 | 0.67 | -6.67 | 1 | 76.5 | 76.5 | -96.5 | 16 | 88.9 |
| 2025-12-11T04:12:00 | -17.0971 | -34.9615 | 374.0 | -1.25 | -2.15 | 1 | 74.2 | 74.2 | -96.0 | 18 | 100.0 |
| 2025-12-11T04:12:00 | -17.0971 | -34.9615 | 406.0 | -1.43 | -4.17 | 1 | 64.7 | 64.7 | -98.6 | 18 | 100.0 |
| 2025-12-11T04:12:00 | -17.0971 | -34.9615 | 438.0 | -0.97 | 2.78 | 1 | 60.7 | 60.7 | -98.9 | 16 | 88.9 |
| 2025-12-11T04:12:00 | -17.0971 | -34.9615 | 470.0 | 5.23 | -8.27 | 1 | 65.2 | 65.2 | -95.7 | 18 | 100.0 |
| 2025-12-11T04:12:00 | -17.0971 | -34.9615 | 502.0 | 1.78 | 1.13 | 1 | 71.5 | 70.8 | -92.1 | 17 | 94.4 |
| 2025-12-11T04:12:00 | -17.0971 | -34.9615 | 534.0 | -2.50 | -13.29 | 1 | 83.1 | 82.4 | -85.9 | 16 | 88.9 |
| 2025-12-11T04:12:00 | -17.0971 | -34.9615 | 566.0 | 8.09 | -10.53 | 1 | 81.8 | 81.8 | -85.0 | 18 | 100.0 |
| 2025-12-11T04:12:00 | -17.0971 | -34.9615 | 598.0 | -6.79 | -15.72 | 1 | 78.8 | 78.8 | -85.0 | 17 | 94.4 |
| 2025-12-11T04:12:00 | -17.0971 | -34.9615 | 630.0 | -7.02 | -11.99 | 1 | 67.2 | 67.2 | -88.8 | 18 | 100.0 |
| 2025-12-11T04:12:00 | -17.0971 | -34.9615 | 662.0 | 4.95 | -11.68 | 1 | 57.9 | 57.9 | -91.7 | 18 | 100.0 |
| 2025-12-11T04:12:00 | -17.0971 | -34.9615 | 694.0 | -0.62 | -26.79 | 1 | 55.3 | 54.5 | -92.0 | 17 | 94.4 |
| 2025-12-11T04:12:00 | -17.0971 | -34.9615 | 726.0 | -0.51 | -12.27 | 1 | 52.1 | 51.8 | -92.1 | 17 | 94.4 |
| 2025-12-11T04:12:00 | -17.0971 | -34.9615 | 758.0 | 1.90 | -26.99 | 1 | 50.5 | 47.7 | -92.8 | 12 | 66.7 |
| 2025-12-11T04:12:00 | -17.0971 | -34.9615 | 790.0 | 8.48 | -15.33 | 1 | 49.4 | 47.8 | -91.8 | 12 | 66.7 |
| 2025-12-11T04:12:00 | -17.0971 | -34.9615 | 822.0 | 2.58 | -8.22 | 1 | 50.2 | 48.1 | -90.6 | 13 | 72.2 |
| 2025-12-11T04:12:00 | -17.0971 | -34.9615 | 854.0 | 0.68 | -20.61 | 1 | 47.5 | 45.6 | -90.7 | 15 | 83.3 |
| 2025-12-11T04:12:00 | -17.0971 | -34.9615 | 886.0 | 1.18 | -18.26 | 1 | 46.3 | 43.2 | -90.7 | 10 | 55.6 |
| 2025-12-11T04:12:00 | -17.0971 | -34.9615 | 918.0 | -7.53 | -19.32 | 4 | 46.6 | 42.7 | -90.0 | 4 | 22.2 |
| 2025-12-11T04:12:00 | -17.0971 | -34.9615 | 950.0 | 30.45 | 39.42 | 4 | 46.0 | 44.2 | -88.3 | 1 | 5.6 |
| 2025-12-11T04:12:00 | -17.0971 | -34.9615 | 982.0 | -1.53 | -17.07 | 4 | 46.1 | 32.8 | -92.4 | 1 | 5.6 |
| 2025-12-11T04:13:00 | -17.0939 | -34.9598 | 54.0 | 0.71 | -15.41 | 1 | 181.5 | 181.5 | -75.5 | 17 | 89.5 |
| 2025-12-11T04:13:00 | -17.0939 | -34.9598 | 86.0 | -1.54 | -23.41 | 1 | 162.7 | 162.7 | -77.9 | 17 | 89.5 |
| 2025-12-11T04:13:00 | -17.0939 | -34.9598 | 118.0 | 7.43 | -22.72 | 1 | 144.8 | 144.8 | -81.7 | 17 | 89.5 |
| 2025-12-11T04:13:00 | -17.0939 | -34.9598 | 150.0 | 14.72 | -21.41 | 1 | 135.4 | 135.4 | -82.8 | 16 | 84.2 |
| 2025-12-11T04:13:00 | -17.0939 | -34.9598 | 182.0 | -2.25 | -26.43 | 1 | 124.4 | 124.4 | -85.1 | 19 | 100.0 |
| 2025-12-11T04:13:00 | -17.0939 | -34.9598 | 214.0 | 6.88 | -17.61 | 1 | 112.8 | 112.8 | -87.9 | 19 | 100.0 |
| 2025-12-11T04:13:00 | -17.0939 | -34.9598 | 246.0 | 7.46 | -13.02 | 1 | 118.6 | 118.6 | -83.5 | 17 | 89.5 |
| 2025-12-11T04:13:00 | -17.0939 | -34.9598 | 278.0 | 5.80 | -20.99 | 1 | 111.0 | 111.0 | -85.0 | 19 | 100.0 |
| 2025-12-11T04:13:00 | -17.0939 | -34.9598 | 310.0 | 3.42 | -15.91 | 1 | 92.6 | 92.6 | -91.2 | 19 | 100.0 |
| 2025-12-11T04:13:00 | -17.0939 | -34.9598 | 342.0 | 2.20 | 1.77 | 1 | 77.3 | 77.3 | -96.1 | 19 | 100.0 |
| 2025-12-11T04:13:00 | -17.0939 | -34.9598 | 374.0 | 0.95 | -13.06 | 1 | 75.1 | 75.1 | -95.6 | 19 | 100.0 |
| 2025-12-11T04:13:00 | -17.0939 | -34.9598 | 406.0 | 2.38 | -18.06 | 1 | 63.0 | 62.6 | -99.5 | 17 | 89.5 |
| 2025-12-11T04:13:00 | -17.0939 | -34.9598 | 438.0 | 3.49 | -1.35 | 1 | 63.1 | 63.1 | -97.9 | 18 | 94.7 |
| 2025-12-11T04:13:00 | -17.0939 | -34.9598 | 470.0 | -3.47 | -1.84 | 1 | 64.2 | 63.6 | -96.4 | 17 | 89.5 |
| 2025-12-11T04:13:00 | -17.0939 | -34.9598 | 502.0 | 1.07 | -5.07 | 1 | 70.2 | 69.7 | -92.5 | 17 | 89.5 |
| 2025-12-11T04:13:00 | -17.0939 | -34.9598 | 534.0 | -1.57 | -7.64 | 1 | 78.8 | 78.3 | -87.6 | 18 | 94.7 |
| 2025-12-11T04:13:00 | -17.0939 | -34.9598 | 566.0 | 3.80 | -18.08 | 1 | 81.2 | 80.8 | -85.4 | 16 | 84.2 |
| 2025-12-11T04:13:00 | -17.0939 | -34.9598 | 598.0 | 1.03 | -10.57 | 1 | 77.3 | 77.3 | -85.7 | 18 | 94.7 |
| 2025-12-11T04:13:00 | -17.0939 | -34.9598 | 630.0 | 0.15 | -19.65 | 1 | 64.7 | 64.3 | -90.1 | 18 | 94.7 |
| 2025-12-11T04:13:00 | -17.0939 | -34.9598 | 662.0 | 4.50 | -19.01 | 1 | 59.2 | 59.0 | -91.2 | 18 | 94.7 |
| 2025-12-11T04:13:00 | -17.0939 | -34.9598 | 694.0 | 0.79 | -14.37 | 1 | 57.3 | 56.6 | -91.1 | 18 | 94.7 |
| 2025-12-11T04:13:00 | -17.0939 | -34.9598 | 726.0 | -0.74 | -14.98 | 1 | 54.0 | 53.5 | -91.4 | 18 | 94.7 |
| 2025-12-11T04:13:00 | -17.0939 | -34.9598 | 758.0 | -6.13 | -17.76 | 1 | 50.1 | 49.3 | -92.2 | 17 | 89.5 |
| 2025-12-11T04:13:00 | -17.0939 | -34.9598 | 790.0 | 2.01 | -21.23 | 1 | 48.8 | 46.0 | -92.5 | 14 | 73.7 |
| 2025-12-11T04:13:00 | -17.0939 | -34.9598 | 822.0 | 12.14 | -16.00 | 1 | 48.2 | 45.9 | -91.6 | 16 | 84.2 |
| 2025-12-11T04:13:00 | -17.0939 | -34.9598 | 854.0 | 0.74 | -19.60 | 1 | 49.5 | 48.0 | -89.6 | 14 | 73.7 |
| 2025-12-11T04:13:00 | -17.0939 | -34.9598 | 886.0 | 5.33 | -27.68 | 1 | 49.8 | 44.1 | -90.3 | 6 | 31.6 |
| 2025-12-11T04:13:00 | -17.0939 | -34.9598 | 918.0 | 11.85 | -20.59 | 4 | 48.6 | 40.2 | -91.1 | 2 | 10.5 |
| 2025-12-11T04:13:00 | -17.0939 | -34.9598 | 950.0 | 30.08 | -29.93 | 4 | 48.9 | 44.2 | -88.3 | 2 | 10.5 |
| 2025-12-11T04:14:00 | -17.0906 | -34.9581 | 54.0 | 9.69 | -20.01 | 1 | 180.4 | 180.4 | -76.0 | 17 | 94.4 |
| 2025-12-11T04:14:00 | -17.0906 | -34.9581 | 86.0 | 4.98 | -8.22 | 1 | 163.4 | 163.4 | -77.5 | 16 | 88.9 |
| 2025-12-11T04:14:00 | -17.0906 | -34.9581 | 118.0 | 7.06 | -20.26 | 1 | 146.6 | 146.6 | -81.0 | 17 | 94.4 |
| 2025-12-11T04:14:00 | -17.0906 | -34.9581 | 150.0 | 0.96 | -19.58 | 1 | 134.1 | 134.1 | -83.4 | 18 | 100.0 |
| 2025-12-11T04:14:00 | -17.0906 | -34.9581 | 182.0 | 7.80 | -23.18 | 1 | 124.3 | 124.3 | -85.1 | 18 | 100.0 |
| 2025-12-11T04:14:00 | -17.0906 | -34.9581 | 214.0 | -0.58 | -17.69 | 1 | 113.2 | 113.2 | -87.7 | 17 | 94.4 |
| 2025-12-11T04:14:00 | -17.0906 | -34.9581 | 246.0 | -3.30 | -15.03 | 1 | 113.9 | 113.9 | -85.5 | 17 | 94.4 |
| 2025-12-11T04:14:00 | -17.0906 | -34.9581 | 278.0 | -2.91 | -17.52 | 1 | 107.8 | 107.8 | -86.4 | 17 | 94.4 |
| 2025-12-11T04:14:00 | -17.0906 | -34.9581 | 310.0 | -3.01 | -12.61 | 1 | 86.6 | 86.6 | -93.7 | 18 | 100.0 |
| 2025-12-11T04:14:00 | -17.0906 | -34.9581 | 342.0 | -6.87 | -13.52 | 1 | 77.4 | 77.0 | -96.2 | 16 | 88.9 |
| 2025-12-11T04:14:00 | -17.0906 | -34.9581 | 374.0 | -6.09 | -8.12 | 1 | 74.3 | 74.1 | -96.0 | 17 | 94.4 |
| 2025-12-11T04:14:00 | -17.0906 | -34.9581 | 406.0 | -4.15 | -0.26 | 1 | 62.4 | 62.4 | -99.6 | 18 | 100.0 |
| 2025-12-11T04:14:00 | -17.0906 | -34.9581 | 438.0 | -5.82 | -4.74 | 1 | 62.7 | 62.7 | -98.1 | 17 | 94.4 |
| 2025-12-11T04:14:00 | -17.0906 | -34.9581 | 470.0 | 1.00 | -1.22 | 1 | 61.0 | 61.0 | -97.5 | 17 | 94.4 |
| 2025-12-11T04:14:00 | -17.0906 | -34.9581 | 502.0 | 3.23 | -2.36 | 1 | 67.2 | 67.2 | -93.6 | 17 | 94.4 |
| 2025-12-11T04:14:00 | -17.0906 | -34.9581 | 534.0 | 4.52 | -8.44 | 1 | 78.8 | 78.8 | -87.4 | 16 | 88.9 |
| 2025-12-11T04:14:00 | -17.0906 | -34.9581 | 566.0 | 10.44 | -14.92 | 1 | 79.5 | 79.5 | -85.9 | 17 | 94.4 |
| 2025-12-11T04:14:00 | -17.0906 | -34.9581 | 598.0 | 2.95 | -13.03 | 1 | 74.6 | 73.7 | -87.2 | 15 | 83.3 |
| 2025-12-11T04:14:00 | -17.0906 | -34.9581 | 630.0 | 6.73 | -18.74 | 1 | 66.7 | 65.4 | -89.6 | 17 | 94.4 |
| 2025-12-11T04:14:00 | -17.0906 | -34.9581 | 662.0 | 4.02 | -19.49 | 1 | 59.0 | 58.1 | -91.6 | 15 | 83.3 |
| 2025-12-11T04:14:00 | -17.0906 | -34.9581 | 694.0 | -6.30 | -22.30 | 1 | 58.4 | 55.3 | -91.7 | 14 | 77.8 |
| 2025-12-11T04:14:00 | -17.0906 | -34.9581 | 726.0 | -17.36 | -14.32 | 1 | 53.1 | 50.3 | -92.8 | 13 | 72.2 |
| 2025-12-11T04:14:00 | -17.0906 | -34.9581 | 758.0 | -4.23 | -16.97 | 1 | 50.0 | 48.1 | -92.6 | 15 | 83.3 |
| 2025-12-11T04:14:00 | -17.0906 | -34.9581 | 790.0 | -6.54 | -15.87 | 1 | 50.9 | 49.2 | -91.1 | 13 | 72.2 |
| 2025-12-11T04:14:00 | -17.0906 | -34.9581 | 822.0 | 4.03 | -18.52 | 1 | 51.0 | 50.2 | -89.7 | 15 | 83.3 |
| 2025-12-11T04:14:00 | -17.0906 | -34.9581 | 854.0 | 3.02 | -17.52 | 1 | 54.2 | 49.0 | -89.2 | 12 | 66.7 |
| 2025-12-11T04:14:00 | -17.0906 | -34.9581 | 886.0 | -4.19 | -22.46 | 1 | 49.4 | 48.4 | -88.5 | 10 | 55.6 |
| 2025-12-11T04:14:00 | -17.0906 | -34.9581 | 918.0 | 23.24 | -41.69 | 4 | 45.2 | 31.6 | -94.8 | 2 | 11.1 |
| 2025-12-11T04:14:00 | -17.0906 | -34.9581 | 950.0 | -12.50 | -20.42 | 4 | 44.8 | 38.4 | -90.9 | 3 | 16.7 |
| 2025-12-11T04:15:00 | -17.0875 | -34.9564 | 54.0 | 7.32 | -20.75 | 1 | 178.9 | 178.9 | -76.6 | 16 | 88.9 |
| 2025-12-11T04:15:00 | -17.0875 | -34.9564 | 86.0 | 7.09 | -13.71 | 1 | 163.8 | 163.8 | -77.4 | 15 | 83.3 |
| 2025-12-11T04:15:00 | -17.0875 | -34.9564 | 118.0 | 6.68 | -18.35 | 1 | 142.3 | 142.3 | -82.8 | 17 | 94.4 |
| 2025-12-11T04:15:00 | -17.0875 | -34.9564 | 150.0 | 5.24 | -11.00 | 1 | 136.0 | 136.0 | -82.6 | 17 | 94.4 |
| 2025-12-11T04:15:00 | -17.0875 | -34.9564 | 182.0 | 4.82 | -28.96 | 1 | 124.5 | 124.5 | -85.0 | 18 | 100.0 |
| 2025-12-11T04:15:00 | -17.0875 | -34.9564 | 214.0 | 8.29 | -21.55 | 1 | 110.5 | 110.5 | -88.9 | 17 | 94.4 |
| 2025-12-11T04:15:00 | -17.0875 | -34.9564 | 246.0 | 8.58 | -11.33 | 1 | 115.2 | 115.2 | -85.0 | 17 | 94.4 |
| 2025-12-11T04:15:00 | -17.0875 | -34.9564 | 278.0 | 8.12 | -13.69 | 1 | 105.7 | 105.3 | -87.4 | 16 | 88.9 |
| 2025-12-11T04:15:00 | -17.0875 | -34.9564 | 310.0 | 4.38 | -9.34 | 1 | 85.1 | 84.7 | -94.5 | 15 | 83.3 |
| 2025-12-11T04:15:00 | -17.0875 | -34.9564 | 342.0 | -6.07 | -12.24 | 1 | 76.9 | 76.9 | -96.3 | 18 | 100.0 |
| 2025-12-11T04:15:00 | -17.0875 | -34.9564 | 374.0 | 4.21 | -3.88 | 1 | 71.7 | 71.7 | -97.0 | 16 | 88.9 |
| 2025-12-11T04:15:00 | -17.0875 | -34.9564 | 406.0 | -2.41 | -0.31 | 1 | 63.0 | 63.0 | -99.3 | 17 | 94.4 |
| 2025-12-11T04:15:00 | -17.0875 | -34.9564 | 438.0 | 1.54 | 1.46 | 1 | 60.7 | 60.7 | -98.9 | 18 | 100.0 |
| 2025-12-11T04:15:00 | -17.0875 | -34.9564 | 470.0 | -2.47 | -2.98 | 1 | 63.1 | 63.1 | -96.6 | 18 | 100.0 |
| 2025-12-11T04:15:00 | -17.0875 | -34.9564 | 502.0 | 3.01 | -5.29 | 1 | 66.5 | 65.4 | -94.4 | 14 | 77.8 |
| 2025-12-11T04:15:00 | -17.0875 | -34.9564 | 534.0 | 4.16 | -1.31 | 1 | 80.9 | 80.1 | -86.9 | 16 | 88.9 |
| 2025-12-11T04:15:00 | -17.0875 | -34.9564 | 566.0 | 3.83 | -9.06 | 1 | 81.5 | 81.5 | -85.1 | 18 | 100.0 |
| 2025-12-11T04:15:00 | -17.0875 | -34.9564 | 598.0 | -2.74 | -12.45 | 1 | 74.7 | 74.7 | -86.8 | 18 | 100.0 |
| 2025-12-11T04:15:00 | -17.0875 | -34.9564 | 630.0 | 7.28 | -26.30 | 1 | 64.2 | 63.7 | -90.3 | 16 | 88.9 |
| 2025-12-11T04:15:00 | -17.0875 | -34.9564 | 662.0 | 5.10 | -15.68 | 1 | 60.9 | 59.9 | -90.8 | 16 | 88.9 |
| 2025-12-11T04:15:00 | -17.0875 | -34.9564 | 694.0 | 7.01 | -22.35 | 1 | 58.3 | 57.6 | -90.7 | 17 | 94.4 |
| 2025-12-11T04:15:00 | -17.0875 | -34.9564 | 726.0 | 4.33 | -18.16 | 1 | 53.3 | 53.1 | -91.6 | 13 | 72.2 |
| 2025-12-11T04:15:00 | -17.0875 | -34.9564 | 758.0 | 1.71 | -16.26 | 1 | 50.1 | 46.8 | -93.2 | 12 | 66.7 |
| 2025-12-11T04:15:00 | -17.0875 | -34.9564 | 790.0 | 4.74 | -17.80 | 1 | 49.4 | 46.4 | -92.4 | 14 | 77.8 |
| 2025-12-11T04:15:00 | -17.0875 | -34.9564 | 822.0 | 3.45 | -20.52 | 1 | 48.0 | 44.6 | -92.1 | 13 | 72.2 |
| 2025-12-11T04:15:00 | -17.0875 | -34.9564 | 854.0 | 0.12 | -16.47 | 1 | 45.5 | 44.2 | -91.3 | 14 | 77.8 |
| 2025-12-11T04:15:00 | -17.0875 | -34.9564 | 886.0 | 1.87 | -31.58 | 1 | 46.8 | 44.0 | -90.4 | 13 | 72.2 |
| 2025-12-11T04:15:00 | -17.0875 | -34.9564 | 918.0 | 9.28 | -24.81 | 1 | 42.5 | 38.2 | -91.9 | 6 | 33.3 |
| 2025-12-11T04:15:00 | -17.0875 | -34.9564 | 950.0 | -13.75 | -15.39 | 4 | 43.7 | 37.2 | -91.4 | 3 | 16.7 |
| 2025-12-11T04:16:00 | -17.0843 | -34.9547 | 54.0 | 2.47 | -19.26 | 1 | 179.4 | 179.4 | -76.4 | 16 | 88.9 |
| 2025-12-11T04:16:00 | -17.0843 | -34.9547 | 86.0 | -13.09 | -28.37 | 1 | 161.7 | 161.7 | -78.3 | 16 | 88.9 |
| 2025-12-11T04:16:00 | -17.0843 | -34.9547 | 118.0 | 11.35 | -29.31 | 1 | 142.8 | 142.8 | -82.6 | 17 | 94.4 |
| 2025-12-11T04:16:00 | -17.0843 | -34.9547 | 150.0 | 5.68 | -32.56 | 1 | 133.5 | 133.5 | -83.7 | 17 | 94.4 |
| 2025-12-11T04:16:00 | -17.0843 | -34.9547 | 182.0 | -0.07 | -25.02 | 1 | 124.9 | 124.9 | -84.9 | 17 | 94.4 |
| 2025-12-11T04:16:00 | -17.0843 | -34.9547 | 214.0 | 13.62 | -17.75 | 1 | 115.2 | 115.2 | -86.9 | 18 | 100.0 |
| 2025-12-11T04:16:00 | -17.0843 | -34.9547 | 246.0 | 10.50 | -24.88 | 1 | 112.4 | 112.4 | -86.2 | 18 | 100.0 |
| 2025-12-11T04:16:00 | -17.0843 | -34.9547 | 278.0 | -2.92 | -18.38 | 1 | 103.8 | 103.8 | -88.1 | 18 | 100.0 |
| 2025-12-11T04:16:00 | -17.0843 | -34.9547 | 310.0 | -0.70 | -18.80 | 1 | 84.5 | 84.5 | -94.6 | 18 | 100.0 |
| 2025-12-11T04:16:00 | -17.0843 | -34.9547 | 342.0 | -6.04 | -11.66 | 1 | 78.8 | 78.8 | -95.5 | 17 | 94.4 |
| 2025-12-11T04:16:00 | -17.0843 | -34.9547 | 374.0 | -3.54 | -9.45 | 1 | 73.3 | 73.3 | -96.4 | 18 | 100.0 |
| 2025-12-11T04:16:00 | -17.0843 | -34.9547 | 406.0 | 5.81 | -6.68 | 1 | 61.8 | 61.8 | -99.8 | 17 | 94.4 |
| 2025-12-11T04:16:00 | -17.0843 | -34.9547 | 438.0 | 4.22 | -7.17 | 1 | 62.0 | 62.0 | -98.4 | 17 | 94.4 |
| 2025-12-11T04:16:00 | -17.0843 | -34.9547 | 470.0 | 11.65 | -7.35 | 1 | 64.5 | 64.5 | -96.0 | 18 | 100.0 |
| 2025-12-11T04:16:00 | -17.0843 | -34.9547 | 502.0 | 6.04 | -7.35 | 1 | 67.4 | 66.6 | -93.9 | 16 | 88.9 |
| 2025-12-11T04:16:00 | -17.0843 | -34.9547 | 534.0 | 9.21 | -9.45 | 1 | 76.8 | 76.2 | -88.5 | 16 | 88.9 |
| 2025-12-11T04:16:00 | -17.0843 | -34.9547 | 566.0 | 3.66 | -16.74 | 1 | 81.1 | 81.0 | -85.3 | 16 | 88.9 |
| 2025-12-11T04:16:00 | -17.0843 | -34.9547 | 598.0 | 5.94 | -25.49 | 1 | 78.2 | 77.0 | -85.8 | 17 | 94.4 |
| 2025-12-11T04:16:00 | -17.0843 | -34.9547 | 630.0 | 10.71 | -11.63 | 1 | 65.8 | 65.1 | -89.8 | 17 | 94.4 |
| 2025-12-11T04:16:00 | -17.0843 | -34.9547 | 662.0 | 1.43 | -17.45 | 1 | 59.1 | 59.1 | -91.2 | 17 | 94.4 |
| 2025-12-11T04:16:00 | -17.0843 | -34.9547 | 694.0 | 9.22 | -12.05 | 1 | 55.5 | 55.5 | -91.6 | 18 | 100.0 |
| 2025-12-11T04:16:00 | -17.0843 | -34.9547 | 726.0 | -0.73 | -18.96 | 1 | 52.0 | 51.1 | -92.4 | 17 | 94.4 |
| 2025-12-11T04:16:00 | -17.0843 | -34.9547 | 758.0 | -0.46 | -33.42 | 1 | 46.9 | 46.5 | -93.4 | 17 | 94.4 |
| 2025-12-11T04:16:00 | -17.0843 | -34.9547 | 790.0 | 5.43 | -7.52 | 1 | 46.3 | 45.3 | -92.8 | 16 | 88.9 |
| 2025-12-11T04:16:00 | -17.0843 | -34.9547 | 822.0 | 7.17 | -20.06 | 1 | 44.1 | 42.8 | -92.9 | 16 | 88.9 |
| 2025-12-11T04:16:00 | -17.0843 | -34.9547 | 854.0 | 7.74 | -9.91 | 1 | 45.0 | 43.7 | -91.5 | 15 | 83.3 |
| 2025-12-11T04:16:00 | -17.0843 | -34.9547 | 886.0 | 5.86 | -13.64 | 1 | 45.0 | 42.0 | -91.2 | 14 | 77.8 |
| 2025-12-11T04:16:00 | -17.0843 | -34.9547 | 918.0 | -1.84 | -20.39 | 1 | 46.9 | 43.0 | -89.8 | 7 | 38.9 |
| 2025-12-11T04:17:00 | -17.0811 | -34.9530 | 54.0 | 5.28 | -2.55 | 1 | 178.9 | 178.9 | -76.6 | 16 | 88.9 |
| 2025-12-11T04:17:00 | -17.0811 | -34.9530 | 86.0 | -4.75 | -21.15 | 1 | 161.6 | 161.6 | -78.3 | 16 | 88.9 |
| 2025-12-11T04:17:00 | -17.0811 | -34.9530 | 118.0 | 6.45 | -26.03 | 1 | 145.2 | 145.2 | -81.5 | 16 | 88.9 |
| 2025-12-11T04:17:00 | -17.0811 | -34.9530 | 150.0 | 3.94 | -15.03 | 1 | 136.9 | 136.9 | -82.2 | 17 | 94.4 |
| 2025-12-11T04:17:00 | -17.0811 | -34.9530 | 182.0 | 7.69 | -22.05 | 1 | 125.0 | 125.0 | -84.8 | 16 | 88.9 |
| 2025-12-11T04:17:00 | -17.0811 | -34.9530 | 214.0 | 11.84 | -14.03 | 1 | 116.9 | 116.9 | -86.1 | 17 | 94.4 |
| 2025-12-11T04:17:00 | -17.0811 | -34.9530 | 246.0 | 9.02 | -17.18 | 1 | 116.5 | 116.5 | -84.4 | 17 | 94.4 |
| 2025-12-11T04:17:00 | -17.0811 | -34.9530 | 278.0 | 12.54 | -24.40 | 1 | 108.1 | 108.1 | -86.2 | 17 | 94.4 |
| 2025-12-11T04:17:00 | -17.0811 | -34.9530 | 310.0 | -4.93 | -14.39 | 1 | 84.7 | 84.3 | -94.7 | 15 | 83.3 |
| 2025-12-11T04:17:00 | -17.0811 | -34.9530 | 342.0 | -3.36 | -14.10 | 1 | 76.2 | 75.3 | -97.0 | 17 | 94.4 |
| 2025-12-11T04:17:00 | -17.0811 | -34.9530 | 374.0 | -1.78 | 0.37 | 1 | 72.9 | 73.1 | -96.4 | 17 | 94.4 |
| 2025-12-11T04:17:00 | -17.0811 | -34.9530 | 406.0 | -2.84 | -0.87 | 1 | 62.0 | 61.4 | -100.0 | 16 | 88.9 |
| 2025-12-11T04:17:00 | -17.0811 | -34.9530 | 438.0 | 1.45 | -6.23 | 1 | 58.8 | 58.8 | -99.8 | 17 | 94.4 |
| 2025-12-11T04:17:00 | -17.0811 | -34.9530 | 470.0 | -0.03 | -3.59 | 1 | 65.3 | 65.0 | -95.8 | 16 | 88.9 |
| 2025-12-11T04:17:00 | -17.0811 | -34.9530 | 502.0 | 1.87 | -1.18 | 1 | 67.8 | 67.0 | -93.7 | 16 | 88.9 |
| 2025-12-11T04:17:00 | -17.0811 | -34.9530 | 534.0 | -1.31 | -9.88 | 1 | 78.4 | 77.1 | -88.1 | 14 | 77.8 |
| 2025-12-11T04:17:00 | -17.0811 | -34.9530 | 566.0 | 13.42 | -12.54 | 1 | 85.0 | 84.5 | -83.8 | 15 | 83.3 |
| 2025-12-11T04:17:00 | -17.0811 | -34.9530 | 598.0 | -0.87 | -17.69 | 1 | 77.9 | 77.0 | -85.8 | 15 | 83.3 |
| 2025-12-11T04:17:00 | -17.0811 | -34.9530 | 630.0 | -0.12 | -13.51 | 1 | 66.6 | 66.2 | -89.3 | 17 | 94.4 |
| 2025-12-11T04:17:00 | -17.0811 | -34.9530 | 662.0 | 0.68 | -8.97 | 1 | 60.4 | 58.6 | -91.4 | 16 | 88.9 |
| 2025-12-11T04:17:00 | -17.0811 | -34.9530 | 694.0 | -1.91 | -21.15 | 1 | 56.9 | 55.7 | -91.5 | 15 | 83.3 |
| 2025-12-11T04:17:00 | -17.0811 | -34.9530 | 726.0 | 0.73 | -16.00 | 1 | 54.3 | 51.8 | -92.1 | 15 | 83.3 |
| 2025-12-11T04:17:00 | -17.0811 | -34.9530 | 758.0 | 7.88 | -20.88 | 1 | 49.4 | 45.9 | -93.6 | 12 | 66.7 |
| 2025-12-11T04:17:00 | -17.0811 | -34.9530 | 790.0 | -2.31 | -22.31 | 1 | 46.9 | 46.2 | -92.4 | 13 | 72.2 |
| 2025-12-11T04:17:00 | -17.0811 | -34.9530 | 822.0 | -4.68 | -16.93 | 1 | 49.6 | 49.6 | -89.9 | 17 | 94.4 |
| 2025-12-11T04:17:00 | -17.0811 | -34.9530 | 854.0 | 5.58 | -21.95 | 1 | 47.7 | 47.7 | -89.8 | 16 | 88.9 |
| 2025-12-11T04:17:00 | -17.0811 | -34.9530 | 886.0 | -18.84 | -18.18 | 1 | 44.4 | 44.2 | -90.3 | 10 | 55.6 |
| 2025-12-11T04:17:00 | -17.0811 | -34.9530 | 918.0 | 18.97 | -2.38 | 4 | 45.1 | 43.9 | -89.4 | 4 | 22.2 |
| 2025-12-11T04:17:00 | -17.0811 | -34.9530 | 950.0 | 12.46 | -41.21 | 4 | 45.4 | 45.2 | -87.9 | 2 | 11.1 |
| 2025-12-11T04:18:00 | -17.0780 | -34.9513 | 54.0 | 16.53 | -16.93 | 1 | 179.1 | 179.1 | -76.5 | 17 | 94.4 |
| 2025-12-11T04:18:00 | -17.0780 | -34.9513 | 86.0 | -1.45 | -21.26 | 1 | 162.6 | 162.6 | -77.9 | 15 | 83.3 |
| 2025-12-11T04:18:00 | -17.0780 | -34.9513 | 118.0 | -5.54 | -18.05 | 1 | 148.8 | 148.8 | -80.0 | 16 | 88.9 |
| 2025-12-11T04:18:00 | -17.0780 | -34.9513 | 150.0 | 17.93 | -19.07 | 1 | 140.6 | 140.6 | -80.6 | 17 | 94.4 |
| 2025-12-11T04:18:00 | -17.0780 | -34.9513 | 182.0 | -5.45 | -28.70 | 1 | 126.6 | 126.6 | -84.1 | 17 | 94.4 |
| 2025-12-11T04:18:00 | -17.0780 | -34.9513 | 214.0 | 2.27 | -14.86 | 1 | 117.3 | 117.3 | -86.0 | 15 | 83.3 |
| 2025-12-11T04:18:00 | -17.0780 | -34.9513 | 246.0 | 6.20 | -16.87 | 1 | 118.9 | 118.9 | -83.4 | 18 | 100.0 |
| 2025-12-11T04:18:00 | -17.0780 | -34.9513 | 278.0 | 1.75 | -16.35 | 1 | 110.5 | 110.5 | -85.2 | 18 | 100.0 |
| 2025-12-11T04:18:00 | -17.0780 | -34.9513 | 310.0 | -5.36 | -21.47 | 1 | 83.5 | 83.3 | -95.1 | 17 | 94.4 |
| 2025-12-11T04:18:00 | -17.0780 | -34.9513 | 342.0 | -9.38 | -10.01 | 1 | 76.6 | 76.5 | -96.5 | 16 | 88.9 |
| 2025-12-11T04:18:00 | -17.0780 | -34.9513 | 374.0 | -8.76 | -5.22 | 1 | 72.5 | 70.8 | -97.4 | 15 | 83.3 |
| 2025-12-11T04:18:00 | -17.0780 | -34.9513 | 406.0 | 3.19 | 2.42 | 1 | 64.2 | 62.1 | -99.7 | 13 | 72.2 |
| 2025-12-11T04:18:00 | -17.0780 | -34.9513 | 438.0 | -9.07 | -2.36 | 1 | 62.1 | 62.1 | -98.3 | 16 | 88.9 |
| 2025-12-11T04:18:00 | -17.0780 | -34.9513 | 470.0 | 5.41 | -5.98 | 1 | 65.6 | 65.6 | -95.5 | 18 | 100.0 |
| 2025-12-11T04:18:00 | -17.0780 | -34.9513 | 502.0 | 0.95 | -16.24 | 1 | 68.8 | 68.8 | -92.9 | 17 | 94.4 |
| 2025-12-11T04:18:00 | -17.0780 | -34.9513 | 534.0 | 2.81 | -6.93 | 1 | 78.3 | 78.3 | -87.6 | 18 | 100.0 |
| 2025-12-11T04:18:00 | -17.0780 | -34.9513 | 566.0 | 4.97 | -12.81 | 1 | 85.7 | 85.7 | -83.3 | 18 | 100.0 |
| 2025-12-11T04:18:00 | -17.0780 | -34.9513 | 598.0 | 2.82 | -16.80 | 1 | 78.3 | 77.8 | -85.5 | 17 | 94.4 |
| 2025-12-11T04:18:00 | -17.0780 | -34.9513 | 630.0 | -1.42 | -16.49 | 1 | 64.5 | 64.0 | -90.2 | 16 | 88.9 |
| 2025-12-11T04:18:00 | -17.0780 | -34.9513 | 662.0 | -11.03 | -7.56 | 1 | 57.5 | 57.0 | -92.1 | 17 | 94.4 |
| 2025-12-11T04:18:00 | -17.0780 | -34.9513 | 694.0 | -2.94 | -15.69 | 1 | 55.6 | 55.6 | -91.6 | 18 | 100.0 |
| 2025-12-11T04:18:00 | -17.0780 | -34.9513 | 726.0 | -2.92 | -17.53 | 1 | 53.7 | 52.6 | -91.8 | 17 | 94.4 |
| 2025-12-11T04:18:00 | -17.0780 | -34.9513 | 758.0 | -5.80 | -19.25 | 1 | 50.8 | 49.5 | -92.1 | 15 | 83.3 |
| 2025-12-11T04:18:00 | -17.0780 | -34.9513 | 790.0 | 1.89 | -17.88 | 1 | 48.4 | 48.1 | -91.6 | 17 | 94.4 |
| 2025-12-11T04:18:00 | -17.0780 | -34.9513 | 822.0 | -0.44 | -15.14 | 1 | 47.8 | 48.6 | -90.4 | 15 | 83.3 |
| 2025-12-11T04:18:00 | -17.0780 | -34.9513 | 854.0 | -1.18 | -13.94 | 1 | 50.0 | 48.5 | -89.4 | 16 | 88.9 |
| 2025-12-11T04:18:00 | -17.0780 | -34.9513 | 886.0 | -2.18 | -20.12 | 1 | 47.4 | 46.8 | -89.2 | 10 | 55.6 |
| 2025-12-11T04:18:00 | -17.0780 | -34.9513 | 918.0 | 0.81 | -13.29 | 4 | 48.3 | 44.6 | -89.1 | 4 | 22.2 |
| 2025-12-11T04:19:00 | -17.0749 | -34.9496 | 54.0 | 11.82 | -22.01 | 1 | 174.6 | 174.6 | -78.4 | 17 | 94.4 |
| 2025-12-11T04:19:00 | -17.0749 | -34.9496 | 86.0 | -3.72 | -11.07 | 1 | 160.1 | 160.1 | -79.0 | 15 | 83.3 |
| 2025-12-11T04:19:00 | -17.0749 | -34.9496 | 118.0 | 8.12 | -27.34 | 1 | 153.5 | 153.5 | -78.0 | 17 | 94.4 |
| 2025-12-11T04:19:00 | -17.0749 | -34.9496 | 150.0 | 14.55 | -24.82 | 1 | 143.6 | 143.6 | -79.3 | 16 | 88.9 |
| 2025-12-11T04:19:00 | -17.0749 | -34.9496 | 182.0 | -0.76 | -25.42 | 1 | 128.9 | 128.9 | -83.2 | 18 | 100.0 |
| 2025-12-11T04:19:00 | -17.0749 | -34.9496 | 214.0 | 5.29 | -19.62 | 1 | 117.7 | 117.7 | -85.8 | 18 | 100.0 |
| 2025-12-11T04:19:00 | -17.0749 | -34.9496 | 246.0 | 2.45 | -12.38 | 1 | 120.2 | 120.2 | -82.8 | 17 | 94.4 |
| 2025-12-11T04:19:00 | -17.0749 | -34.9496 | 278.0 | -2.87 | -20.25 | 1 | 114.7 | 114.7 | -83.4 | 17 | 94.4 |
| 2025-12-11T04:19:00 | -17.0749 | -34.9496 | 310.0 | -6.63 | -12.67 | 1 | 84.3 | 84.3 | -94.7 | 15 | 83.3 |
| 2025-12-11T04:19:00 | -17.0749 | -34.9496 | 342.0 | -2.34 | -6.02 | 1 | 76.5 | 76.5 | -96.5 | 17 | 94.4 |
| 2025-12-11T04:19:00 | -17.0749 | -34.9496 | 374.0 | 3.80 | -10.11 | 1 | 70.2 | 70.2 | -97.6 | 17 | 94.4 |
| 2025-12-11T04:19:00 | -17.0749 | -34.9496 | 406.0 | -2.51 | -5.84 | 1 | 62.9 | 62.9 | -99.3 | 17 | 94.4 |
| 2025-12-11T04:19:00 | -17.0749 | -34.9496 | 438.0 | 7.83 | 0.47 | 1 | 62.3 | 61.8 | -98.5 | 14 | 77.8 |
| 2025-12-11T04:19:00 | -17.0749 | -34.9496 | 470.0 | 5.22 | -5.80 | 1 | 64.8 | 64.2 | -96.1 | 17 | 94.4 |
| 2025-12-11T04:19:00 | -17.0749 | -34.9496 | 502.0 | -0.66 | -1.18 | 1 | 65.7 | 65.7 | -94.2 | 18 | 100.0 |
| 2025-12-11T04:19:00 | -17.0749 | -34.9496 | 534.0 | 8.69 | -2.83 | 1 | 78.8 | 77.6 | -87.9 | 16 | 88.9 |
| 2025-12-11T04:19:00 | -17.0749 | -34.9496 | 566.0 | 5.22 | -12.13 | 1 | 86.2 | 86.2 | -83.1 | 18 | 100.0 |
| 2025-12-11T04:19:00 | -17.0749 | -34.9496 | 598.0 | -2.18 | -20.68 | 1 | 81.6 | 81.6 | -83.9 | 18 | 100.0 |
| 2025-12-11T04:19:00 | -17.0749 | -34.9496 | 630.0 | 3.59 | -15.46 | 1 | 67.6 | 67.6 | -88.7 | 18 | 100.0 |
| 2025-12-11T04:19:00 | -17.0749 | -34.9496 | 662.0 | 4.60 | -16.71 | 1 | 59.3 | 59.2 | -91.1 | 16 | 88.9 |
| 2025-12-11T04:19:00 | -17.0749 | -34.9496 | 694.0 | 0.07 | -24.15 | 1 | 56.7 | 56.5 | -91.2 | 16 | 88.9 |
| 2025-12-11T04:19:00 | -17.0749 | -34.9496 | 726.0 | 4.40 | -15.62 | 1 | 53.7 | 52.5 | -91.8 | 15 | 83.3 |
| 2025-12-11T04:19:00 | -17.0749 | -34.9496 | 758.0 | 5.29 | -12.44 | 1 | 47.1 | 43.6 | -94.6 | 10 | 55.6 |
| 2025-12-11T04:19:00 | -17.0749 | -34.9496 | 790.0 | 6.98 | -15.68 | 1 | 49.0 | 45.9 | -92.6 | 12 | 66.7 |
| 2025-12-11T04:19:00 | -17.0749 | -34.9496 | 822.0 | 3.08 | -19.77 | 1 | 49.7 | 46.0 | -91.5 | 12 | 66.7 |
| 2025-12-11T04:19:00 | -17.0749 | -34.9496 | 854.0 | -0.92 | -12.54 | 1 | 49.4 | 47.2 | -90.0 | 14 | 77.8 |
| 2025-12-11T04:19:00 | -17.0749 | -34.9496 | 886.0 | 1.65 | -28.31 | 1 | 44.4 | 43.2 | -90.7 | 9 | 50.0 |
| 2025-12-11T04:19:00 | -17.0749 | -34.9496 | 918.0 | -9.40 | -29.28 | 4 | 43.7 | 36.2 | -92.8 | 2 | 11.1 |
| 2025-12-11T04:19:00 | -17.0749 | -34.9496 | 950.0 | 8.55 | -29.64 | 4 | 45.0 | 41.2 | -89.6 | 1 | 5.6 |
| 2025-12-11T04:20:00 | -17.0717 | -34.9479 | 54.0 | 3.28 | -24.99 | 1 | 175.8 | 175.8 | -77.9 | 14 | 77.8 |
| 2025-12-11T04:20:00 | -17.0717 | -34.9479 | 86.0 | 9.63 | -10.04 | 1 | 165.4 | 165.4 | -76.7 | 17 | 94.4 |
| 2025-12-11T04:20:00 | -17.0717 | -34.9479 | 118.0 | 16.51 | -27.59 | 1 | 156.5 | 156.5 | -76.8 | 17 | 94.4 |
| 2025-12-11T04:20:00 | -17.0717 | -34.9479 | 150.0 | 8.05 | -23.70 | 1 | 145.1 | 145.1 | -78.7 | 18 | 100.0 |
| 2025-12-11T04:20:00 | -17.0717 | -34.9479 | 182.0 | -4.59 | -27.33 | 1 | 130.7 | 130.7 | -82.4 | 18 | 100.0 |
| 2025-12-11T04:20:00 | -17.0717 | -34.9479 | 214.0 | -5.17 | -20.07 | 1 | 120.9 | 120.9 | -84.5 | 15 | 83.3 |
| 2025-12-11T04:20:00 | -17.0717 | -34.9479 | 246.0 | 6.94 | -12.02 | 1 | 121.0 | 121.0 | -82.5 | 17 | 94.4 |
| 2025-12-11T04:20:00 | -17.0717 | -34.9479 | 278.0 | -9.33 | -18.91 | 1 | 114.3 | 114.3 | -83.6 | 16 | 88.9 |
| 2025-12-11T04:20:00 | -17.0717 | -34.9479 | 310.0 | -7.44 | -23.82 | 1 | 83.5 | 82.8 | -95.3 | 16 | 88.9 |
| 2025-12-11T04:20:00 | -17.0717 | -34.9479 | 342.0 | -1.14 | -5.47 | 1 | 75.5 | 75.0 | -97.1 | 16 | 88.9 |
| 2025-12-11T04:20:00 | -17.0717 | -34.9479 | 374.0 | 5.91 | -14.38 | 1 | 71.1 | 71.1 | -97.3 | 18 | 100.0 |
| 2025-12-11T04:20:00 | -17.0717 | -34.9479 | 406.0 | -1.82 | -5.57 | 1 | 62.8 | 61.5 | -100.0 | 15 | 83.3 |
| 2025-12-11T04:20:00 | -17.0717 | -34.9479 | 438.0 | -5.88 | -1.84 | 1 | 62.6 | 62.6 | -98.1 | 17 | 94.4 |
| 2025-12-11T04:20:00 | -17.0717 | -34.9479 | 470.0 | 6.09 | -6.45 | 1 | 65.8 | 65.8 | -95.5 | 18 | 100.0 |
| 2025-12-11T04:20:00 | -17.0717 | -34.9479 | 502.0 | 3.50 | -2.86 | 1 | 68.8 | 68.8 | -92.9 | 18 | 100.0 |
| 2025-12-11T04:20:00 | -17.0717 | -34.9479 | 534.0 | 13.21 | -2.75 | 1 | 82.3 | 82.3 | -85.9 | 17 | 94.4 |
| 2025-12-11T04:20:00 | -17.0717 | -34.9479 | 566.0 | 0.90 | -4.54 | 1 | 84.5 | 84.5 | -83.8 | 17 | 94.4 |
| 2025-12-11T04:20:00 | -17.0717 | -34.9479 | 598.0 | -6.72 | -15.08 | 1 | 77.6 | 77.6 | -85.6 | 14 | 77.8 |
| 2025-12-11T04:20:00 | -17.0717 | -34.9479 | 630.0 | -4.99 | -19.71 | 1 | 68.2 | 66.7 | -89.1 | 16 | 88.9 |
| 2025-12-11T04:20:00 | -17.0717 | -34.9479 | 662.0 | -1.28 | -9.83 | 1 | 57.9 | 56.7 | -92.2 | 16 | 88.9 |
| 2025-12-11T04:20:00 | -17.0717 | -34.9479 | 694.0 | 0.99 | -8.25 | 1 | 54.5 | 54.5 | -92.1 | 18 | 100.0 |
| 2025-12-11T04:20:00 | -17.0717 | -34.9479 | 726.0 | 7.45 | -19.30 | 1 | 52.2 | 51.8 | -92.1 | 17 | 94.4 |
| 2025-12-11T04:20:00 | -17.0717 | -34.9479 | 758.0 | -0.19 | -19.21 | 1 | 47.6 | 48.0 | -92.7 | 14 | 77.8 |
| 2025-12-11T04:20:00 | -17.0717 | -34.9479 | 790.0 | -9.28 | -4.08 | 1 | 48.7 | 47.3 | -92.0 | 13 | 72.2 |
| 2025-12-11T04:20:00 | -17.0717 | -34.9479 | 822.0 | 2.49 | -7.43 | 1 | 48.4 | 47.2 | -91.0 | 15 | 83.3 |
| 2025-12-11T04:20:00 | -17.0717 | -34.9479 | 854.0 | 2.36 | -16.31 | 1 | 49.9 | 49.0 | -89.2 | 14 | 77.8 |
| 2025-12-11T04:20:00 | -17.0717 | -34.9479 | 886.0 | 7.79 | -19.83 | 1 | 47.5 | 44.6 | -90.1 | 10 | 55.6 |
| 2025-12-11T04:20:00 | -17.0717 | -34.9479 | 918.0 | -17.67 | -24.98 | 4 | 47.1 | 41.6 | -90.4 | 3 | 16.7 |
| 2025-12-11T04:21:00 | -17.0685 | -34.9461 | 54.0 | 4.65 | -20.70 | 1 | 175.8 | 175.8 | -77.9 | 19 | 100.0 |
| 2025-12-11T04:21:00 | -17.0685 | -34.9461 | 86.0 | 3.33 | -17.74 | 1 | 166.1 | 166.1 | -76.4 | 14 | 73.7 |
| 2025-12-11T04:21:00 | -17.0685 | -34.9461 | 118.0 | 6.47 | -14.85 | 1 | 155.9 | 155.9 | -77.0 | 15 | 78.9 |
| 2025-12-11T04:21:00 | -17.0685 | -34.9461 | 150.0 | 16.97 | -9.59 | 1 | 142.1 | 142.1 | -80.0 | 17 | 89.5 |
| 2025-12-11T04:21:00 | -17.0685 | -34.9461 | 182.0 | -3.54 | -20.67 | 1 | 131.3 | 131.3 | -82.2 | 19 | 100.0 |
| 2025-12-11T04:21:00 | -17.0685 | -34.9461 | 214.0 | -4.72 | -21.51 | 1 | 124.3 | 124.3 | -83.0 | 18 | 94.7 |
| 2025-12-11T04:21:00 | -17.0685 | -34.9461 | 246.0 | -6.40 | -20.56 | 1 | 121.2 | 121.2 | -82.4 | 18 | 94.7 |
| 2025-12-11T04:21:00 | -17.0685 | -34.9461 | 278.0 | 6.52 | -14.81 | 1 | 119.1 | 119.1 | -81.5 | 17 | 89.5 |
| 2025-12-11T04:21:00 | -17.0685 | -34.9461 | 310.0 | 8.58 | -17.11 | 1 | 85.3 | 85.0 | -94.4 | 17 | 89.5 |
| 2025-12-11T04:21:00 | -17.0685 | -34.9461 | 342.0 | 3.84 | -14.41 | 1 | 74.7 | 72.8 | -98.1 | 16 | 84.2 |
| 2025-12-11T04:21:00 | -17.0685 | -34.9461 | 374.0 | 2.89 | -10.82 | 1 | 69.2 | 68.9 | -98.2 | 18 | 94.7 |
| 2025-12-11T04:21:00 | -17.0685 | -34.9461 | 406.0 | 2.02 | -7.50 | 1 | 61.2 | 61.2 | -100.1 | 18 | 94.7 |
| 2025-12-11T04:21:00 | -17.0685 | -34.9461 | 438.0 | -0.24 | -1.79 | 1 | 60.7 | 60.7 | -98.9 | 19 | 100.0 |
| 2025-12-11T04:21:00 | -17.0685 | -34.9461 | 470.0 | 5.31 | 2.34 | 1 | 64.4 | 64.4 | -96.0 | 17 | 89.5 |
| 2025-12-11T04:21:00 | -17.0685 | -34.9461 | 502.0 | 2.15 | -5.71 | 1 | 70.7 | 70.7 | -92.1 | 18 | 94.7 |
| 2025-12-11T04:21:00 | -17.0685 | -34.9461 | 534.0 | 9.53 | -7.58 | 1 | 83.2 | 83.2 | -85.6 | 19 | 100.0 |
| 2025-12-11T04:21:00 | -17.0685 | -34.9461 | 566.0 | 6.65 | -13.32 | 1 | 86.1 | 85.3 | -83.5 | 16 | 84.2 |
| 2025-12-11T04:21:00 | -17.0685 | -34.9461 | 598.0 | -4.05 | -16.13 | 1 | 78.6 | 78.1 | -85.4 | 15 | 78.9 |
| 2025-12-11T04:21:00 | -17.0685 | -34.9461 | 630.0 | -0.98 | -11.68 | 1 | 65.1 | 64.9 | -89.8 | 16 | 84.2 |
| 2025-12-11T04:21:00 | -17.0685 | -34.9461 | 662.0 | 9.14 | -5.18 | 1 | 59.4 | 59.0 | -91.2 | 18 | 94.7 |
| 2025-12-11T04:21:00 | -17.0685 | -34.9461 | 694.0 | -2.41 | -12.18 | 1 | 54.1 | 53.9 | -92.3 | 18 | 94.7 |
| 2025-12-11T04:21:00 | -17.0685 | -34.9461 | 726.0 | 2.09 | -18.76 | 1 | 51.5 | 50.6 | -92.6 | 17 | 89.5 |
| 2025-12-11T04:21:00 | -17.0685 | -34.9461 | 758.0 | -6.79 | -19.51 | 1 | 47.1 | 47.1 | -93.1 | 16 | 84.2 |
| 2025-12-11T04:21:00 | -17.0685 | -34.9461 | 790.0 | 0.45 | -8.97 | 1 | 49.8 | 48.8 | -91.3 | 16 | 84.2 |
| 2025-12-11T04:21:00 | -17.0685 | -34.9461 | 822.0 | 0.68 | -16.27 | 1 | 49.1 | 48.7 | -90.4 | 17 | 89.5 |
| 2025-12-11T04:21:00 | -17.0685 | -34.9461 | 854.0 | 2.40 | -13.91 | 1 | 50.9 | 47.8 | -89.8 | 16 | 84.2 |
| 2025-12-11T04:21:00 | -17.0685 | -34.9461 | 886.0 | -6.96 | -14.72 | 1 | 49.9 | 47.1 | -89.0 | 12 | 63.2 |
| 2025-12-11T04:21:00 | -17.0685 | -34.9461 | 950.0 | 7.65 | 5.49 | 4 | 47.6 | 43.0 | -88.9 | 2 | 10.5 |
| 2025-12-11T04:22:00 | -17.0652 | -34.9443 | 54.0 | 5.31 | -25.42 | 1 | 175.8 | 175.8 | -77.9 | 17 | 94.4 |
| 2025-12-11T04:22:00 | -17.0652 | -34.9443 | 86.0 | 2.22 | -25.98 | 1 | 165.3 | 165.3 | -76.8 | 14 | 77.8 |
| 2025-12-11T04:22:00 | -17.0652 | -34.9443 | 118.0 | 12.41 | -22.05 | 1 | 155.2 | 155.2 | -77.3 | 16 | 88.9 |
| 2025-12-11T04:22:00 | -17.0652 | -34.9443 | 150.0 | 15.78 | -25.07 | 1 | 142.0 | 142.0 | -80.0 | 16 | 88.9 |
| 2025-12-11T04:22:00 | -17.0652 | -34.9443 | 182.0 | 0.58 | -21.03 | 1 | 131.9 | 131.9 | -81.9 | 18 | 100.0 |
| 2025-12-11T04:22:00 | -17.0652 | -34.9443 | 214.0 | -3.89 | -17.89 | 1 | 122.2 | 122.2 | -83.9 | 17 | 94.4 |
| 2025-12-11T04:22:00 | -17.0652 | -34.9443 | 246.0 | 11.80 | -22.20 | 1 | 120.7 | 120.7 | -82.7 | 18 | 100.0 |
| 2025-12-11T04:22:00 | -17.0652 | -34.9443 | 278.0 | 4.13 | -12.71 | 1 | 119.8 | 118.9 | -81.6 | 16 | 88.9 |
| 2025-12-11T04:22:00 | -17.0652 | -34.9443 | 310.0 | -0.70 | -13.35 | 1 | 87.8 | 87.2 | -93.5 | 15 | 83.3 |
| 2025-12-11T04:22:00 | -17.0652 | -34.9443 | 342.0 | -5.43 | -18.19 | 1 | 72.4 | 71.6 | -98.6 | 17 | 94.4 |
| 2025-12-11T04:22:00 | -17.0652 | -34.9443 | 374.0 | -3.34 | -8.87 | 1 | 69.3 | 68.7 | -98.3 | 17 | 94.4 |
| 2025-12-11T04:22:00 | -17.0652 | -34.9443 | 406.0 | -6.13 | -16.68 | 1 | 60.9 | 60.6 | -100.3 | 17 | 94.4 |
| 2025-12-11T04:22:00 | -17.0652 | -34.9443 | 438.0 | 6.76 | -5.47 | 1 | 60.9 | 60.6 | -99.0 | 17 | 94.4 |
| 2025-12-11T04:22:00 | -17.0652 | -34.9443 | 470.0 | 11.78 | -6.37 | 1 | 65.1 | 63.5 | -96.4 | 16 | 88.9 |
| 2025-12-11T04:22:00 | -17.0652 | -34.9443 | 502.0 | 1.42 | 6.04 | 1 | 70.4 | 69.9 | -92.5 | 15 | 83.3 |
| 2025-12-11T04:22:00 | -17.0652 | -34.9443 | 534.0 | 4.30 | -2.39 | 1 | 83.1 | 83.1 | -85.6 | 18 | 100.0 |
| 2025-12-11T04:22:00 | -17.0652 | -34.9443 | 566.0 | 3.44 | -13.11 | 1 | 86.1 | 86.1 | -83.2 | 18 | 100.0 |
| 2025-12-11T04:22:00 | -17.0652 | -34.9443 | 598.0 | -5.51 | -18.47 | 1 | 78.9 | 78.9 | -85.0 | 18 | 100.0 |
| 2025-12-11T04:22:00 | -17.0652 | -34.9443 | 630.0 | -4.33 | -18.34 | 1 | 64.0 | 64.0 | -90.2 | 18 | 100.0 |
| 2025-12-11T04:22:00 | -17.0652 | -34.9443 | 662.0 | 2.05 | -14.46 | 1 | 56.4 | 55.5 | -92.7 | 15 | 83.3 |
| 2025-12-11T04:22:00 | -17.0652 | -34.9443 | 694.0 | 4.99 | -10.58 | 1 | 55.2 | 54.0 | -92.3 | 16 | 88.9 |
| 2025-12-11T04:22:00 | -17.0652 | -34.9443 | 726.0 | 10.04 | -6.85 | 1 | 52.3 | 48.8 | -93.4 | 13 | 72.2 |
| 2025-12-11T04:22:00 | -17.0652 | -34.9443 | 758.0 | -6.29 | -18.57 | 1 | 50.9 | 47.0 | -93.1 | 12 | 66.7 |
| 2025-12-11T04:22:00 | -17.0652 | -34.9443 | 790.0 | -2.69 | -8.41 | 1 | 49.1 | 47.8 | -91.8 | 14 | 77.8 |
| 2025-12-11T04:22:00 | -17.0652 | -34.9443 | 822.0 | 4.23 | -14.10 | 1 | 46.6 | 45.8 | -91.6 | 16 | 88.9 |
| 2025-12-11T04:22:00 | -17.0652 | -34.9443 | 854.0 | 7.92 | -12.84 | 1 | 47.8 | 45.3 | -90.8 | 12 | 66.7 |
| 2025-12-11T04:22:00 | -17.0652 | -34.9443 | 886.0 | 0.81 | -15.90 | 1 | 46.7 | 43.3 | -90.7 | 10 | 55.6 |
| 2025-12-11T04:22:00 | -17.0652 | -34.9443 | 918.0 | 11.04 | -7.39 | 4 | 43.0 | 42.1 | -90.2 | 4 | 22.2 |
| 2025-12-11T04:22:00 | -17.0652 | -34.9443 | 950.0 | 1.87 | -37.21 | 4 | 44.4 | 40.8 | -89.8 | 2 | 11.1 |
| 2025-12-11T04:23:00 | -17.0621 | -34.9427 | 54.0 | 1.56 | -17.68 | 1 | 175.5 | 175.5 | -78.0 | 14 | 77.8 |
| 2025-12-11T04:23:00 | -17.0621 | -34.9427 | 86.0 | 7.90 | -33.62 | 1 | 165.0 | 165.0 | -76.9 | 14 | 77.8 |
| 2025-12-11T04:23:00 | -17.0621 | -34.9427 | 118.0 | 12.71 | -18.98 | 1 | 155.8 | 155.8 | -77.1 | 16 | 88.9 |
| 2025-12-11T04:23:00 | -17.0621 | -34.9427 | 150.0 | 2.36 | -25.86 | 1 | 144.3 | 144.3 | -79.1 | 16 | 88.9 |
| 2025-12-11T04:23:00 | -17.0621 | -34.9427 | 182.0 | -1.12 | -17.02 | 1 | 134.6 | 134.6 | -80.8 | 17 | 94.4 |
| 2025-12-11T04:23:00 | -17.0621 | -34.9427 | 214.0 | 5.95 | -14.94 | 1 | 123.4 | 123.4 | -83.4 | 17 | 94.4 |
| 2025-12-11T04:23:00 | -17.0621 | -34.9427 | 246.0 | 9.40 | -10.50 | 1 | 121.1 | 121.1 | -82.5 | 17 | 94.4 |
| 2025-12-11T04:23:00 | -17.0621 | -34.9427 | 278.0 | 6.25 | -12.30 | 1 | 117.7 | 117.2 | -82.4 | 16 | 88.9 |
| 2025-12-11T04:23:00 | -17.0621 | -34.9427 | 310.0 | -1.66 | -1.56 | 1 | 87.8 | 87.8 | -93.2 | 18 | 100.0 |
| 2025-12-11T04:23:00 | -17.0621 | -34.9427 | 342.0 | 3.17 | -14.51 | 1 | 72.4 | 72.4 | -98.2 | 18 | 100.0 |
| 2025-12-11T04:23:00 | -17.0621 | -34.9427 | 374.0 | -4.44 | -11.92 | 1 | 67.1 | 67.1 | -99.0 | 17 | 94.4 |
| 2025-12-11T04:23:00 | -17.0621 | -34.9427 | 406.0 | 3.74 | -1.17 | 1 | 60.2 | 60.2 | -100.5 | 17 | 94.4 |
| 2025-12-11T04:23:00 | -17.0621 | -34.9427 | 438.0 | -0.00 | -0.56 | 1 | 61.6 | 61.6 | -98.6 | 17 | 94.4 |
| 2025-12-11T04:23:00 | -17.0621 | -34.9427 | 470.0 | 6.02 | -9.03 | 1 | 62.3 | 61.1 | -97.4 | 17 | 94.4 |
| 2025-12-11T04:23:00 | -17.0621 | -34.9427 | 502.0 | 2.00 | -5.61 | 1 | 70.4 | 70.4 | -92.2 | 16 | 88.9 |
| 2025-12-11T04:23:00 | -17.0621 | -34.9427 | 534.0 | 3.16 | -10.74 | 1 | 87.1 | 87.1 | -83.9 | 18 | 100.0 |
| 2025-12-11T04:23:00 | -17.0621 | -34.9427 | 566.0 | 1.65 | -6.01 | 1 | 88.3 | 88.3 | -82.2 | 18 | 100.0 |
| 2025-12-11T04:23:00 | -17.0621 | -34.9427 | 598.0 | 1.14 | -17.82 | 1 | 78.7 | 78.4 | -85.3 | 17 | 94.4 |
| 2025-12-11T04:23:00 | -17.0621 | -34.9427 | 630.0 | 1.25 | -19.53 | 1 | 66.1 | 65.3 | -89.7 | 16 | 88.9 |
| 2025-12-11T04:23:00 | -17.0621 | -34.9427 | 662.0 | 4.49 | -10.69 | 1 | 60.7 | 59.9 | -90.8 | 17 | 94.4 |
| 2025-12-11T04:23:00 | -17.0621 | -34.9427 | 694.0 | -3.44 | -15.03 | 1 | 56.1 | 55.5 | -91.6 | 16 | 88.9 |
| 2025-12-11T04:23:00 | -17.0621 | -34.9427 | 726.0 | 5.43 | -18.93 | 1 | 51.4 | 51.4 | -92.3 | 18 | 100.0 |
| 2025-12-11T04:23:00 | -17.0621 | -34.9427 | 758.0 | -2.14 | -15.81 | 1 | 47.8 | 47.4 | -92.9 | 16 | 88.9 |
| 2025-12-11T04:23:00 | -17.0621 | -34.9427 | 790.0 | -1.57 | -15.50 | 1 | 50.4 | 48.9 | -91.3 | 15 | 83.3 |
| 2025-12-11T04:23:00 | -17.0621 | -34.9427 | 822.0 | 4.66 | -22.91 | 1 | 45.9 | 45.0 | -91.9 | 17 | 94.4 |
| 2025-12-11T04:23:00 | -17.0621 | -34.9427 | 854.0 | 0.05 | -10.73 | 1 | 47.8 | 45.8 | -90.6 | 13 | 72.2 |
| 2025-12-11T04:23:00 | -17.0621 | -34.9427 | 886.0 | 0.06 | -29.31 | 1 | 47.9 | 45.9 | -89.6 | 14 | 77.8 |
| 2025-12-11T04:23:00 | -17.0621 | -34.9427 | 918.0 | -12.02 | -32.68 | 1 | 48.0 | 42.8 | -89.9 | 5 | 27.8 |
| 2025-12-11T04:23:00 | -17.0621 | -34.9427 | 950.0 | 7.29 | 5.79 | 4 | 47.1 | 46.2 | -87.5 | 1 | 5.6 |
| 2025-12-11T04:24:00 | -17.0589 | -34.9410 | 54.0 | 13.94 | -21.19 | 1 | 175.4 | 175.4 | -78.1 | 18 | 100.0 |
| 2025-12-11T04:24:00 | -17.0589 | -34.9410 | 86.0 | -0.27 | -32.07 | 1 | 162.5 | 162.5 | -77.9 | 13 | 72.2 |
| 2025-12-11T04:24:00 | -17.0589 | -34.9410 | 118.0 | 3.96 | -24.08 | 1 | 152.5 | 152.5 | -78.5 | 18 | 100.0 |
| 2025-12-11T04:24:00 | -17.0589 | -34.9410 | 150.0 | 17.09 | -19.32 | 1 | 144.3 | 144.3 | -79.1 | 16 | 88.9 |
| 2025-12-11T04:24:00 | -17.0589 | -34.9410 | 182.0 | 0.66 | -25.87 | 1 | 134.3 | 134.3 | -80.9 | 16 | 88.9 |
| 2025-12-11T04:24:00 | -17.0589 | -34.9410 | 214.0 | 0.11 | -5.43 | 1 | 123.2 | 123.2 | -83.5 | 17 | 94.4 |
| 2025-12-11T04:24:00 | -17.0589 | -34.9410 | 246.0 | -3.87 | -13.94 | 1 | 119.4 | 119.4 | -83.2 | 16 | 88.9 |
| 2025-12-11T04:24:00 | -17.0589 | -34.9410 | 278.0 | 3.50 | -10.16 | 1 | 116.8 | 116.8 | -82.6 | 17 | 94.4 |
| 2025-12-11T04:24:00 | -17.0589 | -34.9410 | 310.0 | -0.42 | -9.53 | 1 | 88.2 | 88.2 | -93.0 | 18 | 100.0 |
| 2025-12-11T04:24:00 | -17.0589 | -34.9410 | 342.0 | -0.70 | -14.89 | 1 | 73.4 | 73.4 | -97.8 | 16 | 88.9 |
| 2025-12-11T04:24:00 | -17.0589 | -34.9410 | 374.0 | 1.26 | -19.06 | 1 | 66.1 | 66.1 | -99.4 | 16 | 88.9 |
| 2025-12-11T04:24:00 | -17.0589 | -34.9410 | 406.0 | -1.25 | -11.98 | 1 | 58.7 | 58.7 | -101.1 | 17 | 94.4 |
| 2025-12-11T04:24:00 | -17.0589 | -34.9410 | 438.0 | -6.25 | -5.57 | 1 | 58.0 | 58.0 | -100.1 | 17 | 94.4 |
| 2025-12-11T04:24:00 | -17.0589 | -34.9410 | 470.0 | -0.21 | -7.34 | 1 | 62.3 | 62.3 | -96.9 | 18 | 100.0 |
| 2025-12-11T04:24:00 | -17.0589 | -34.9410 | 502.0 | 4.11 | 1.03 | 1 | 68.6 | 68.6 | -93.0 | 17 | 94.4 |
| 2025-12-11T04:24:00 | -17.0589 | -34.9410 | 534.0 | 3.31 | 0.03 | 1 | 84.7 | 84.0 | -85.2 | 16 | 88.9 |
| 2025-12-11T04:24:00 | -17.0589 | -34.9410 | 566.0 | 3.74 | -9.67 | 1 | 88.9 | 88.8 | -82.0 | 17 | 94.4 |
| 2025-12-11T04:24:00 | -17.0589 | -34.9410 | 598.0 | 2.43 | -21.67 | 1 | 78.8 | 78.8 | -85.1 | 17 | 94.4 |
| 2025-12-11T04:24:00 | -17.0589 | -34.9410 | 630.0 | 0.65 | -19.70 | 1 | 65.9 | 65.4 | -89.6 | 15 | 83.3 |
| 2025-12-11T04:24:00 | -17.0589 | -34.9410 | 662.0 | 4.80 | -9.80 | 1 | 59.9 | 59.2 | -91.1 | 16 | 88.9 |
| 2025-12-11T04:24:00 | -17.0589 | -34.9410 | 694.0 | 7.53 | -7.59 | 1 | 55.1 | 54.8 | -91.9 | 17 | 94.4 |
| 2025-12-11T04:24:00 | -17.0589 | -34.9410 | 726.0 | 2.75 | -19.45 | 1 | 51.9 | 51.9 | -92.1 | 18 | 100.0 |
| 2025-12-11T04:24:00 | -17.0589 | -34.9410 | 758.0 | 1.30 | -23.27 | 1 | 45.1 | 44.9 | -94.0 | 16 | 88.9 |
| 2025-12-11T04:24:00 | -17.0589 | -34.9410 | 790.0 | 5.93 | -17.60 | 1 | 49.6 | 47.8 | -91.7 | 16 | 88.9 |
| 2025-12-11T04:24:00 | -17.0589 | -34.9410 | 822.0 | 7.51 | -13.73 | 1 | 47.7 | 45.6 | -91.7 | 13 | 72.2 |
| 2025-12-11T04:24:00 | -17.0589 | -34.9410 | 854.0 | -2.41 | -10.91 | 1 | 47.3 | 41.9 | -92.3 | 11 | 61.1 |
| 2025-12-11T04:24:00 | -17.0589 | -34.9410 | 886.0 | -3.74 | -34.81 | 1 | 47.4 | 45.4 | -89.8 | 13 | 72.2 |
| 2025-12-11T04:24:00 | -17.0589 | -34.9410 | 918.0 | 3.80 | -25.54 | 1 | 41.4 | 36.3 | -92.7 | 5 | 27.8 |
| 2025-12-11T04:24:00 | -17.0589 | -34.9410 | 950.0 | 3.67 | -38.56 | 4 | 44.2 | 34.8 | -92.5 | 1 | 5.6 |
| 2025-12-11T04:25:00 | -17.0557 | -34.9393 | 54.0 | 6.35 | -23.33 | 1 | 175.9 | 175.9 | -77.9 | 15 | 83.3 |
| 2025-12-11T04:25:00 | -17.0557 | -34.9393 | 86.0 | 5.20 | -22.22 | 1 | 164.2 | 164.2 | -77.2 | 17 | 94.4 |
| 2025-12-11T04:25:00 | -17.0557 | -34.9393 | 118.0 | 16.85 | -12.16 | 1 | 152.0 | 152.0 | -78.7 | 15 | 83.3 |
| 2025-12-11T04:25:00 | -17.0557 | -34.9393 | 150.0 | 8.44 | -13.64 | 1 | 143.6 | 143.6 | -79.4 | 17 | 94.4 |
| 2025-12-11T04:25:00 | -17.0557 | -34.9393 | 182.0 | 0.19 | -11.96 | 1 | 135.4 | 135.4 | -80.4 | 15 | 83.3 |
| 2025-12-11T04:25:00 | -17.0557 | -34.9393 | 214.0 | 7.07 | -20.21 | 1 | 124.1 | 124.1 | -83.1 | 17 | 94.4 |
| 2025-12-11T04:25:00 | -17.0557 | -34.9393 | 246.0 | 0.38 | -8.79 | 1 | 119.9 | 119.9 | -83.0 | 18 | 100.0 |
| 2025-12-11T04:25:00 | -17.0557 | -34.9393 | 278.0 | 1.01 | -16.35 | 1 | 112.2 | 112.2 | -84.5 | 16 | 88.9 |
| 2025-12-11T04:25:00 | -17.0557 | -34.9393 | 310.0 | -6.77 | -11.84 | 1 | 89.6 | 89.3 | -92.6 | 15 | 83.3 |
| 2025-12-11T04:25:00 | -17.0557 | -34.9393 | 342.0 | 0.99 | -19.09 | 1 | 77.5 | 77.0 | -96.3 | 17 | 94.4 |
| 2025-12-11T04:25:00 | -17.0557 | -34.9393 | 374.0 | -3.99 | -9.61 | 1 | 68.8 | 67.4 | -98.9 | 16 | 88.9 |
| 2025-12-11T04:25:00 | -17.0557 | -34.9393 | 406.0 | 4.16 | -10.79 | 1 | 62.1 | 62.1 | -99.7 | 18 | 100.0 |
| 2025-12-11T04:25:00 | -17.0557 | -34.9393 | 438.0 | 0.82 | -7.46 | 1 | 60.7 | 60.7 | -99.0 | 15 | 83.3 |
| 2025-12-11T04:25:00 | -17.0557 | -34.9393 | 470.0 | 1.01 | -10.16 | 1 | 61.3 | 61.3 | -97.4 | 17 | 94.4 |
| 2025-12-11T04:25:00 | -17.0557 | -34.9393 | 502.0 | -3.41 | -4.97 | 1 | 68.2 | 68.2 | -93.2 | 18 | 100.0 |
| 2025-12-11T04:25:00 | -17.0557 | -34.9393 | 534.0 | 7.04 | -3.84 | 1 | 86.1 | 86.1 | -84.3 | 17 | 94.4 |
| 2025-12-11T04:25:00 | -17.0557 | -34.9393 | 566.0 | 2.51 | -7.10 | 1 | 89.0 | 89.0 | -81.9 | 17 | 94.4 |
| 2025-12-11T04:25:00 | -17.0557 | -34.9393 | 598.0 | 8.27 | -12.33 | 1 | 77.3 | 77.3 | -85.7 | 17 | 94.4 |
| 2025-12-11T04:25:00 | -17.0557 | -34.9393 | 630.0 | -5.07 | -11.66 | 1 | 66.6 | 65.8 | -89.4 | 15 | 83.3 |
| 2025-12-11T04:25:00 | -17.0557 | -34.9393 | 662.0 | 7.12 | -12.97 | 1 | 60.9 | 60.4 | -90.6 | 17 | 94.4 |
| 2025-12-11T04:25:00 | -17.0557 | -34.9393 | 694.0 | 6.60 | -6.89 | 1 | 54.8 | 54.8 | -91.9 | 18 | 100.0 |
| 2025-12-11T04:25:00 | -17.0557 | -34.9393 | 726.0 | 7.83 | -17.77 | 1 | 50.4 | 50.4 | -92.7 | 17 | 94.4 |
| 2025-12-11T04:25:00 | -17.0557 | -34.9393 | 758.0 | -8.11 | -17.26 | 1 | 46.6 | 46.7 | -93.2 | 16 | 88.9 |
| 2025-12-11T04:25:00 | -17.0557 | -34.9393 | 790.0 | 0.62 | -19.74 | 1 | 48.7 | 48.4 | -91.5 | 17 | 94.4 |
| 2025-12-11T04:25:00 | -17.0557 | -34.9393 | 822.0 | 0.54 | -19.01 | 1 | 45.5 | 45.2 | -91.8 | 17 | 94.4 |
| 2025-12-11T04:25:00 | -17.0557 | -34.9393 | 854.0 | -1.13 | -11.46 | 1 | 46.5 | 44.9 | -91.0 | 14 | 77.8 |
| 2025-12-11T04:25:00 | -17.0557 | -34.9393 | 886.0 | -6.53 | -16.47 | 1 | 47.2 | 44.2 | -90.3 | 10 | 55.6 |
| 2025-12-11T04:25:00 | -17.0557 | -34.9393 | 918.0 | -13.65 | -21.86 | 4 | 45.4 | 39.2 | -91.5 | 4 | 22.2 |
| 2025-12-11T04:25:00 | -17.0557 | -34.9393 | 950.0 | -8.39 | -12.92 | 4 | 46.4 | 41.6 | -89.5 | 3 | 16.7 |
| 2025-12-11T04:25:00 | -17.0557 | -34.9393 | 982.0 | 4.62 | 5.21 | 4 | 46.1 | 39.2 | -89.5 | 1 | 5.6 |
| 2025-12-11T04:26:00 | -17.0526 | -34.9376 | 54.0 | 18.02 | -20.03 | 1 | 175.2 | 175.2 | -78.2 | 12 | 66.7 |
| 2025-12-11T04:26:00 | -17.0526 | -34.9376 | 86.0 | 4.16 | -20.25 | 1 | 163.6 | 163.6 | -77.5 | 14 | 77.8 |
| 2025-12-11T04:26:00 | -17.0526 | -34.9376 | 118.0 | 8.62 | -24.08 | 1 | 153.8 | 153.8 | -77.9 | 17 | 94.4 |
| 2025-12-11T04:26:00 | -17.0526 | -34.9376 | 150.0 | 14.26 | -32.90 | 1 | 142.7 | 142.7 | -79.7 | 18 | 100.0 |
| 2025-12-11T04:26:00 | -17.0526 | -34.9376 | 182.0 | -0.49 | -18.74 | 1 | 135.0 | 134.8 | -80.7 | 16 | 88.9 |
| 2025-12-11T04:26:00 | -17.0526 | -34.9376 | 214.0 | 6.07 | -18.20 | 1 | 125.7 | 125.9 | -82.4 | 14 | 77.8 |
| 2025-12-11T04:26:00 | -17.0526 | -34.9376 | 246.0 | -8.89 | -10.41 | 1 | 119.7 | 119.3 | -83.3 | 17 | 94.4 |
| 2025-12-11T04:26:00 | -17.0526 | -34.9376 | 278.0 | -1.43 | -5.71 | 1 | 108.6 | 108.3 | -86.2 | 17 | 94.4 |
| 2025-12-11T04:26:00 | -17.0526 | -34.9376 | 310.0 | -6.20 | -6.63 | 1 | 89.5 | 89.4 | -92.5 | 15 | 83.3 |
| 2025-12-11T04:26:00 | -17.0526 | -34.9376 | 342.0 | -7.59 | -11.23 | 1 | 81.7 | 81.0 | -94.6 | 16 | 88.9 |
| 2025-12-11T04:26:00 | -17.0526 | -34.9376 | 374.0 | -4.95 | -14.11 | 1 | 67.0 | 67.0 | -99.0 | 18 | 100.0 |
| 2025-12-11T04:26:00 | -17.0526 | -34.9376 | 406.0 | -1.78 | -18.40 | 1 | 62.5 | 62.5 | -99.5 | 16 | 88.9 |
| 2025-12-11T04:26:00 | -17.0526 | -34.9376 | 438.0 | -1.17 | 1.73 | 1 | 60.7 | 60.7 | -99.0 | 18 | 100.0 |
| 2025-12-11T04:26:00 | -17.0526 | -34.9376 | 470.0 | 1.16 | 2.95 | 1 | 62.4 | 62.4 | -96.9 | 18 | 100.0 |
| 2025-12-11T04:26:00 | -17.0526 | -34.9376 | 502.0 | -9.53 | 3.12 | 1 | 69.2 | 68.8 | -92.9 | 16 | 88.9 |
| 2025-12-11T04:26:00 | -17.0526 | -34.9376 | 534.0 | 4.02 | 2.62 | 1 | 89.3 | 88.5 | -83.3 | 15 | 83.3 |
| 2025-12-11T04:26:00 | -17.0526 | -34.9376 | 566.0 | 3.09 | -9.61 | 1 | 87.6 | 87.2 | -82.7 | 16 | 88.9 |
| 2025-12-11T04:26:00 | -17.0526 | -34.9376 | 598.0 | 2.01 | -18.66 | 1 | 77.2 | 74.2 | -87.0 | 14 | 77.8 |
| 2025-12-11T04:26:00 | -17.0526 | -34.9376 | 630.0 | 6.92 | -9.61 | 1 | 68.4 | 67.9 | -88.6 | 17 | 94.4 |
| 2025-12-11T04:26:00 | -17.0526 | -34.9376 | 662.0 | 2.84 | -21.28 | 1 | 58.1 | 58.1 | -91.6 | 18 | 100.0 |
| 2025-12-11T04:26:00 | -17.0526 | -34.9376 | 694.0 | -6.95 | -11.27 | 1 | 56.2 | 56.2 | -91.3 | 17 | 94.4 |
| 2025-12-11T04:26:00 | -17.0526 | -34.9376 | 726.0 | -2.81 | -15.89 | 1 | 52.3 | 52.0 | -92.0 | 17 | 94.4 |
| 2025-12-11T04:26:00 | -17.0526 | -34.9376 | 758.0 | 0.14 | -23.63 | 1 | 47.5 | 47.2 | -93.0 | 17 | 94.4 |
| 2025-12-11T04:26:00 | -17.0526 | -34.9376 | 790.0 | 6.66 | -18.84 | 1 | 47.9 | 45.8 | -92.6 | 17 | 94.4 |
| 2025-12-11T04:26:00 | -17.0526 | -34.9376 | 822.0 | 5.60 | -10.98 | 1 | 48.4 | 47.8 | -90.8 | 15 | 83.3 |
| 2025-12-11T04:26:00 | -17.0526 | -34.9376 | 854.0 | 1.69 | -16.68 | 1 | 45.7 | 42.9 | -91.8 | 13 | 72.2 |
| 2025-12-11T04:26:00 | -17.0526 | -34.9376 | 886.0 | -1.86 | -15.52 | 1 | 43.8 | 41.0 | -91.7 | 12 | 66.7 |
| 2025-12-11T04:26:00 | -17.0526 | -34.9376 | 918.0 | -3.06 | -29.93 | 1 | 43.8 | 40.3 | -91.0 | 10 | 55.6 |
| 2025-12-11T04:26:00 | -17.0526 | -34.9376 | 982.0 | 7.06 | -14.60 | 4 | 42.1 | 43.4 | -87.8 | 2 | 11.1 |
| 2025-12-11T04:27:00 | -17.0494 | -34.9359 | 54.0 | 17.22 | -20.67 | 1 | 177.8 | 177.8 | -77.1 | 16 | 88.9 |
| 2025-12-11T04:27:00 | -17.0494 | -34.9359 | 86.0 | 11.64 | -18.27 | 1 | 164.3 | 164.3 | -77.2 | 17 | 94.4 |
| 2025-12-11T04:27:00 | -17.0494 | -34.9359 | 118.0 | 24.22 | -31.15 | 1 | 156.6 | 156.6 | -76.7 | 14 | 77.8 |
| 2025-12-11T04:27:00 | -17.0494 | -34.9359 | 150.0 | 7.31 | -22.72 | 1 | 143.2 | 143.2 | -79.5 | 17 | 94.4 |
| 2025-12-11T04:27:00 | -17.0494 | -34.9359 | 182.0 | 2.65 | -25.87 | 1 | 135.4 | 135.4 | -80.4 | 17 | 94.4 |
| 2025-12-11T04:27:00 | -17.0494 | -34.9359 | 214.0 | 13.73 | -15.90 | 1 | 122.3 | 122.3 | -83.9 | 17 | 94.4 |
| 2025-12-11T04:27:00 | -17.0494 | -34.9359 | 246.0 | 8.71 | -16.24 | 1 | 117.2 | 117.2 | -84.1 | 17 | 94.4 |
| 2025-12-11T04:27:00 | -17.0494 | -34.9359 | 278.0 | -2.76 | -17.76 | 1 | 106.0 | 106.0 | -87.1 | 17 | 94.4 |
| 2025-12-11T04:27:00 | -17.0494 | -34.9359 | 310.0 | 2.24 | -3.92 | 1 | 86.2 | 86.2 | -93.9 | 17 | 94.4 |
| 2025-12-11T04:27:00 | -17.0494 | -34.9359 | 342.0 | -4.53 | -15.24 | 1 | 78.4 | 78.4 | -95.7 | 18 | 100.0 |
| 2025-12-11T04:27:00 | -17.0494 | -34.9359 | 374.0 | -1.58 | -16.59 | 1 | 67.0 | 67.0 | -99.0 | 17 | 94.4 |
| 2025-12-11T04:27:00 | -17.0494 | -34.9359 | 406.0 | 8.56 | -20.67 | 1 | 64.1 | 64.1 | -98.9 | 18 | 100.0 |
| 2025-12-11T04:27:00 | -17.0494 | -34.9359 | 438.0 | -5.87 | -8.77 | 1 | 62.2 | 62.2 | -98.3 | 18 | 100.0 |
| 2025-12-11T04:27:00 | -17.0494 | -34.9359 | 470.0 | 6.49 | -9.66 | 1 | 62.9 | 62.9 | -96.7 | 18 | 100.0 |
| 2025-12-11T04:27:00 | -17.0494 | -34.9359 | 502.0 | 5.35 | -6.13 | 1 | 70.4 | 70.4 | -92.2 | 17 | 94.4 |
| 2025-12-11T04:27:00 | -17.0494 | -34.9359 | 534.0 | 0.90 | 5.31 | 1 | 87.5 | 87.5 | -83.8 | 17 | 94.4 |
| 2025-12-11T04:27:00 | -17.0494 | -34.9359 | 566.0 | 2.65 | -11.33 | 1 | 87.8 | 87.8 | -82.4 | 17 | 94.4 |
| 2025-12-11T04:27:00 | -17.0494 | -34.9359 | 598.0 | 2.44 | -16.61 | 1 | 73.3 | 72.9 | -87.6 | 15 | 83.3 |
| 2025-12-11T04:27:00 | -17.0494 | -34.9359 | 630.0 | 4.43 | -13.78 | 1 | 66.0 | 65.7 | -89.5 | 16 | 88.9 |
| 2025-12-11T04:27:00 | -17.0494 | -34.9359 | 662.0 | 0.79 | -12.68 | 1 | 60.1 | 59.8 | -90.9 | 16 | 88.9 |
| 2025-12-11T04:27:00 | -17.0494 | -34.9359 | 694.0 | 5.11 | -6.96 | 1 | 59.1 | 58.5 | -90.4 | 17 | 94.4 |
| 2025-12-11T04:27:00 | -17.0494 | -34.9359 | 726.0 | 0.90 | -11.57 | 1 | 53.1 | 52.6 | -91.8 | 17 | 94.4 |
| 2025-12-11T04:27:00 | -17.0494 | -34.9359 | 758.0 | 2.66 | -17.64 | 1 | 50.8 | 49.3 | -92.1 | 14 | 77.8 |
| 2025-12-11T04:27:00 | -17.0494 | -34.9359 | 790.0 | 3.28 | -17.43 | 1 | 50.9 | 50.3 | -90.7 | 16 | 88.9 |
| 2025-12-11T04:27:00 | -17.0494 | -34.9359 | 822.0 | 0.82 | -13.16 | 1 | 50.7 | 47.2 | -91.0 | 13 | 72.2 |
| 2025-12-11T04:27:00 | -17.0494 | -34.9359 | 854.0 | -2.20 | -14.92 | 1 | 48.8 | 45.6 | -90.7 | 9 | 50.0 |
| 2025-12-11T04:27:00 | -17.0494 | -34.9359 | 886.0 | -4.88 | -12.69 | 1 | 49.2 | 46.8 | -89.2 | 9 | 50.0 |
| 2025-12-11T04:27:00 | -17.0494 | -34.9359 | 918.0 | -21.94 | -24.07 | 4 | 45.3 | 38.6 | -91.7 | 3 | 16.7 |
| 2025-12-11T04:27:00 | -17.0494 | -34.9359 | 950.0 | 3.30 | -21.77 | 4 | 45.6 | 34.5 | -92.6 | 1 | 5.6 |
| 2025-12-11T04:27:00 | -17.0494 | -34.9359 | 982.0 | 9 | 45.4 | 43.8 | -87.6 | 0 | 0.0 | ||
| 2025-12-11T04:28:00 | -17.0462 | -34.9341 | 54.0 | 8.40 | -15.93 | 1 | 177.7 | 177.7 | -77.1 | 14 | 77.8 |
| 2025-12-11T04:28:00 | -17.0462 | -34.9341 | 86.0 | 7.82 | -17.96 | 1 | 166.1 | 166.1 | -76.4 | 14 | 77.8 |
| 2025-12-11T04:28:00 | -17.0462 | -34.9341 | 118.0 | 9.11 | -17.10 | 1 | 153.9 | 153.9 | -77.9 | 15 | 83.3 |
| 2025-12-11T04:28:00 | -17.0462 | -34.9341 | 150.0 | 15.51 | -25.57 | 1 | 142.0 | 142.0 | -80.0 | 15 | 83.3 |
| 2025-12-11T04:28:00 | -17.0462 | -34.9341 | 182.0 | 5.92 | -20.54 | 1 | 137.0 | 137.0 | -79.7 | 16 | 88.9 |
| 2025-12-11T04:28:00 | -17.0462 | -34.9341 | 214.0 | 7.57 | -10.10 | 1 | 120.1 | 120.1 | -84.8 | 17 | 94.4 |
| 2025-12-11T04:28:00 | -17.0462 | -34.9341 | 246.0 | 10.00 | -7.21 | 1 | 115.2 | 115.2 | -85.0 | 15 | 83.3 |
| 2025-12-11T04:28:00 | -17.0462 | -34.9341 | 278.0 | -0.78 | -9.47 | 1 | 104.4 | 103.6 | -88.1 | 16 | 88.9 |
| 2025-12-11T04:28:00 | -17.0462 | -34.9341 | 310.0 | -3.27 | -19.15 | 1 | 85.4 | 85.1 | -94.3 | 16 | 88.9 |
| 2025-12-11T04:28:00 | -17.0462 | -34.9341 | 342.0 | -3.82 | -7.76 | 1 | 77.9 | 77.9 | -95.9 | 18 | 100.0 |
| 2025-12-11T04:28:00 | -17.0462 | -34.9341 | 374.0 | 4.17 | -5.10 | 1 | 70.6 | 70.0 | -97.7 | 17 | 94.4 |
| 2025-12-11T04:28:00 | -17.0462 | -34.9341 | 406.0 | 6.27 | -2.76 | 1 | 65.5 | 64.2 | -98.8 | 16 | 88.9 |
| 2025-12-11T04:28:00 | -17.0462 | -34.9341 | 438.0 | 0.25 | -7.15 | 1 | 61.4 | 61.1 | -98.8 | 16 | 88.9 |
| 2025-12-11T04:28:00 | -17.0462 | -34.9341 | 470.0 | 1.81 | -5.85 | 1 | 64.1 | 64.1 | -96.2 | 17 | 94.4 |
| 2025-12-11T04:28:00 | -17.0462 | -34.9341 | 502.0 | 12.12 | 0.91 | 1 | 72.4 | 71.5 | -91.8 | 16 | 88.9 |
| 2025-12-11T04:28:00 | -17.0462 | -34.9341 | 534.0 | 2.17 | -7.18 | 1 | 85.7 | 85.7 | -84.5 | 17 | 94.4 |
| 2025-12-11T04:28:00 | -17.0462 | -34.9341 | 566.0 | 1.37 | -16.78 | 1 | 87.3 | 87.3 | -82.6 | 17 | 94.4 |
| 2025-12-11T04:28:00 | -17.0462 | -34.9341 | 598.0 | 4.91 | -16.64 | 1 | 74.3 | 73.9 | -87.2 | 16 | 88.9 |
| 2025-12-11T04:28:00 | -17.0462 | -34.9341 | 630.0 | -8.94 | -8.44 | 1 | 64.2 | 63.7 | -90.4 | 17 | 94.4 |
| 2025-12-11T04:28:00 | -17.0462 | -34.9341 | 662.0 | -0.09 | -19.69 | 1 | 60.1 | 60.1 | -90.8 | 16 | 88.9 |
| 2025-12-11T04:28:00 | -17.0462 | -34.9341 | 694.0 | 3.57 | -8.73 | 1 | 57.7 | 57.7 | -90.7 | 17 | 94.4 |
| 2025-12-11T04:28:00 | -17.0462 | -34.9341 | 726.0 | -1.63 | -20.57 | 1 | 52.6 | 51.6 | -92.2 | 17 | 94.4 |
| 2025-12-11T04:28:00 | -17.0462 | -34.9341 | 758.0 | 1.41 | -3.16 | 1 | 51.1 | 48.5 | -92.5 | 13 | 72.2 |
| 2025-12-11T04:28:00 | -17.0462 | -34.9341 | 790.0 | 1.65 | -8.95 | 1 | 50.9 | 50.2 | -90.7 | 15 | 83.3 |
| 2025-12-11T04:28:00 | -17.0462 | -34.9341 | 822.0 | -8.48 | -7.71 | 1 | 46.8 | 46.0 | -91.5 | 13 | 72.2 |
| 2025-12-11T04:28:00 | -17.0462 | -34.9341 | 854.0 | 3.30 | -18.74 | 1 | 45.8 | 44.0 | -91.4 | 13 | 72.2 |
| 2025-12-11T04:28:00 | -17.0462 | -34.9341 | 886.0 | -2.99 | -12.23 | 1 | 45.5 | 42.8 | -90.9 | 13 | 72.2 |
| 2025-12-11T04:28:00 | -17.0462 | -34.9341 | 918.0 | -1.19 | -13.18 | 1 | 46.3 | 42.3 | -90.1 | 9 | 50.0 |
| 2025-12-11T04:28:00 | -17.0462 | -34.9341 | 950.0 | -16.83 | -12.10 | 4 | 44.8 | 41.5 | -89.5 | 2 | 11.1 |
| 2025-12-11T04:28:00 | -17.0462 | -34.9341 | 982.0 | -4.28 | 14.75 | 4 | 43.2 | 37.2 | -90.4 | 1 | 5.6 |
| 2025-12-11T04:29:00 | -17.0430 | -34.9324 | 54.0 | 0.57 | -35.66 | 1 | 179.2 | 179.2 | -76.5 | 17 | 94.4 |
| 2025-12-11T04:29:00 | -17.0430 | -34.9324 | 86.0 | -4.04 | -10.94 | 1 | 165.7 | 165.7 | -76.6 | 14 | 77.8 |
| 2025-12-11T04:29:00 | -17.0430 | -34.9324 | 118.0 | 3.44 | -37.72 | 1 | 155.0 | 155.0 | -77.4 | 14 | 77.8 |
| 2025-12-11T04:29:00 | -17.0430 | -34.9324 | 150.0 | 9.27 | -34.91 | 1 | 144.1 | 144.1 | -79.1 | 18 | 100.0 |
| 2025-12-11T04:29:00 | -17.0430 | -34.9324 | 182.0 | -7.15 | -30.52 | 1 | 137.6 | 137.6 | -79.5 | 18 | 100.0 |
| 2025-12-11T04:29:00 | -17.0430 | -34.9324 | 214.0 | -2.58 | -17.90 | 1 | 118.1 | 118.1 | -85.6 | 18 | 100.0 |
| 2025-12-11T04:29:00 | -17.0430 | -34.9324 | 246.0 | 0.76 | -25.43 | 1 | 110.3 | 110.3 | -87.1 | 18 | 100.0 |
| 2025-12-11T04:29:00 | -17.0430 | -34.9324 | 278.0 | -7.36 | -17.13 | 1 | 103.3 | 103.3 | -88.3 | 18 | 100.0 |
| 2025-12-11T04:29:00 | -17.0430 | -34.9324 | 310.0 | -8.78 | -23.28 | 1 | 86.8 | 86.8 | -93.6 | 17 | 94.4 |
| 2025-12-11T04:29:00 | -17.0430 | -34.9324 | 342.0 | -11.68 | -21.61 | 1 | 78.9 | 78.1 | -95.8 | 16 | 88.9 |
| 2025-12-11T04:29:00 | -17.0430 | -34.9324 | 374.0 | -7.82 | -14.52 | 1 | 69.6 | 69.1 | -98.1 | 17 | 94.4 |
| 2025-12-11T04:29:00 | -17.0430 | -34.9324 | 406.0 | -5.99 | -20.14 | 1 | 64.5 | 64.5 | -98.7 | 18 | 100.0 |
| 2025-12-11T04:29:00 | -17.0430 | -34.9324 | 438.0 | -9.45 | -19.57 | 1 | 61.9 | 61.9 | -98.4 | 18 | 100.0 |
| 2025-12-11T04:29:00 | -17.0430 | -34.9324 | 470.0 | -1.57 | -19.85 | 1 | 64.2 | 64.2 | -96.1 | 18 | 100.0 |
| 2025-12-11T04:29:00 | -17.0430 | -34.9324 | 502.0 | -2.99 | -2.42 | 1 | 70.9 | 70.9 | -92.0 | 18 | 100.0 |
| 2025-12-11T04:29:00 | -17.0430 | -34.9324 | 534.0 | -5.73 | -9.74 | 1 | 84.0 | 84.0 | -85.2 | 18 | 100.0 |
| 2025-12-11T04:29:00 | -17.0430 | -34.9324 | 566.0 | 1.68 | -15.95 | 1 | 88.3 | 87.4 | -82.6 | 17 | 94.4 |
| 2025-12-11T04:29:00 | -17.0430 | -34.9324 | 598.0 | 2.47 | -22.59 | 1 | 75.2 | 74.7 | -86.8 | 17 | 94.4 |
| 2025-12-11T04:29:00 | -17.0430 | -34.9324 | 630.0 | -9.66 | -17.93 | 1 | 63.3 | 62.8 | -90.7 | 17 | 94.4 |
| 2025-12-11T04:29:00 | -17.0430 | -34.9324 | 662.0 | -3.42 | -4.94 | 1 | 58.3 | 58.3 | -91.5 | 16 | 88.9 |
| 2025-12-11T04:29:00 | -17.0430 | -34.9324 | 694.0 | -6.13 | -19.17 | 1 | 58.5 | 58.0 | -90.6 | 17 | 94.4 |
| 2025-12-11T04:29:00 | -17.0430 | -34.9324 | 726.0 | 4.86 | -21.09 | 1 | 55.5 | 55.7 | -90.5 | 17 | 94.4 |
| 2025-12-11T04:29:00 | -17.0430 | -34.9324 | 758.0 | -8.46 | -14.84 | 1 | 53.1 | 52.7 | -90.7 | 16 | 88.9 |
| 2025-12-11T04:29:00 | -17.0430 | -34.9324 | 790.0 | -2.67 | -13.32 | 1 | 50.7 | 48.3 | -91.5 | 14 | 77.8 |
| 2025-12-11T04:29:00 | -17.0430 | -34.9324 | 822.0 | 0.99 | -17.97 | 1 | 50.9 | 48.8 | -90.3 | 15 | 83.3 |
| 2025-12-11T04:29:00 | -17.0430 | -34.9324 | 854.0 | -4.10 | -14.32 | 1 | 47.7 | 45.7 | -90.6 | 12 | 66.7 |
| 2025-12-11T04:29:00 | -17.0430 | -34.9324 | 886.0 | -0.42 | -21.34 | 1 | 46.3 | 43.8 | -90.4 | 13 | 72.2 |
| 2025-12-11T04:29:00 | -17.0430 | -34.9324 | 918.0 | -8.62 | -32.97 | 1 | 45.0 | 46.1 | -88.5 | 7 | 38.9 |
| 2025-12-11T04:29:00 | -17.0430 | -34.9324 | 982.0 | -19.10 | -69.57 | 4 | 44.8 | 48.6 | -85.5 | 2 | 11.1 |
| 2025-12-11T04:30:00 | -17.0398 | -34.9307 | 54.0 | 26.83 | 0.38 | 1 | 180.3 | 180.3 | -76.0 | 15 | 83.3 |
| 2025-12-11T04:30:00 | -17.0398 | -34.9307 | 86.0 | 26.20 | -4.05 | 1 | 166.7 | 166.7 | -76.2 | 14 | 77.8 |
| 2025-12-11T04:30:00 | -17.0398 | -34.9307 | 118.0 | 15.61 | -28.36 | 1 | 154.1 | 154.1 | -77.8 | 15 | 83.3 |
| 2025-12-11T04:30:00 | -17.0398 | -34.9307 | 150.0 | 11.72 | -23.37 | 1 | 144.7 | 144.7 | -78.9 | 16 | 88.9 |
| 2025-12-11T04:30:00 | -17.0398 | -34.9307 | 182.0 | 3.66 | -12.87 | 1 | 139.1 | 139.1 | -78.9 | 16 | 88.9 |
| 2025-12-11T04:30:00 | -17.0398 | -34.9307 | 214.0 | 6.42 | 2.70 | 1 | 118.8 | 118.8 | -85.4 | 18 | 100.0 |
| 2025-12-11T04:30:00 | -17.0398 | -34.9307 | 246.0 | 9.04 | 1.75 | 1 | 109.8 | 109.8 | -87.3 | 18 | 100.0 |
| 2025-12-11T04:30:00 | -17.0398 | -34.9307 | 278.0 | 3.61 | -0.83 | 1 | 102.4 | 102.4 | -88.7 | 18 | 100.0 |
| 2025-12-11T04:30:00 | -17.0398 | -34.9307 | 310.0 | 1.06 | -5.18 | 1 | 86.3 | 86.3 | -93.9 | 17 | 94.4 |
| 2025-12-11T04:30:00 | -17.0398 | -34.9307 | 342.0 | 4.64 | -4.31 | 1 | 79.5 | 79.5 | -95.2 | 17 | 94.4 |
| 2025-12-11T04:30:00 | -17.0398 | -34.9307 | 374.0 | 4.77 | -3.59 | 1 | 71.4 | 71.4 | -97.2 | 18 | 100.0 |
| 2025-12-11T04:30:00 | -17.0398 | -34.9307 | 406.0 | 8.48 | -1.11 | 1 | 66.5 | 66.5 | -97.8 | 16 | 88.9 |
| 2025-12-11T04:30:00 | -17.0398 | -34.9307 | 438.0 | 5.66 | -1.68 | 1 | 62.5 | 62.5 | -98.2 | 17 | 94.4 |
| 2025-12-11T04:30:00 | -17.0398 | -34.9307 | 470.0 | -0.92 | -5.24 | 1 | 64.0 | 64.0 | -96.2 | 16 | 88.9 |
| 2025-12-11T04:30:00 | -17.0398 | -34.9307 | 502.0 | 7.82 | 3.85 | 1 | 70.6 | 70.6 | -92.2 | 17 | 94.4 |
| 2025-12-11T04:30:00 | -17.0398 | -34.9307 | 534.0 | 9.30 | 2.26 | 1 | 82.5 | 82.5 | -85.9 | 18 | 100.0 |
| 2025-12-11T04:30:00 | -17.0398 | -34.9307 | 566.0 | 11.68 | -5.90 | 1 | 82.4 | 82.4 | -84.7 | 17 | 94.4 |
| 2025-12-11T04:30:00 | -17.0398 | -34.9307 | 598.0 | 13.23 | -1.78 | 1 | 74.1 | 74.1 | -87.1 | 18 | 100.0 |
| 2025-12-11T04:30:00 | -17.0398 | -34.9307 | 630.0 | 8.18 | 1.31 | 1 | 64.4 | 64.4 | -90.0 | 18 | 100.0 |
| 2025-12-11T04:30:00 | -17.0398 | -34.9307 | 662.0 | 10.01 | 4.40 | 1 | 60.3 | 60.2 | -90.7 | 16 | 88.9 |
| 2025-12-11T04:30:00 | -17.0398 | -34.9307 | 694.0 | 6.18 | -8.83 | 1 | 59.2 | 57.1 | -91.0 | 14 | 77.8 |
| 2025-12-11T04:30:00 | -17.0398 | -34.9307 | 726.0 | 13.34 | -12.33 | 1 | 53.8 | 52.1 | -92.0 | 13 | 72.2 |
| 2025-12-11T04:30:00 | -17.0398 | -34.9307 | 758.0 | 10.22 | -11.33 | 1 | 52.7 | 50.6 | -91.6 | 14 | 77.8 |
| 2025-12-11T04:30:00 | -17.0398 | -34.9307 | 790.0 | 7.74 | 6.27 | 1 | 49.9 | 47.6 | -91.8 | 14 | 77.8 |
| 2025-12-11T04:30:00 | -17.0398 | -34.9307 | 822.0 | 11.62 | -5.82 | 1 | 49.0 | 47.1 | -91.1 | 14 | 77.8 |
| 2025-12-11T04:30:00 | -17.0398 | -34.9307 | 854.0 | 7.86 | -1.28 | 1 | 48.6 | 47.9 | -89.7 | 11 | 61.1 |
| 2025-12-11T04:30:00 | -17.0398 | -34.9307 | 886.0 | 3.83 | 1.66 | 1 | 49.8 | 45.4 | -89.8 | 10 | 55.6 |
| 2025-12-11T04:30:00 | -17.0398 | -34.9307 | 918.0 | 11.76 | -14.94 | 1 | 49.7 | 42.5 | -90.0 | 5 | 27.8 |
| 2025-12-11T04:30:00 | -17.0398 | -34.9307 | 950.0 | -11.83 | -65.56 | 4 | 47.7 | 35.0 | -92.4 | 1 | 5.6 |
| 2025-12-11T04:30:00 | -17.0398 | -34.9307 | 982.0 | 7.40 | -34.32 | 4 | 46.6 | 34.9 | -91.5 | 2 | 11.1 |
| 2025-12-11T04:31:00 | -17.0366 | -34.9290 | 54.0 | 11.33 | -16.10 | 1 | 178.3 | 178.3 | -76.9 | 16 | 88.9 |
| 2025-12-11T04:31:00 | -17.0366 | -34.9290 | 86.0 | 12.75 | -27.93 | 1 | 166.7 | 166.7 | -76.2 | 13 | 72.2 |
| 2025-12-11T04:31:00 | -17.0366 | -34.9290 | 118.0 | 16.03 | -33.90 | 1 | 153.0 | 153.0 | -78.2 | 16 | 88.9 |
| 2025-12-11T04:31:00 | -17.0366 | -34.9290 | 150.0 | 9.77 | -23.86 | 1 | 144.5 | 144.5 | -79.0 | 15 | 83.3 |
| 2025-12-11T04:31:00 | -17.0366 | -34.9290 | 182.0 | 5.90 | -15.56 | 1 | 136.5 | 135.6 | -80.4 | 16 | 88.9 |
| 2025-12-11T04:31:00 | -17.0366 | -34.9290 | 214.0 | -2.16 | -21.60 | 1 | 120.2 | 120.2 | -84.8 | 17 | 94.4 |
| 2025-12-11T04:31:00 | -17.0366 | -34.9290 | 246.0 | -5.30 | -7.89 | 1 | 111.7 | 111.7 | -86.5 | 17 | 94.4 |
| 2025-12-11T04:31:00 | -17.0366 | -34.9290 | 278.0 | -10.87 | -6.48 | 1 | 105.4 | 105.4 | -87.4 | 18 | 100.0 |
| 2025-12-11T04:31:00 | -17.0366 | -34.9290 | 310.0 | -11.71 | -9.11 | 1 | 87.3 | 87.3 | -93.4 | 18 | 100.0 |
| 2025-12-11T04:31:00 | -17.0366 | -34.9290 | 342.0 | -4.06 | -1.98 | 1 | 75.7 | 75.7 | -96.8 | 17 | 94.4 |
| 2025-12-11T04:31:00 | -17.0366 | -34.9290 | 374.0 | -2.71 | 0.29 | 1 | 71.9 | 71.9 | -97.0 | 18 | 100.0 |
| 2025-12-11T04:31:00 | -17.0366 | -34.9290 | 406.0 | 6.07 | -15.68 | 1 | 68.4 | 68.4 | -97.0 | 18 | 100.0 |
| 2025-12-11T04:31:00 | -17.0366 | -34.9290 | 438.0 | 0.21 | -12.85 | 1 | 60.6 | 60.6 | -99.0 | 18 | 100.0 |
| 2025-12-11T04:31:00 | -17.0366 | -34.9290 | 470.0 | -2.33 | -18.43 | 1 | 64.6 | 64.6 | -96.0 | 16 | 88.9 |
| 2025-12-11T04:31:00 | -17.0366 | -34.9290 | 502.0 | -9.07 | -8.70 | 1 | 71.1 | 71.1 | -92.0 | 17 | 94.4 |
| 2025-12-11T04:31:00 | -17.0366 | -34.9290 | 534.0 | 6.21 | -5.62 | 1 | 78.8 | 78.8 | -87.5 | 18 | 100.0 |
| 2025-12-11T04:31:00 | -17.0366 | -34.9290 | 566.0 | 7.36 | -5.93 | 1 | 83.9 | 83.9 | -84.1 | 18 | 100.0 |
| 2025-12-11T04:31:00 | -17.0366 | -34.9290 | 598.0 | 0.87 | -11.64 | 1 | 74.2 | 74.2 | -87.0 | 18 | 100.0 |
| 2025-12-11T04:31:00 | -17.0366 | -34.9290 | 630.0 | -11.71 | -17.48 | 1 | 62.3 | 62.3 | -90.9 | 17 | 94.4 |
| 2025-12-11T04:31:00 | -17.0366 | -34.9290 | 662.0 | 0.90 | -17.34 | 1 | 60.6 | 60.6 | -90.5 | 18 | 100.0 |
| 2025-12-11T04:31:00 | -17.0366 | -34.9290 | 694.0 | -6.07 | -17.38 | 1 | 57.6 | 57.1 | -90.9 | 17 | 94.4 |
| 2025-12-11T04:31:00 | -17.0366 | -34.9290 | 726.0 | -5.40 | -20.16 | 1 | 55.3 | 54.6 | -90.9 | 17 | 94.4 |
| 2025-12-11T04:31:00 | -17.0366 | -34.9290 | 758.0 | 7.87 | -13.73 | 1 | 54.1 | 53.7 | -90.2 | 16 | 88.9 |
| 2025-12-11T04:31:00 | -17.0366 | -34.9290 | 790.0 | 1.48 | -14.80 | 1 | 50.3 | 49.5 | -91.0 | 15 | 83.3 |
| 2025-12-11T04:31:00 | -17.0366 | -34.9290 | 822.0 | 5.83 | -20.92 | 1 | 48.0 | 47.1 | -91.0 | 15 | 83.3 |
| 2025-12-11T04:31:00 | -17.0366 | -34.9290 | 854.0 | -1.78 | -16.93 | 1 | 47.6 | 45.4 | -90.8 | 15 | 83.3 |
| 2025-12-11T04:31:00 | -17.0366 | -34.9290 | 886.0 | 0.02 | -25.14 | 1 | 48.8 | 46.1 | -89.5 | 9 | 50.0 |
| 2025-12-11T04:31:00 | -17.0366 | -34.9290 | 918.0 | -2.44 | -29.72 | 4 | 46.7 | 40.6 | -90.9 | 3 | 16.7 |
| 2025-12-11T04:31:00 | -17.0366 | -34.9290 | 950.0 | -29.08 | -5.46 | 4 | 46.7 | 44.0 | -88.4 | 1 | 5.6 |
| 2025-12-11T04:32:00 | -17.0334 | -34.9272 | 54.0 | 3.69 | -28.39 | 1 | 180.5 | 180.5 | -75.9 | 16 | 88.9 |
| 2025-12-11T04:32:00 | -17.0334 | -34.9272 | 86.0 | 19.17 | -32.21 | 1 | 166.4 | 166.4 | -76.3 | 16 | 88.9 |
| 2025-12-11T04:32:00 | -17.0334 | -34.9272 | 118.0 | 10.22 | -42.79 | 1 | 151.3 | 151.3 | -79.0 | 13 | 72.2 |
| 2025-12-11T04:32:00 | -17.0334 | -34.9272 | 150.0 | 10.60 | -18.68 | 1 | 142.3 | 142.3 | -79.9 | 16 | 88.9 |
| 2025-12-11T04:32:00 | -17.0334 | -34.9272 | 182.0 | 4.20 | -14.01 | 1 | 138.3 | 138.3 | -79.2 | 18 | 100.0 |
| 2025-12-11T04:32:00 | -17.0334 | -34.9272 | 214.0 | -1.68 | -19.71 | 1 | 117.6 | 117.6 | -85.9 | 18 | 100.0 |
| 2025-12-11T04:32:00 | -17.0334 | -34.9272 | 246.0 | 11.11 | -13.42 | 1 | 113.8 | 113.8 | -85.6 | 17 | 94.4 |
| 2025-12-11T04:32:00 | -17.0334 | -34.9272 | 278.0 | -1.84 | -15.06 | 1 | 107.3 | 107.3 | -86.6 | 18 | 100.0 |
| 2025-12-11T04:32:00 | -17.0334 | -34.9272 | 310.0 | -4.86 | -15.27 | 1 | 86.7 | 86.7 | -93.7 | 17 | 94.4 |
| 2025-12-11T04:32:00 | -17.0334 | -34.9272 | 342.0 | -4.91 | -18.01 | 1 | 74.6 | 74.6 | -97.3 | 18 | 100.0 |
| 2025-12-11T04:32:00 | -17.0334 | -34.9272 | 374.0 | -14.88 | -8.39 | 1 | 72.0 | 72.0 | -96.9 | 18 | 100.0 |
| 2025-12-11T04:32:00 | -17.0334 | -34.9272 | 406.0 | -5.11 | -10.78 | 1 | 70.1 | 69.6 | -96.5 | 16 | 88.9 |
| 2025-12-11T04:32:00 | -17.0334 | -34.9272 | 438.0 | 1.74 | -1.17 | 1 | 61.4 | 61.1 | -98.8 | 16 | 88.9 |
| 2025-12-11T04:32:00 | -17.0334 | -34.9272 | 470.0 | 1.02 | -6.51 | 1 | 64.0 | 64.0 | -96.2 | 17 | 94.4 |
| 2025-12-11T04:32:00 | -17.0334 | -34.9272 | 502.0 | 6.61 | -8.37 | 1 | 73.5 | 73.5 | -90.9 | 18 | 100.0 |
| 2025-12-11T04:32:00 | -17.0334 | -34.9272 | 534.0 | 14.00 | 0.91 | 1 | 76.5 | 75.8 | -88.7 | 16 | 88.9 |
| 2025-12-11T04:32:00 | -17.0334 | -34.9272 | 566.0 | 15.41 | -6.77 | 1 | 82.8 | 82.3 | -84.7 | 17 | 94.4 |
| 2025-12-11T04:32:00 | -17.0334 | -34.9272 | 598.0 | 1.84 | -15.34 | 1 | 73.5 | 73.5 | -87.3 | 17 | 94.4 |
| 2025-12-11T04:32:00 | -17.0334 | -34.9272 | 630.0 | 1.93 | -4.11 | 1 | 61.7 | 61.7 | -91.2 | 17 | 94.4 |
| 2025-12-11T04:32:00 | -17.0334 | -34.9272 | 662.0 | 0.71 | -8.31 | 1 | 60.7 | 60.7 | -90.5 | 17 | 94.4 |
| 2025-12-11T04:32:00 | -17.0334 | -34.9272 | 694.0 | -4.74 | -15.56 | 1 | 59.5 | 59.5 | -89.9 | 18 | 100.0 |
| 2025-12-11T04:32:00 | -17.0334 | -34.9272 | 726.0 | 0.57 | -23.00 | 1 | 53.9 | 53.3 | -91.5 | 16 | 88.9 |
| 2025-12-11T04:32:00 | -17.0334 | -34.9272 | 758.0 | 4.96 | -11.56 | 1 | 49.4 | 48.4 | -92.5 | 17 | 94.4 |
| 2025-12-11T04:32:00 | -17.0334 | -34.9272 | 790.0 | 3.39 | -11.85 | 1 | 48.5 | 48.5 | -91.5 | 18 | 100.0 |
| 2025-12-11T04:32:00 | -17.0334 | -34.9272 | 822.0 | 12.48 | -19.13 | 1 | 45.8 | 45.4 | -91.8 | 17 | 94.4 |
| 2025-12-11T04:32:00 | -17.0334 | -34.9272 | 854.0 | 5.87 | -14.57 | 1 | 45.8 | 43.5 | -91.6 | 14 | 77.8 |
| 2025-12-11T04:32:00 | -17.0334 | -34.9272 | 886.0 | 4.89 | -14.33 | 1 | 46.2 | 42.5 | -91.0 | 11 | 61.1 |
| 2025-12-11T04:32:00 | -17.0334 | -34.9272 | 918.0 | 4.62 | -47.26 | 1 | 44.5 | 39.5 | -91.4 | 5 | 27.8 |
| 2025-12-11T04:32:00 | -17.0334 | -34.9272 | 950.0 | -16.31 | -24.99 | 4 | 44.6 | 45.4 | -87.9 | 1 | 5.6 |
| 2025-12-11T04:33:00 | -17.0302 | -34.9255 | 54.0 | 14.89 | -19.78 | 1 | 179.2 | 179.2 | -76.5 | 15 | 83.3 |
| 2025-12-11T04:33:00 | -17.0302 | -34.9255 | 86.0 | 15.16 | -17.78 | 1 | 165.9 | 165.9 | -76.5 | 16 | 88.9 |
| 2025-12-11T04:33:00 | -17.0302 | -34.9255 | 118.0 | 8.71 | -25.74 | 1 | 149.6 | 149.6 | -79.7 | 17 | 94.4 |
| 2025-12-11T04:33:00 | -17.0302 | -34.9255 | 150.0 | 6.92 | -27.75 | 1 | 140.3 | 140.3 | -80.8 | 15 | 83.3 |
| 2025-12-11T04:33:00 | -17.0302 | -34.9255 | 182.0 | -0.51 | -14.10 | 1 | 137.6 | 137.6 | -79.5 | 18 | 100.0 |
| 2025-12-11T04:33:00 | -17.0302 | -34.9255 | 214.0 | -10.41 | -18.17 | 1 | 120.1 | 120.1 | -84.8 | 18 | 100.0 |
| 2025-12-11T04:33:00 | -17.0302 | -34.9255 | 246.0 | 3.49 | -11.69 | 1 | 112.3 | 112.3 | -86.2 | 18 | 100.0 |
| 2025-12-11T04:33:00 | -17.0302 | -34.9255 | 278.0 | -5.96 | -14.16 | 1 | 106.6 | 106.6 | -86.9 | 17 | 94.4 |
| 2025-12-11T04:33:00 | -17.0302 | -34.9255 | 310.0 | 1.48 | -11.36 | 1 | 84.7 | 84.7 | -94.5 | 16 | 88.9 |
| 2025-12-11T04:33:00 | -17.0302 | -34.9255 | 342.0 | 1.75 | -5.51 | 1 | 76.8 | 76.8 | -96.3 | 18 | 100.0 |
| 2025-12-11T04:33:00 | -17.0302 | -34.9255 | 374.0 | -4.36 | -5.98 | 1 | 72.6 | 72.6 | -96.6 | 18 | 100.0 |
| 2025-12-11T04:33:00 | -17.0302 | -34.9255 | 406.0 | 5.93 | -15.00 | 1 | 68.6 | 68.6 | -96.9 | 17 | 94.4 |
| 2025-12-11T04:33:00 | -17.0302 | -34.9255 | 438.0 | -5.91 | -8.73 | 1 | 62.1 | 60.2 | -99.2 | 16 | 88.9 |
| 2025-12-11T04:33:00 | -17.0302 | -34.9255 | 470.0 | 5.74 | -6.42 | 1 | 67.5 | 67.5 | -94.7 | 17 | 94.4 |
| 2025-12-11T04:33:00 | -17.0302 | -34.9255 | 502.0 | -2.70 | -7.05 | 1 | 71.5 | 71.5 | -91.8 | 18 | 100.0 |
| 2025-12-11T04:33:00 | -17.0302 | -34.9255 | 534.0 | 5.28 | -16.05 | 1 | 78.2 | 78.2 | -87.7 | 18 | 100.0 |
| 2025-12-11T04:33:00 | -17.0302 | -34.9255 | 566.0 | 6.92 | -11.87 | 1 | 79.2 | 79.2 | -86.1 | 18 | 100.0 |
| 2025-12-11T04:33:00 | -17.0302 | -34.9255 | 598.0 | 6.45 | -15.91 | 1 | 75.2 | 75.2 | -86.6 | 18 | 100.0 |
| 2025-12-11T04:33:00 | -17.0302 | -34.9255 | 630.0 | 1.14 | -9.68 | 1 | 62.8 | 62.8 | -90.7 | 17 | 94.4 |
| 2025-12-11T04:33:00 | -17.0302 | -34.9255 | 662.0 | -4.36 | -15.58 | 1 | 61.5 | 60.0 | -90.8 | 15 | 83.3 |
| 2025-12-11T04:33:00 | -17.0302 | -34.9255 | 694.0 | 2.40 | -13.77 | 1 | 61.4 | 59.8 | -89.8 | 16 | 88.9 |
| 2025-12-11T04:33:00 | -17.0302 | -34.9255 | 726.0 | -2.80 | -5.86 | 1 | 54.3 | 51.9 | -92.1 | 14 | 77.8 |
| 2025-12-11T04:33:00 | -17.0302 | -34.9255 | 758.0 | 3.57 | -13.51 | 1 | 51.7 | 51.0 | -91.4 | 15 | 83.3 |
| 2025-12-11T04:33:00 | -17.0302 | -34.9255 | 790.0 | -3.70 | -11.58 | 1 | 49.6 | 49.1 | -91.2 | 16 | 88.9 |
| 2025-12-11T04:33:00 | -17.0302 | -34.9255 | 822.0 | -4.89 | -24.03 | 1 | 50.1 | 49.9 | -89.8 | 14 | 77.8 |
| 2025-12-11T04:33:00 | -17.0302 | -34.9255 | 854.0 | 0.21 | -19.43 | 1 | 48.5 | 46.5 | -90.3 | 8 | 44.4 |
| 2025-12-11T04:33:00 | -17.0302 | -34.9255 | 886.0 | 3.47 | -8.70 | 1 | 49.6 | 45.3 | -89.8 | 8 | 44.4 |
| 2025-12-11T04:33:00 | -17.0302 | -34.9255 | 918.0 | -16.46 | -17.50 | 4 | 48.8 | 42.4 | -90.1 | 2 | 11.1 |
| 2025-12-11T04:33:00 | -17.0302 | -34.9255 | 950.0 | 11.57 | -14.17 | 4 | 46.1 | 40.0 | -90.2 | 2 | 11.1 |
| 2025-12-11T04:33:00 | -17.0302 | -34.9255 | 982.0 | 38.15 | -50.24 | 4 | 44.9 | 41.8 | -88.5 | 1 | 5.6 |
| 2025-12-11T04:34:00 | -17.0270 | -34.9238 | 54.0 | 5.34 | -7.80 | 1 | 181.0 | 181.0 | -75.7 | 17 | 94.4 |
| 2025-12-11T04:34:00 | -17.0270 | -34.9238 | 86.0 | 3.23 | -31.80 | 1 | 165.3 | 165.3 | -76.8 | 17 | 94.4 |
| 2025-12-11T04:34:00 | -17.0270 | -34.9238 | 118.0 | -8.40 | -29.97 | 1 | 147.5 | 147.2 | -80.7 | 13 | 72.2 |
| 2025-12-11T04:34:00 | -17.0270 | -34.9238 | 150.0 | 17.39 | -21.84 | 1 | 137.5 | 137.3 | -82.0 | 15 | 83.3 |
| 2025-12-11T04:34:00 | -17.0270 | -34.9238 | 182.0 | -0.63 | -10.29 | 1 | 135.4 | 135.4 | -80.5 | 17 | 94.4 |
| 2025-12-11T04:34:00 | -17.0270 | -34.9238 | 214.0 | -1.82 | -7.55 | 1 | 119.1 | 119.1 | -85.2 | 17 | 94.4 |
| 2025-12-11T04:34:00 | -17.0270 | -34.9238 | 246.0 | 6.56 | -8.34 | 1 | 113.0 | 113.0 | -85.9 | 17 | 94.4 |
| 2025-12-11T04:34:00 | -17.0270 | -34.9238 | 278.0 | -8.28 | -14.67 | 1 | 106.1 | 106.1 | -87.1 | 18 | 100.0 |
| 2025-12-11T04:34:00 | -17.0270 | -34.9238 | 310.0 | -9.44 | -12.48 | 1 | 85.5 | 84.8 | -94.5 | 16 | 88.9 |
| 2025-12-11T04:34:00 | -17.0270 | -34.9238 | 342.0 | -7.30 | -6.74 | 1 | 75.8 | 75.3 | -97.0 | 16 | 88.9 |
| 2025-12-11T04:34:00 | -17.0270 | -34.9238 | 374.0 | -0.62 | -4.85 | 1 | 72.6 | 72.6 | -96.7 | 16 | 88.9 |
| 2025-12-11T04:34:00 | -17.0270 | -34.9238 | 406.0 | -3.62 | -2.26 | 1 | 67.5 | 67.5 | -97.4 | 18 | 100.0 |
| 2025-12-11T04:34:00 | -17.0270 | -34.9238 | 438.0 | 4.96 | -5.54 | 1 | 62.2 | 62.2 | -98.3 | 18 | 100.0 |
| 2025-12-11T04:34:00 | -17.0270 | -34.9238 | 470.0 | 10.51 | -6.90 | 1 | 66.4 | 66.4 | -95.2 | 18 | 100.0 |
| 2025-12-11T04:34:00 | -17.0270 | -34.9238 | 502.0 | 7.45 | 2.09 | 1 | 71.8 | 71.8 | -91.6 | 17 | 94.4 |
| 2025-12-11T04:34:00 | -17.0270 | -34.9238 | 534.0 | 1.65 | -10.84 | 1 | 74.0 | 74.0 | -89.5 | 18 | 100.0 |
| 2025-12-11T04:34:00 | -17.0270 | -34.9238 | 566.0 | 8.28 | -6.37 | 1 | 79.0 | 79.0 | -86.2 | 18 | 100.0 |
| 2025-12-11T04:34:00 | -17.0270 | -34.9238 | 598.0 | -1.26 | -8.29 | 1 | 73.8 | 73.8 | -87.2 | 17 | 94.4 |
| 2025-12-11T04:34:00 | -17.0270 | -34.9238 | 630.0 | -4.14 | -3.24 | 1 | 64.3 | 62.7 | -90.8 | 16 | 88.9 |
| 2025-12-11T04:34:00 | -17.0270 | -34.9238 | 662.0 | 4.39 | -10.22 | 1 | 61.9 | 59.1 | -91.2 | 14 | 77.8 |
| 2025-12-11T04:34:00 | -17.0270 | -34.9238 | 694.0 | 0.52 | -21.91 | 1 | 59.6 | 59.5 | -89.9 | 17 | 94.4 |
| 2025-12-11T04:34:00 | -17.0270 | -34.9238 | 726.0 | -7.10 | -12.79 | 1 | 53.2 | 53.0 | -91.6 | 16 | 88.9 |
| 2025-12-11T04:34:00 | -17.0270 | -34.9238 | 758.0 | -4.32 | -4.98 | 1 | 51.5 | 51.0 | -91.4 | 17 | 94.4 |
| 2025-12-11T04:34:00 | -17.0270 | -34.9238 | 790.0 | 7.54 | -14.67 | 1 | 51.3 | 49.8 | -90.9 | 16 | 88.9 |
| 2025-12-11T04:34:00 | -17.0270 | -34.9238 | 822.0 | 6.77 | -20.13 | 1 | 53.3 | 49.8 | -89.9 | 13 | 72.2 |
| 2025-12-11T04:34:00 | -17.0270 | -34.9238 | 854.0 | -0.97 | -19.09 | 1 | 49.3 | 47.4 | -89.9 | 10 | 55.6 |
| 2025-12-11T04:34:00 | -17.0270 | -34.9238 | 886.0 | 1.04 | -8.25 | 1 | 46.2 | 45.0 | -90.0 | 6 | 33.3 |
| 2025-12-11T04:34:00 | -17.0270 | -34.9238 | 918.0 | -7.14 | -36.92 | 4 | 47.7 | 44.1 | -89.4 | 2 | 11.1 |
| 2025-12-11T04:34:00 | -17.0270 | -34.9238 | 982.0 | -32.21 | 1.71 | 4 | 50.2 | 36.2 | -90.9 | 1 | 5.6 |
| 2025-12-11T04:35:00 | -17.0237 | -34.9219 | 54.0 | 6.48 | -11.15 | 1 | 179.4 | 179.4 | -76.4 | 16 | 84.2 |
| 2025-12-11T04:35:00 | -17.0237 | -34.9219 | 86.0 | 13.42 | -20.73 | 1 | 165.0 | 165.0 | -76.9 | 18 | 94.7 |
| 2025-12-11T04:35:00 | -17.0237 | -34.9219 | 118.0 | 15.22 | -19.49 | 1 | 150.4 | 150.4 | -79.4 | 15 | 78.9 |
| 2025-12-11T04:35:00 | -17.0237 | -34.9219 | 150.0 | 7.00 | -26.52 | 1 | 137.7 | 137.7 | -81.9 | 15 | 78.9 |
| 2025-12-11T04:35:00 | -17.0237 | -34.9219 | 182.0 | -3.94 | -23.52 | 1 | 132.7 | 132.7 | -81.6 | 19 | 100.0 |
| 2025-12-11T04:35:00 | -17.0237 | -34.9219 | 214.0 | -1.58 | -15.17 | 1 | 116.5 | 116.5 | -86.4 | 17 | 89.5 |
| 2025-12-11T04:35:00 | -17.0237 | -34.9219 | 246.0 | 1.01 | -15.67 | 1 | 112.7 | 112.7 | -86.0 | 19 | 100.0 |
| 2025-12-11T04:35:00 | -17.0237 | -34.9219 | 278.0 | -9.72 | -16.14 | 1 | 106.2 | 106.2 | -87.0 | 17 | 89.5 |
| 2025-12-11T04:35:00 | -17.0237 | -34.9219 | 310.0 | -6.84 | -10.21 | 1 | 85.8 | 84.9 | -94.4 | 18 | 94.7 |
| 2025-12-11T04:35:00 | -17.0237 | -34.9219 | 342.0 | -5.43 | -1.94 | 1 | 75.6 | 74.8 | -97.2 | 18 | 94.7 |
| 2025-12-11T04:35:00 | -17.0237 | -34.9219 | 374.0 | -6.37 | -4.88 | 1 | 71.4 | 71.4 | -97.1 | 19 | 100.0 |
| 2025-12-11T04:35:00 | -17.0237 | -34.9219 | 406.0 | -6.83 | -14.42 | 1 | 67.1 | 67.1 | -97.6 | 19 | 100.0 |
| 2025-12-11T04:35:00 | -17.0237 | -34.9219 | 438.0 | 4.14 | -0.95 | 1 | 62.3 | 62.3 | -98.3 | 18 | 94.7 |
| 2025-12-11T04:35:00 | -17.0237 | -34.9219 | 470.0 | 6.98 | -0.42 | 1 | 63.4 | 63.4 | -96.5 | 19 | 100.0 |
| 2025-12-11T04:35:00 | -17.0237 | -34.9219 | 502.0 | 3.74 | -3.92 | 1 | 71.2 | 70.9 | -92.0 | 17 | 89.5 |
| 2025-12-11T04:35:00 | -17.0237 | -34.9219 | 534.0 | 4.60 | -11.04 | 1 | 75.3 | 74.7 | -89.2 | 17 | 89.5 |
| 2025-12-11T04:35:00 | -17.0237 | -34.9219 | 566.0 | 5.91 | -3.53 | 1 | 79.7 | 79.7 | -85.9 | 19 | 100.0 |
| 2025-12-11T04:35:00 | -17.0237 | -34.9219 | 598.0 | 4.40 | -19.13 | 1 | 73.1 | 73.1 | -87.5 | 18 | 94.7 |
| 2025-12-11T04:35:00 | -17.0237 | -34.9219 | 630.0 | -2.87 | -11.88 | 1 | 62.9 | 62.9 | -90.7 | 18 | 94.7 |
| 2025-12-11T04:35:00 | -17.0237 | -34.9219 | 662.0 | -3.61 | -3.45 | 1 | 60.4 | 60.4 | -90.6 | 19 | 100.0 |
| 2025-12-11T04:35:00 | -17.0237 | -34.9219 | 694.0 | -0.73 | -8.72 | 1 | 57.5 | 57.5 | -90.8 | 19 | 100.0 |
| 2025-12-11T04:35:00 | -17.0237 | -34.9219 | 726.0 | 4.91 | -14.56 | 1 | 52.2 | 51.2 | -92.4 | 16 | 84.2 |
| 2025-12-11T04:35:00 | -17.0237 | -34.9219 | 758.0 | 9.79 | -13.75 | 1 | 49.2 | 47.9 | -92.8 | 15 | 78.9 |
| 2025-12-11T04:35:00 | -17.0237 | -34.9219 | 790.0 | 3.57 | -12.12 | 1 | 54.1 | 50.6 | -90.5 | 12 | 63.2 |
| 2025-12-11T04:35:00 | -17.0237 | -34.9219 | 822.0 | 10.63 | -14.87 | 1 | 49.0 | 48.3 | -90.5 | 13 | 68.4 |
| 2025-12-11T04:35:00 | -17.0237 | -34.9219 | 854.0 | -1.77 | -20.10 | 1 | 48.0 | 46.6 | -90.2 | 11 | 57.9 |
| 2025-12-11T04:35:00 | -17.0237 | -34.9219 | 886.0 | -5.91 | -17.68 | 1 | 46.7 | 43.1 | -90.8 | 7 | 36.8 |
| 2025-12-11T04:35:00 | -17.0237 | -34.9219 | 950.0 | 7.33 | -20.74 | 4 | 45.3 | 44.2 | -88.3 | 3 | 15.8 |
| 2025-12-11T04:35:00 | -17.0237 | -34.9219 | 982.0 | 15.26 | -18.20 | 4 | 46.7 | 37.8 | -90.2 | 1 | 5.3 |
| 2025-12-11T04:36:00 | -17.0204 | -34.9202 | 54.0 | 24.70 | -24.79 | 1 | 178.6 | 178.6 | -76.8 | 16 | 88.9 |
| 2025-12-11T04:36:00 | -17.0204 | -34.9202 | 86.0 | 11.18 | -21.32 | 1 | 163.4 | 163.4 | -77.6 | 16 | 88.9 |
| 2025-12-11T04:36:00 | -17.0204 | -34.9202 | 118.0 | 1.87 | -21.46 | 1 | 149.5 | 149.5 | -79.8 | 16 | 88.9 |
| 2025-12-11T04:36:00 | -17.0204 | -34.9202 | 150.0 | 5.09 | -28.97 | 1 | 136.8 | 136.8 | -82.3 | 16 | 88.9 |
| 2025-12-11T04:36:00 | -17.0204 | -34.9202 | 182.0 | -0.24 | -18.01 | 1 | 130.9 | 130.9 | -82.4 | 18 | 100.0 |
| 2025-12-11T04:36:00 | -17.0204 | -34.9202 | 214.0 | -1.38 | -24.03 | 1 | 115.4 | 115.4 | -86.8 | 16 | 88.9 |
| 2025-12-11T04:36:00 | -17.0204 | -34.9202 | 246.0 | -9.81 | -18.20 | 1 | 111.9 | 111.9 | -86.4 | 17 | 94.4 |
| 2025-12-11T04:36:00 | -17.0204 | -34.9202 | 278.0 | -11.29 | -18.78 | 1 | 107.2 | 107.2 | -86.6 | 16 | 88.9 |
| 2025-12-11T04:36:00 | -17.0204 | -34.9202 | 310.0 | -8.97 | -16.16 | 1 | 84.6 | 84.6 | -94.6 | 16 | 88.9 |
| 2025-12-11T04:36:00 | -17.0204 | -34.9202 | 342.0 | -12.05 | -11.71 | 1 | 73.0 | 73.0 | -97.9 | 17 | 94.4 |
| 2025-12-11T04:36:00 | -17.0204 | -34.9202 | 374.0 | -12.16 | -7.51 | 1 | 72.6 | 72.6 | -96.7 | 17 | 94.4 |
| 2025-12-11T04:36:00 | -17.0204 | -34.9202 | 406.0 | 1.65 | -5.81 | 1 | 67.5 | 66.2 | -98.0 | 17 | 94.4 |
| 2025-12-11T04:36:00 | -17.0204 | -34.9202 | 438.0 | 2.06 | 2.35 | 1 | 62.2 | 61.8 | -98.5 | 17 | 94.4 |
| 2025-12-11T04:36:00 | -17.0204 | -34.9202 | 470.0 | 0.24 | -12.85 | 1 | 66.1 | 66.1 | -95.4 | 18 | 100.0 |
| 2025-12-11T04:36:00 | -17.0204 | -34.9202 | 502.0 | -5.43 | -5.93 | 1 | 72.1 | 72.1 | -91.5 | 18 | 100.0 |
| 2025-12-11T04:36:00 | -17.0204 | -34.9202 | 534.0 | -4.17 | -6.87 | 1 | 78.4 | 78.4 | -87.6 | 17 | 94.4 |
| 2025-12-11T04:36:00 | -17.0204 | -34.9202 | 566.0 | 4.17 | -12.98 | 1 | 77.5 | 77.5 | -86.8 | 17 | 94.4 |
| 2025-12-11T04:36:00 | -17.0204 | -34.9202 | 598.0 | -0.70 | -8.14 | 1 | 74.4 | 74.4 | -86.9 | 18 | 100.0 |
| 2025-12-11T04:36:00 | -17.0204 | -34.9202 | 630.0 | -4.99 | -10.98 | 1 | 64.0 | 63.2 | -90.6 | 15 | 83.3 |
| 2025-12-11T04:36:00 | -17.0204 | -34.9202 | 662.0 | 4.39 | -14.90 | 1 | 62.7 | 62.0 | -90.0 | 15 | 83.3 |
| 2025-12-11T04:36:00 | -17.0204 | -34.9202 | 694.0 | -0.18 | -20.23 | 1 | 61.2 | 59.0 | -90.1 | 14 | 77.8 |
| 2025-12-11T04:36:00 | -17.0204 | -34.9202 | 726.0 | -3.84 | -10.24 | 1 | 56.4 | 53.2 | -91.5 | 11 | 61.1 |
| 2025-12-11T04:36:00 | -17.0204 | -34.9202 | 758.0 | 1.23 | -19.02 | 1 | 50.9 | 50.4 | -91.7 | 16 | 88.9 |
| 2025-12-11T04:36:00 | -17.0204 | -34.9202 | 790.0 | -1.35 | -10.75 | 1 | 50.2 | 49.1 | -91.2 | 15 | 83.3 |
| 2025-12-11T04:36:00 | -17.0204 | -34.9202 | 822.0 | -0.59 | -17.34 | 1 | 49.1 | 47.9 | -90.7 | 14 | 77.8 |
| 2025-12-11T04:36:00 | -17.0204 | -34.9202 | 854.0 | -11.61 | -9.11 | 1 | 44.8 | 44.2 | -91.3 | 13 | 72.2 |
| 2025-12-11T04:36:00 | -17.0204 | -34.9202 | 886.0 | -7.29 | -24.95 | 1 | 44.8 | 43.4 | -90.6 | 10 | 55.6 |
| 2025-12-11T04:36:00 | -17.0204 | -34.9202 | 918.0 | -8.41 | -25.80 | 1 | 45.1 | 43.0 | -89.8 | 6 | 33.3 |
| 2025-12-11T04:36:00 | -17.0204 | -34.9202 | 950.0 | -17.01 | 16.89 | 4 | 47.9 | 37.2 | -91.4 | 1 | 5.6 |
| 2025-12-11T04:36:00 | -17.0204 | -34.9202 | 982.0 | 19.82 | -28.66 | 4 | 45.2 | 45.2 | -87.0 | 1 | 5.6 |
| 2025-12-11T04:37:00 | -17.0173 | -34.9185 | 54.0 | -4.45 | -16.80 | 1 | 179.3 | 179.3 | -76.5 | 16 | 88.9 |
| 2025-12-11T04:37:00 | -17.0173 | -34.9185 | 86.0 | 8.53 | -20.06 | 1 | 161.7 | 161.7 | -78.3 | 16 | 88.9 |
| 2025-12-11T04:37:00 | -17.0173 | -34.9185 | 118.0 | -3.85 | -32.07 | 1 | 148.9 | 148.9 | -80.0 | 16 | 88.9 |
| 2025-12-11T04:37:00 | -17.0173 | -34.9185 | 150.0 | 5.26 | -25.25 | 1 | 133.4 | 133.4 | -83.7 | 16 | 88.9 |
| 2025-12-11T04:37:00 | -17.0173 | -34.9185 | 182.0 | 2.78 | -18.87 | 1 | 129.7 | 129.7 | -82.9 | 17 | 94.4 |
| 2025-12-11T04:37:00 | -17.0173 | -34.9185 | 214.0 | -11.71 | -18.49 | 1 | 113.5 | 113.5 | -87.6 | 16 | 88.9 |
| 2025-12-11T04:37:00 | -17.0173 | -34.9185 | 246.0 | 1.43 | -13.24 | 1 | 114.3 | 114.3 | -85.4 | 17 | 94.4 |
| 2025-12-11T04:37:00 | -17.0173 | -34.9185 | 278.0 | -2.98 | -10.55 | 1 | 105.3 | 105.3 | -87.4 | 17 | 94.4 |
| 2025-12-11T04:37:00 | -17.0173 | -34.9185 | 310.0 | -5.16 | -12.47 | 1 | 83.2 | 83.0 | -95.3 | 17 | 94.4 |
| 2025-12-11T04:37:00 | -17.0173 | -34.9185 | 342.0 | -4.49 | -2.84 | 1 | 73.8 | 73.3 | -97.8 | 16 | 88.9 |
| 2025-12-11T04:37:00 | -17.0173 | -34.9185 | 374.0 | 0.31 | -5.68 | 1 | 71.6 | 71.5 | -97.1 | 16 | 88.9 |
| 2025-12-11T04:37:00 | -17.0173 | -34.9185 | 406.0 | -3.96 | -8.83 | 1 | 64.9 | 64.7 | -98.6 | 17 | 94.4 |
| 2025-12-11T04:37:00 | -17.0173 | -34.9185 | 438.0 | 0.46 | -4.57 | 1 | 63.8 | 63.0 | -98.0 | 16 | 88.9 |
| 2025-12-11T04:37:00 | -17.0173 | -34.9185 | 470.0 | 5.34 | -7.64 | 1 | 66.2 | 66.2 | -95.3 | 18 | 100.0 |
| 2025-12-11T04:37:00 | -17.0173 | -34.9185 | 502.0 | 3.80 | -0.60 | 1 | 72.9 | 72.9 | -91.2 | 17 | 94.4 |
| 2025-12-11T04:37:00 | -17.0173 | -34.9185 | 534.0 | 4.01 | -11.93 | 1 | 77.7 | 76.9 | -88.3 | 16 | 88.9 |
| 2025-12-11T04:37:00 | -17.0173 | -34.9185 | 566.0 | -0.68 | -3.66 | 1 | 80.1 | 80.1 | -85.7 | 17 | 94.4 |
| 2025-12-11T04:37:00 | -17.0173 | -34.9185 | 598.0 | -1.43 | -10.14 | 1 | 76.5 | 76.5 | -86.0 | 18 | 100.0 |
| 2025-12-11T04:37:00 | -17.0173 | -34.9185 | 630.0 | -5.73 | -12.07 | 1 | 64.3 | 64.3 | -90.1 | 17 | 94.4 |
| 2025-12-11T04:37:00 | -17.0173 | -34.9185 | 662.0 | 5.90 | 1.62 | 1 | 62.3 | 62.3 | -89.8 | 16 | 88.9 |
| 2025-12-11T04:37:00 | -17.0173 | -34.9185 | 694.0 | -0.15 | -14.23 | 1 | 57.0 | 57.0 | -91.0 | 18 | 100.0 |
| 2025-12-11T04:37:00 | -17.0173 | -34.9185 | 726.0 | 1.32 | -14.67 | 1 | 52.7 | 52.7 | -91.7 | 18 | 100.0 |
| 2025-12-11T04:37:00 | -17.0173 | -34.9185 | 758.0 | -4.88 | -15.44 | 1 | 51.9 | 49.2 | -92.2 | 15 | 83.3 |
| 2025-12-11T04:37:00 | -17.0173 | -34.9185 | 790.0 | 5.31 | -10.60 | 1 | 50.7 | 47.9 | -91.7 | 12 | 66.7 |
| 2025-12-11T04:37:00 | -17.0173 | -34.9185 | 822.0 | 0.80 | -15.37 | 1 | 48.9 | 47.1 | -91.0 | 15 | 83.3 |
| 2025-12-11T04:37:00 | -17.0173 | -34.9185 | 854.0 | -3.17 | -20.98 | 1 | 48.7 | 46.5 | -90.3 | 13 | 72.2 |
| 2025-12-11T04:37:00 | -17.0173 | -34.9185 | 886.0 | -19.13 | -15.89 | 1 | 44.1 | 41.8 | -91.3 | 7 | 38.9 |
| 2025-12-11T04:37:00 | -17.0173 | -34.9185 | 918.0 | -10.59 | -8.33 | 4 | 47.9 | 49.2 | -87.1 | 1 | 5.6 |
| 2025-12-11T04:37:00 | -17.0173 | -34.9185 | 950.0 | -36.27 | -45.03 | 4 | 46.0 | 40.0 | -90.2 | 1 | 5.6 |
| 2025-12-11T04:38:00 | -17.0140 | -34.9167 | 54.0 | 21.97 | -19.50 | 1 | 180.1 | 180.1 | -76.1 | 16 | 88.9 |
| 2025-12-11T04:38:00 | -17.0140 | -34.9167 | 86.0 | 9.56 | -13.10 | 1 | 161.6 | 161.6 | -78.3 | 16 | 88.9 |
| 2025-12-11T04:38:00 | -17.0140 | -34.9167 | 118.0 | 7.34 | -12.65 | 1 | 146.2 | 146.2 | -81.2 | 16 | 88.9 |
| 2025-12-11T04:38:00 | -17.0140 | -34.9167 | 150.0 | 17.48 | -25.02 | 1 | 133.3 | 133.3 | -83.7 | 18 | 100.0 |
| 2025-12-11T04:38:00 | -17.0140 | -34.9167 | 182.0 | 5.94 | -17.68 | 1 | 129.4 | 129.4 | -83.0 | 18 | 100.0 |
| 2025-12-11T04:38:00 | -17.0140 | -34.9167 | 214.0 | -6.26 | -25.99 | 1 | 112.5 | 112.5 | -88.1 | 17 | 94.4 |
| 2025-12-11T04:38:00 | -17.0140 | -34.9167 | 246.0 | 1.90 | -20.01 | 1 | 112.3 | 112.3 | -86.2 | 18 | 100.0 |
| 2025-12-11T04:38:00 | -17.0140 | -34.9167 | 278.0 | -6.37 | -23.84 | 1 | 107.3 | 107.3 | -86.6 | 18 | 100.0 |
| 2025-12-11T04:38:00 | -17.0140 | -34.9167 | 310.0 | 7.71 | -22.59 | 1 | 79.5 | 79.5 | -96.7 | 17 | 94.4 |
| 2025-12-11T04:38:00 | -17.0140 | -34.9167 | 342.0 | 1.09 | -8.95 | 1 | 70.7 | 70.7 | -98.9 | 18 | 100.0 |
| 2025-12-11T04:38:00 | -17.0140 | -34.9167 | 374.0 | -3.28 | -4.90 | 1 | 73.1 | 73.1 | -96.4 | 16 | 88.9 |
| 2025-12-11T04:38:00 | -17.0140 | -34.9167 | 406.0 | 1.82 | -10.39 | 1 | 66.4 | 66.4 | -97.9 | 17 | 94.4 |
| 2025-12-11T04:38:00 | -17.0140 | -34.9167 | 438.0 | 4.27 | -5.35 | 1 | 62.3 | 62.3 | -98.2 | 18 | 100.0 |
| 2025-12-11T04:38:00 | -17.0140 | -34.9167 | 470.0 | 5.41 | -10.09 | 1 | 65.7 | 65.7 | -95.5 | 17 | 94.4 |
| 2025-12-11T04:38:00 | -17.0140 | -34.9167 | 502.0 | 0.84 | -1.30 | 1 | 71.4 | 71.4 | -91.8 | 17 | 94.4 |
| 2025-12-11T04:38:00 | -17.0140 | -34.9167 | 534.0 | -9.26 | -7.93 | 1 | 80.2 | 78.9 | -87.4 | 15 | 83.3 |
| 2025-12-11T04:38:00 | -17.0140 | -34.9167 | 566.0 | 6.88 | -3.55 | 1 | 79.8 | 79.5 | -86.0 | 17 | 94.4 |
| 2025-12-11T04:38:00 | -17.0140 | -34.9167 | 598.0 | 4.20 | -21.41 | 1 | 74.5 | 74.5 | -86.9 | 18 | 100.0 |
| 2025-12-11T04:38:00 | -17.0140 | -34.9167 | 630.0 | 4.01 | -20.54 | 1 | 63.8 | 63.8 | -90.3 | 18 | 100.0 |
| 2025-12-11T04:38:00 | -17.0140 | -34.9167 | 662.0 | -5.40 | -6.23 | 1 | 61.4 | 61.4 | -90.2 | 18 | 100.0 |
| 2025-12-11T04:38:00 | -17.0140 | -34.9167 | 694.0 | 1.73 | -11.34 | 1 | 58.6 | 58.6 | -90.3 | 18 | 100.0 |
| 2025-12-11T04:38:00 | -17.0140 | -34.9167 | 726.0 | 0.69 | -17.07 | 1 | 57.1 | 56.2 | -90.3 | 16 | 88.9 |
| 2025-12-11T04:38:00 | -17.0140 | -34.9167 | 758.0 | -8.82 | -19.63 | 1 | 52.1 | 49.2 | -92.2 | 14 | 77.8 |
| 2025-12-11T04:38:00 | -17.0140 | -34.9167 | 790.0 | 2.42 | -4.26 | 1 | 53.5 | 52.2 | -89.9 | 15 | 83.3 |
| 2025-12-11T04:38:00 | -17.0140 | -34.9167 | 822.0 | 1.54 | -18.42 | 1 | 50.3 | 49.9 | -89.8 | 16 | 88.9 |
| 2025-12-11T04:38:00 | -17.0140 | -34.9167 | 854.0 | -1.56 | -27.77 | 1 | 50.2 | 46.6 | -90.2 | 12 | 66.7 |
| 2025-12-11T04:38:00 | -17.0140 | -34.9167 | 886.0 | -18.02 | -20.99 | 1 | 50.9 | 45.8 | -89.6 | 6 | 33.3 |
| 2025-12-11T04:38:00 | -17.0140 | -34.9167 | 918.0 | -10.74 | 9.45 | 4 | 47.6 | 40.0 | -91.1 | 1 | 5.6 |
| 2025-12-11T04:39:00 | -17.0109 | -34.9150 | 54.0 | 12.15 | -11.44 | 1 | 178.1 | 178.1 | -77.0 | 16 | 88.9 |
| 2025-12-11T04:39:00 | -17.0109 | -34.9150 | 86.0 | 12.54 | -12.77 | 1 | 160.9 | 160.9 | -78.6 | 18 | 100.0 |
| 2025-12-11T04:39:00 | -17.0109 | -34.9150 | 118.0 | 1.97 | -26.24 | 1 | 145.5 | 145.5 | -81.5 | 17 | 94.4 |
| 2025-12-11T04:39:00 | -17.0109 | -34.9150 | 150.0 | 5.38 | -22.76 | 1 | 133.3 | 132.9 | -83.9 | 17 | 94.4 |
| 2025-12-11T04:39:00 | -17.0109 | -34.9150 | 182.0 | 3.00 | -19.10 | 1 | 127.3 | 126.9 | -84.0 | 16 | 88.9 |
| 2025-12-11T04:39:00 | -17.0109 | -34.9150 | 214.0 | 4.18 | -10.76 | 1 | 115.1 | 115.1 | -87.0 | 18 | 100.0 |
| 2025-12-11T04:39:00 | -17.0109 | -34.9150 | 246.0 | 7.40 | -12.20 | 1 | 112.3 | 112.3 | -86.2 | 17 | 94.4 |
| 2025-12-11T04:39:00 | -17.0109 | -34.9150 | 278.0 | -4.15 | -24.14 | 1 | 105.6 | 105.2 | -87.5 | 17 | 94.4 |
| 2025-12-11T04:39:00 | -17.0109 | -34.9150 | 310.0 | -2.53 | -9.57 | 1 | 77.9 | 77.0 | -97.8 | 13 | 72.2 |
| 2025-12-11T04:39:00 | -17.0109 | -34.9150 | 342.0 | 1.82 | -10.82 | 1 | 70.0 | 69.6 | -99.4 | 16 | 88.9 |
| 2025-12-11T04:39:00 | -17.0109 | -34.9150 | 374.0 | 0.51 | -2.84 | 1 | 71.0 | 71.0 | -97.3 | 17 | 94.4 |
| 2025-12-11T04:39:00 | -17.0109 | -34.9150 | 406.0 | 9.77 | -12.12 | 1 | 68.4 | 68.5 | -97.0 | 15 | 83.3 |
| 2025-12-11T04:39:00 | -17.0109 | -34.9150 | 438.0 | 0.71 | -8.03 | 1 | 62.6 | 62.3 | -98.3 | 16 | 88.9 |
| 2025-12-11T04:39:00 | -17.0109 | -34.9150 | 470.0 | 3.16 | -8.64 | 1 | 65.0 | 65.0 | -95.8 | 18 | 100.0 |
| 2025-12-11T04:39:00 | -17.0109 | -34.9150 | 502.0 | -0.12 | -1.68 | 1 | 71.2 | 70.9 | -92.0 | 16 | 88.9 |
| 2025-12-11T04:39:00 | -17.0109 | -34.9150 | 534.0 | 5.96 | -10.02 | 1 | 77.2 | 77.2 | -88.1 | 17 | 94.4 |
| 2025-12-11T04:39:00 | -17.0109 | -34.9150 | 566.0 | -0.67 | -14.24 | 1 | 80.3 | 80.2 | -85.6 | 16 | 88.9 |
| 2025-12-11T04:39:00 | -17.0109 | -34.9150 | 598.0 | 3.09 | -15.76 | 1 | 76.3 | 75.6 | -86.4 | 16 | 88.9 |
| 2025-12-11T04:39:00 | -17.0109 | -34.9150 | 630.0 | -5.04 | -10.13 | 1 | 64.4 | 64.4 | -90.0 | 16 | 88.9 |
| 2025-12-11T04:39:00 | -17.0109 | -34.9150 | 662.0 | 5.29 | -7.12 | 1 | 62.5 | 62.5 | -89.8 | 17 | 94.4 |
| 2025-12-11T04:39:00 | -17.0109 | -34.9150 | 694.0 | 0.48 | -11.45 | 1 | 59.2 | 59.2 | -90.1 | 18 | 100.0 |
| 2025-12-11T04:39:00 | -17.0109 | -34.9150 | 726.0 | -0.31 | -13.37 | 1 | 54.8 | 54.2 | -91.1 | 15 | 83.3 |
| 2025-12-11T04:39:00 | -17.0109 | -34.9150 | 758.0 | 8.21 | -25.67 | 1 | 50.5 | 50.5 | -91.6 | 18 | 100.0 |
| 2025-12-11T04:39:00 | -17.0109 | -34.9150 | 790.0 | 5.76 | -10.67 | 1 | 50.2 | 49.8 | -90.9 | 14 | 77.8 |
| 2025-12-11T04:39:00 | -17.0109 | -34.9150 | 822.0 | 13.95 | -14.77 | 1 | 49.3 | 48.6 | -90.4 | 16 | 88.9 |
| 2025-12-11T04:39:00 | -17.0109 | -34.9150 | 854.0 | -5.94 | -8.78 | 1 | 48.2 | 47.5 | -89.9 | 11 | 61.1 |
| 2025-12-11T04:39:00 | -17.0109 | -34.9150 | 886.0 | -0.22 | -1.93 | 1 | 47.0 | 45.2 | -89.8 | 6 | 33.3 |
| 2025-12-11T04:39:00 | -17.0109 | -34.9150 | 918.0 | 8.03 | -2.67 | 4 | 46.7 | 45.6 | -88.7 | 2 | 11.1 |
| 2025-12-11T04:39:00 | -17.0109 | -34.9150 | 950.0 | -15.60 | -4.97 | 4 | 47.6 | 43.2 | -88.8 | 3 | 16.7 |
| 2025-12-11T04:39:00 | -17.0109 | -34.9150 | 982.0 | 27.70 | 30.99 | 4 | 49.2 | 40.2 | -89.1 | 1 | 5.6 |
| 2025-12-11T04:40:00 | -17.0077 | -34.9133 | 54.0 | 9.31 | -20.18 | 1 | 178.3 | 178.3 | -76.9 | 15 | 83.3 |
| 2025-12-11T04:40:00 | -17.0077 | -34.9133 | 86.0 | 16.08 | -38.21 | 1 | 161.8 | 161.8 | -78.2 | 15 | 83.3 |
| 2025-12-11T04:40:00 | -17.0077 | -34.9133 | 118.0 | 14.40 | -26.84 | 1 | 147.0 | 147.0 | -80.8 | 17 | 94.4 |
| 2025-12-11T04:40:00 | -17.0077 | -34.9133 | 150.0 | 1.51 | -21.81 | 1 | 132.3 | 132.3 | -84.2 | 17 | 94.4 |
| 2025-12-11T04:40:00 | -17.0077 | -34.9133 | 182.0 | -2.99 | -19.26 | 1 | 131.0 | 131.0 | -82.3 | 18 | 100.0 |
| 2025-12-11T04:40:00 | -17.0077 | -34.9133 | 214.0 | -0.54 | -17.19 | 1 | 114.2 | 114.2 | -87.3 | 16 | 88.9 |
| 2025-12-11T04:40:00 | -17.0077 | -34.9133 | 246.0 | -1.12 | -28.39 | 1 | 113.5 | 113.5 | -85.7 | 17 | 94.4 |
| 2025-12-11T04:40:00 | -17.0077 | -34.9133 | 278.0 | -3.25 | -23.99 | 1 | 103.6 | 103.4 | -88.2 | 17 | 94.4 |
| 2025-12-11T04:40:00 | -17.0077 | -34.9133 | 310.0 | -5.11 | -12.54 | 1 | 78.4 | 78.4 | -97.2 | 15 | 83.3 |
| 2025-12-11T04:40:00 | -17.0077 | -34.9133 | 342.0 | -10.36 | -2.72 | 1 | 70.0 | 70.0 | -99.2 | 15 | 83.3 |
| 2025-12-11T04:40:00 | -17.0077 | -34.9133 | 374.0 | -1.28 | -6.87 | 1 | 72.1 | 72.1 | -96.9 | 18 | 100.0 |
| 2025-12-11T04:40:00 | -17.0077 | -34.9133 | 406.0 | 8.66 | -15.85 | 1 | 66.2 | 66.2 | -97.9 | 18 | 100.0 |
| 2025-12-11T04:40:00 | -17.0077 | -34.9133 | 438.0 | 2.39 | 1.57 | 1 | 63.0 | 62.0 | -98.4 | 17 | 94.4 |
| 2025-12-11T04:40:00 | -17.0077 | -34.9133 | 470.0 | 4.46 | -3.76 | 1 | 64.5 | 64.5 | -96.0 | 18 | 100.0 |
| 2025-12-11T04:40:00 | -17.0077 | -34.9133 | 502.0 | 5.46 | -1.57 | 1 | 71.8 | 71.8 | -91.7 | 18 | 100.0 |
| 2025-12-11T04:40:00 | -17.0077 | -34.9133 | 534.0 | -1.22 | -5.19 | 1 | 75.5 | 75.5 | -88.9 | 18 | 100.0 |
| 2025-12-11T04:40:00 | -17.0077 | -34.9133 | 566.0 | 3.33 | -8.36 | 1 | 80.2 | 80.2 | -85.7 | 18 | 100.0 |
| 2025-12-11T04:40:00 | -17.0077 | -34.9133 | 598.0 | 2.20 | -20.35 | 1 | 73.5 | 73.5 | -87.3 | 18 | 100.0 |
| 2025-12-11T04:40:00 | -17.0077 | -34.9133 | 630.0 | 1.49 | -9.13 | 1 | 63.7 | 63.7 | -90.3 | 17 | 94.4 |
| 2025-12-11T04:40:00 | -17.0077 | -34.9133 | 662.0 | -3.75 | -9.08 | 1 | 63.8 | 63.8 | -89.2 | 17 | 94.4 |
| 2025-12-11T04:40:00 | -17.0077 | -34.9133 | 694.0 | 1.15 | -17.57 | 1 | 60.5 | 59.5 | -89.9 | 15 | 83.3 |
| 2025-12-11T04:40:00 | -17.0077 | -34.9133 | 726.0 | -3.81 | -15.89 | 1 | 54.0 | 53.6 | -91.4 | 16 | 88.9 |
| 2025-12-11T04:40:00 | -17.0077 | -34.9133 | 758.0 | -3.62 | -16.35 | 1 | 51.3 | 49.0 | -92.3 | 15 | 83.3 |
| 2025-12-11T04:40:00 | -17.0077 | -34.9133 | 790.0 | 0.93 | -6.49 | 1 | 51.8 | 47.8 | -91.8 | 13 | 72.2 |
| 2025-12-11T04:40:00 | -17.0077 | -34.9133 | 822.0 | 2.05 | -24.04 | 1 | 48.3 | 47.0 | -91.1 | 10 | 55.6 |
| 2025-12-11T04:40:00 | -17.0077 | -34.9133 | 854.0 | -1.62 | -27.40 | 1 | 47.7 | 46.0 | -90.5 | 10 | 55.6 |
| 2025-12-11T04:40:00 | -17.0077 | -34.9133 | 886.0 | -8.69 | -29.41 | 1 | 48.4 | 45.0 | -90.0 | 6 | 33.3 |
| 2025-12-11T04:40:00 | -17.0077 | -34.9133 | 918.0 | 5.99 | -35.17 | 4 | 47.3 | 43.8 | -89.5 | 3 | 16.7 |
| 2025-12-11T04:40:00 | -17.0077 | -34.9133 | 950.0 | 7.40 | -16.64 | 4 | 46.9 | 50.8 | -85.6 | 1 | 5.6 |
| 2025-12-11T04:41:00 | -17.0045 | -34.9116 | 54.0 | 18.48 | -17.13 | 1 | 178.9 | 178.9 | -76.6 | 18 | 100.0 |
| 2025-12-11T04:41:00 | -17.0045 | -34.9116 | 86.0 | 14.53 | -25.24 | 1 | 160.5 | 160.5 | -78.8 | 17 | 94.4 |
| 2025-12-11T04:41:00 | -17.0045 | -34.9116 | 118.0 | -3.49 | -29.35 | 1 | 147.2 | 146.9 | -80.9 | 14 | 77.8 |
| 2025-12-11T04:41:00 | -17.0045 | -34.9116 | 150.0 | 4.69 | -22.44 | 1 | 133.5 | 133.2 | -83.8 | 16 | 88.9 |
| 2025-12-11T04:41:00 | -17.0045 | -34.9116 | 182.0 | -0.89 | -11.74 | 1 | 128.2 | 127.8 | -83.7 | 15 | 83.3 |
| 2025-12-11T04:41:00 | -17.0045 | -34.9116 | 214.0 | -3.22 | -20.59 | 1 | 115.0 | 114.8 | -87.1 | 16 | 88.9 |
| 2025-12-11T04:41:00 | -17.0045 | -34.9116 | 246.0 | -3.31 | -19.26 | 1 | 112.5 | 112.5 | -86.1 | 18 | 100.0 |
| 2025-12-11T04:41:00 | -17.0045 | -34.9116 | 278.0 | -10.60 | -24.44 | 1 | 103.5 | 103.5 | -88.2 | 17 | 94.4 |
| 2025-12-11T04:41:00 | -17.0045 | -34.9116 | 310.0 | -4.82 | -12.77 | 1 | 78.5 | 77.8 | -97.5 | 17 | 94.4 |
| 2025-12-11T04:41:00 | -17.0045 | -34.9116 | 342.0 | -2.04 | -12.04 | 1 | 72.6 | 72.1 | -98.3 | 17 | 94.4 |
| 2025-12-11T04:41:00 | -17.0045 | -34.9116 | 374.0 | -6.62 | -12.31 | 1 | 74.0 | 74.0 | -96.1 | 18 | 100.0 |
| 2025-12-11T04:41:00 | -17.0045 | -34.9116 | 406.0 | -3.29 | -12.79 | 1 | 67.2 | 67.2 | -97.5 | 18 | 100.0 |
| 2025-12-11T04:41:00 | -17.0045 | -34.9116 | 438.0 | -1.25 | 1.07 | 1 | 62.7 | 62.7 | -98.1 | 17 | 94.4 |
| 2025-12-11T04:41:00 | -17.0045 | -34.9116 | 470.0 | 4.13 | -2.03 | 1 | 62.7 | 62.6 | -96.8 | 16 | 88.9 |
| 2025-12-11T04:41:00 | -17.0045 | -34.9116 | 502.0 | -2.42 | -9.67 | 1 | 69.9 | 70.1 | -92.4 | 17 | 94.4 |
| 2025-12-11T04:41:00 | -17.0045 | -34.9116 | 534.0 | 2.04 | -10.31 | 1 | 78.7 | 78.0 | -87.8 | 17 | 94.4 |
| 2025-12-11T04:41:00 | -17.0045 | -34.9116 | 566.0 | -4.24 | -12.31 | 1 | 79.9 | 79.4 | -86.0 | 17 | 94.4 |
| 2025-12-11T04:41:00 | -17.0045 | -34.9116 | 598.0 | -2.14 | -10.39 | 1 | 74.0 | 74.0 | -87.1 | 18 | 100.0 |
| 2025-12-11T04:41:00 | -17.0045 | -34.9116 | 630.0 | -4.02 | -6.74 | 1 | 64.6 | 64.6 | -90.0 | 17 | 94.4 |
| 2025-12-11T04:41:00 | -17.0045 | -34.9116 | 662.0 | -1.70 | -4.83 | 1 | 60.4 | 60.4 | -90.6 | 18 | 100.0 |
| 2025-12-11T04:41:00 | -17.0045 | -34.9116 | 694.0 | -4.66 | -13.42 | 1 | 58.8 | 58.8 | -90.2 | 17 | 94.4 |
| 2025-12-11T04:41:00 | -17.0045 | -34.9116 | 726.0 | -5.87 | -20.90 | 1 | 55.8 | 55.8 | -90.4 | 17 | 94.4 |
| 2025-12-11T04:41:00 | -17.0045 | -34.9116 | 758.0 | -5.51 | -19.81 | 1 | 50.1 | 49.9 | -91.9 | 17 | 94.4 |
| 2025-12-11T04:41:00 | -17.0045 | -34.9116 | 790.0 | 6.90 | -20.47 | 1 | 51.8 | 51.6 | -90.1 | 15 | 83.3 |
| 2025-12-11T04:41:00 | -17.0045 | -34.9116 | 822.0 | 3.81 | -18.87 | 1 | 51.4 | 49.8 | -89.9 | 15 | 83.3 |
| 2025-12-11T04:41:00 | -17.0045 | -34.9116 | 854.0 | -8.46 | -16.46 | 1 | 49.8 | 46.8 | -90.1 | 10 | 55.6 |
| 2025-12-11T04:41:00 | -17.0045 | -34.9116 | 886.0 | -12.55 | -25.81 | 1 | 46.0 | 44.3 | -90.2 | 6 | 33.3 |
| 2025-12-11T04:41:00 | -17.0045 | -34.9116 | 918.0 | 5.36 | -12.73 | 4 | 45.8 | 47.0 | -88.1 | 2 | 11.1 |
| 2025-12-11T04:41:00 | -17.0045 | -34.9116 | 950.0 | 13.67 | -23.85 | 4 | 43.6 | 38.6 | -90.8 | 3 | 16.7 |
| 2025-12-11T04:42:00 | -17.0012 | -34.9098 | 54.0 | 10.63 | 1.61 | 1 | 178.3 | 178.3 | -76.9 | 15 | 83.3 |
| 2025-12-11T04:42:00 | -17.0012 | -34.9098 | 86.0 | 12.27 | -14.01 | 1 | 162.1 | 162.1 | -78.1 | 17 | 94.4 |
| 2025-12-11T04:42:00 | -17.0012 | -34.9098 | 118.0 | -0.46 | -23.32 | 1 | 143.9 | 143.9 | -82.1 | 14 | 77.8 |
| 2025-12-11T04:42:00 | -17.0012 | -34.9098 | 150.0 | 14.25 | -18.77 | 1 | 130.3 | 130.3 | -85.0 | 18 | 100.0 |
| 2025-12-11T04:42:00 | -17.0012 | -34.9098 | 182.0 | -6.67 | -24.98 | 1 | 127.6 | 127.6 | -83.8 | 18 | 100.0 |
| 2025-12-11T04:42:00 | -17.0012 | -34.9098 | 214.0 | -8.84 | -20.50 | 1 | 116.1 | 116.1 | -86.5 | 17 | 94.4 |
| 2025-12-11T04:42:00 | -17.0012 | -34.9098 | 246.0 | -8.83 | -21.23 | 1 | 113.5 | 113.5 | -85.7 | 17 | 94.4 |
| 2025-12-11T04:42:00 | -17.0012 | -34.9098 | 278.0 | -11.35 | -20.36 | 1 | 102.4 | 102.4 | -88.6 | 16 | 88.9 |
| 2025-12-11T04:42:00 | -17.0012 | -34.9098 | 310.0 | -2.60 | -11.07 | 1 | 76.9 | 76.9 | -97.9 | 17 | 94.4 |
| 2025-12-11T04:42:00 | -17.0012 | -34.9098 | 342.0 | -0.24 | -9.69 | 1 | 73.9 | 73.5 | -97.7 | 16 | 88.9 |
| 2025-12-11T04:42:00 | -17.0012 | -34.9098 | 374.0 | -5.04 | -5.74 | 1 | 72.9 | 72.3 | -96.8 | 15 | 83.3 |
| 2025-12-11T04:42:00 | -17.0012 | -34.9098 | 406.0 | -0.38 | -11.70 | 1 | 68.2 | 68.2 | -97.1 | 17 | 94.4 |
| 2025-12-11T04:42:00 | -17.0012 | -34.9098 | 438.0 | 3.19 | -11.15 | 1 | 62.5 | 61.9 | -98.4 | 16 | 88.9 |
| 2025-12-11T04:42:00 | -17.0012 | -34.9098 | 470.0 | -5.43 | 1.90 | 1 | 63.7 | 63.2 | -96.6 | 17 | 94.4 |
| 2025-12-11T04:42:00 | -17.0012 | -34.9098 | 502.0 | -2.23 | 10.30 | 1 | 71.2 | 70.9 | -92.0 | 17 | 94.4 |
| 2025-12-11T04:42:00 | -17.0012 | -34.9098 | 534.0 | -0.14 | -5.10 | 1 | 77.4 | 75.8 | -88.7 | 15 | 83.3 |
| 2025-12-11T04:42:00 | -17.0012 | -34.9098 | 566.0 | 4.47 | -2.76 | 1 | 81.8 | 81.1 | -85.3 | 16 | 88.9 |
| 2025-12-11T04:42:00 | -17.0012 | -34.9098 | 598.0 | -1.07 | -11.92 | 1 | 75.8 | 76.0 | -86.3 | 17 | 94.4 |
| 2025-12-11T04:42:00 | -17.0012 | -34.9098 | 630.0 | 4.59 | -18.63 | 1 | 64.6 | 64.4 | -90.1 | 17 | 94.4 |
| 2025-12-11T04:42:00 | -17.0012 | -34.9098 | 662.0 | -7.22 | -8.84 | 1 | 60.6 | 60.1 | -90.8 | 17 | 94.4 |
| 2025-12-11T04:42:00 | -17.0012 | -34.9098 | 694.0 | 1.85 | -9.21 | 1 | 58.5 | 57.8 | -90.7 | 13 | 72.2 |
| 2025-12-11T04:42:00 | -17.0012 | -34.9098 | 726.0 | 4.79 | -18.54 | 1 | 57.0 | 54.3 | -91.1 | 15 | 83.3 |
| 2025-12-11T04:42:00 | -17.0012 | -34.9098 | 758.0 | -3.14 | -20.37 | 1 | 53.7 | 52.2 | -90.9 | 15 | 83.3 |
| 2025-12-11T04:42:00 | -17.0012 | -34.9098 | 790.0 | 5.05 | -7.76 | 1 | 52.8 | 52.9 | -89.6 | 14 | 77.8 |
| 2025-12-11T04:42:00 | -17.0012 | -34.9098 | 822.0 | 7.03 | -26.72 | 1 | 51.3 | 50.3 | -89.7 | 15 | 83.3 |
| 2025-12-11T04:42:00 | -17.0012 | -34.9098 | 854.0 | 14.01 | -14.47 | 1 | 50.2 | 48.2 | -89.6 | 11 | 61.1 |
| 2025-12-11T04:42:00 | -17.0012 | -34.9098 | 886.0 | -1.10 | -28.32 | 1 | 49.0 | 44.2 | -90.3 | 6 | 33.3 |
| 2025-12-11T04:42:00 | -17.0012 | -34.9098 | 918.0 | 7.29 | -12.55 | 4 | 48.4 | 42.8 | -89.9 | 4 | 22.2 |
| 2025-12-11T04:42:00 | -17.0012 | -34.9098 | 950.0 | -0.22 | -27.38 | 4 | 44.1 | 33.9 | -92.8 | 4 | 22.2 |
| 2025-12-11T04:43:00 | -16.9980 | -34.9081 | 54.0 | 9.38 | -24.91 | 1 | 180.0 | 180.0 | -76.2 | 16 | 88.9 |
| 2025-12-11T04:43:00 | -16.9980 | -34.9081 | 86.0 | 9.10 | -16.77 | 1 | 156.5 | 156.5 | -80.5 | 15 | 83.3 |
| 2025-12-11T04:43:00 | -16.9980 | -34.9081 | 118.0 | -0.90 | -27.23 | 1 | 141.0 | 141.0 | -83.3 | 14 | 77.8 |
| 2025-12-11T04:43:00 | -16.9980 | -34.9081 | 150.0 | 11.28 | -25.46 | 1 | 131.0 | 131.0 | -84.7 | 18 | 100.0 |
| 2025-12-11T04:43:00 | -16.9980 | -34.9081 | 182.0 | -8.30 | -19.92 | 1 | 126.6 | 126.6 | -84.2 | 16 | 88.9 |
| 2025-12-11T04:43:00 | -16.9980 | -34.9081 | 214.0 | 0.60 | -13.20 | 1 | 114.0 | 114.0 | -87.4 | 18 | 100.0 |
| 2025-12-11T04:43:00 | -16.9980 | -34.9081 | 246.0 | 0.57 | -2.62 | 1 | 113.3 | 112.7 | -86.0 | 17 | 94.4 |
| 2025-12-11T04:43:00 | -16.9980 | -34.9081 | 278.0 | 12.58 | -22.47 | 1 | 104.0 | 103.6 | -88.2 | 17 | 94.4 |
| 2025-12-11T04:43:00 | -16.9980 | -34.9081 | 310.0 | -3.62 | -10.68 | 1 | 77.7 | 77.7 | -97.5 | 17 | 94.4 |
| 2025-12-11T04:43:00 | -16.9980 | -34.9081 | 342.0 | -7.57 | -11.66 | 1 | 74.3 | 74.3 | -97.4 | 17 | 94.4 |
| 2025-12-11T04:43:00 | -16.9980 | -34.9081 | 374.0 | 1.14 | -4.41 | 1 | 74.2 | 73.4 | -96.3 | 17 | 94.4 |
| 2025-12-11T04:43:00 | -16.9980 | -34.9081 | 406.0 | 11.71 | -16.74 | 1 | 70.1 | 70.1 | -96.3 | 17 | 94.4 |
| 2025-12-11T04:43:00 | -16.9980 | -34.9081 | 438.0 | 1.50 | -7.57 | 1 | 61.7 | 60.8 | -98.9 | 15 | 83.3 |
| 2025-12-11T04:43:00 | -16.9980 | -34.9081 | 470.0 | 4.51 | -11.89 | 1 | 62.6 | 62.3 | -97.0 | 17 | 94.4 |
| 2025-12-11T04:43:00 | -16.9980 | -34.9081 | 502.0 | -7.89 | -4.09 | 1 | 72.2 | 72.2 | -91.5 | 17 | 94.4 |
| 2025-12-11T04:43:00 | -16.9980 | -34.9081 | 534.0 | -1.87 | -17.14 | 1 | 77.5 | 77.5 | -88.0 | 17 | 94.4 |
| 2025-12-11T04:43:00 | -16.9980 | -34.9081 | 566.0 | -0.28 | -9.86 | 1 | 82.3 | 82.3 | -84.8 | 18 | 100.0 |
| 2025-12-11T04:43:00 | -16.9980 | -34.9081 | 598.0 | -2.53 | -16.23 | 1 | 78.9 | 78.9 | -85.0 | 17 | 94.4 |
| 2025-12-11T04:43:00 | -16.9980 | -34.9081 | 630.0 | 1.70 | -4.99 | 1 | 64.7 | 64.7 | -89.9 | 17 | 94.4 |
| 2025-12-11T04:43:00 | -16.9980 | -34.9081 | 662.0 | 4.09 | -3.92 | 1 | 61.3 | 61.3 | -90.2 | 17 | 94.4 |
| 2025-12-11T04:43:00 | -16.9980 | -34.9081 | 694.0 | 1.48 | -13.97 | 1 | 57.8 | 57.8 | -90.7 | 17 | 94.4 |
| 2025-12-11T04:43:00 | -16.9980 | -34.9081 | 726.0 | 4.55 | -15.81 | 1 | 55.7 | 55.7 | -90.5 | 17 | 94.4 |
| 2025-12-11T04:43:00 | -16.9980 | -34.9081 | 758.0 | -3.53 | -25.57 | 1 | 52.7 | 50.6 | -91.6 | 15 | 83.3 |
| 2025-12-11T04:43:00 | -16.9980 | -34.9081 | 790.0 | -0.35 | -17.06 | 1 | 51.7 | 50.4 | -90.6 | 16 | 88.9 |
| 2025-12-11T04:43:00 | -16.9980 | -34.9081 | 822.0 | -0.16 | -14.29 | 1 | 50.4 | 49.6 | -89.9 | 14 | 77.8 |
| 2025-12-11T04:43:00 | -16.9980 | -34.9081 | 854.0 | 0.18 | -22.07 | 1 | 49.1 | 47.6 | -89.8 | 11 | 61.1 |
| 2025-12-11T04:43:00 | -16.9980 | -34.9081 | 886.0 | 6.37 | -14.51 | 1 | 43.8 | 41.2 | -91.6 | 6 | 33.3 |
| 2025-12-11T04:43:00 | -16.9980 | -34.9081 | 918.0 | 6.05 | -14.52 | 1 | 46.0 | 40.2 | -91.1 | 6 | 33.3 |
| 2025-12-11T04:43:00 | -16.9980 | -34.9081 | 950.0 | 3.33 | -30.92 | 4 | 44.4 | 46.8 | -87.3 | 4 | 22.2 |
| 2025-12-11T04:44:00 | -16.9948 | -34.9064 | 54.0 | 8.40 | -18.31 | 1 | 179.2 | 179.2 | -76.5 | 17 | 94.4 |
| 2025-12-11T04:44:00 | -16.9948 | -34.9064 | 86.0 | 8.54 | -10.94 | 1 | 158.2 | 158.2 | -79.8 | 15 | 83.3 |
| 2025-12-11T04:44:00 | -16.9948 | -34.9064 | 118.0 | -3.66 | -16.31 | 1 | 139.8 | 139.2 | -84.1 | 16 | 88.9 |
| 2025-12-11T04:44:00 | -16.9948 | -34.9064 | 150.0 | 2.17 | -9.28 | 1 | 128.8 | 128.9 | -85.6 | 16 | 88.9 |
| 2025-12-11T04:44:00 | -16.9948 | -34.9064 | 182.0 | -3.73 | -20.23 | 1 | 126.5 | 126.5 | -84.2 | 18 | 100.0 |
| 2025-12-11T04:44:00 | -16.9948 | -34.9064 | 214.0 | -7.19 | -13.71 | 1 | 113.1 | 113.1 | -87.8 | 16 | 88.9 |
| 2025-12-11T04:44:00 | -16.9948 | -34.9064 | 246.0 | -2.69 | -13.67 | 1 | 110.5 | 110.5 | -87.0 | 17 | 94.4 |
| 2025-12-11T04:44:00 | -16.9948 | -34.9064 | 278.0 | 4.68 | -26.05 | 1 | 100.4 | 100.4 | -89.5 | 16 | 88.9 |
| 2025-12-11T04:44:00 | -16.9948 | -34.9064 | 310.0 | -5.24 | -13.93 | 1 | 77.5 | 77.5 | -97.6 | 16 | 88.9 |
| 2025-12-11T04:44:00 | -16.9948 | -34.9064 | 342.0 | -0.02 | -9.59 | 1 | 72.2 | 72.2 | -98.3 | 18 | 100.0 |
| 2025-12-11T04:44:00 | -16.9948 | -34.9064 | 374.0 | -4.64 | -4.84 | 1 | 73.3 | 73.3 | -96.4 | 17 | 94.4 |
| 2025-12-11T04:44:00 | -16.9948 | -34.9064 | 406.0 | 0.68 | -14.92 | 1 | 68.9 | 68.7 | -96.9 | 17 | 94.4 |
| 2025-12-11T04:44:00 | -16.9948 | -34.9064 | 438.0 | 12.02 | -10.66 | 1 | 63.0 | 62.5 | -98.2 | 15 | 83.3 |
| 2025-12-11T04:44:00 | -16.9948 | -34.9064 | 470.0 | 2.45 | -2.11 | 1 | 61.9 | 61.9 | -97.1 | 16 | 88.9 |
| 2025-12-11T04:44:00 | -16.9948 | -34.9064 | 502.0 | 12.40 | 5.04 | 1 | 70.6 | 70.6 | -92.2 | 16 | 88.9 |
| 2025-12-11T04:44:00 | -16.9948 | -34.9064 | 534.0 | 5.55 | -8.54 | 1 | 77.5 | 77.1 | -88.2 | 17 | 94.4 |
| 2025-12-11T04:44:00 | -16.9948 | -34.9064 | 566.0 | 7.60 | -9.94 | 1 | 82.1 | 82.1 | -84.8 | 18 | 100.0 |
| 2025-12-11T04:44:00 | -16.9948 | -34.9064 | 598.0 | -1.20 | -17.03 | 1 | 78.2 | 77.8 | -85.5 | 17 | 94.4 |
| 2025-12-11T04:44:00 | -16.9948 | -34.9064 | 630.0 | 5.36 | -25.95 | 1 | 66.6 | 66.4 | -89.2 | 16 | 88.9 |
| 2025-12-11T04:44:00 | -16.9948 | -34.9064 | 662.0 | -5.29 | -19.61 | 1 | 62.5 | 62.5 | -89.8 | 17 | 94.4 |
| 2025-12-11T04:44:00 | -16.9948 | -34.9064 | 694.0 | 2.19 | -16.83 | 1 | 60.0 | 60.0 | -89.7 | 17 | 94.4 |
| 2025-12-11T04:44:00 | -16.9948 | -34.9064 | 726.0 | -4.17 | -20.77 | 1 | 54.7 | 54.4 | -91.0 | 17 | 94.4 |
| 2025-12-11T04:44:00 | -16.9948 | -34.9064 | 758.0 | 0.48 | -15.72 | 1 | 51.7 | 51.7 | -91.1 | 18 | 100.0 |
| 2025-12-11T04:44:00 | -16.9948 | -34.9064 | 790.0 | 6.67 | -13.35 | 1 | 51.5 | 51.5 | -90.2 | 17 | 94.4 |
| 2025-12-11T04:44:00 | -16.9948 | -34.9064 | 822.0 | -0.63 | -22.70 | 1 | 50.2 | 49.8 | -89.9 | 16 | 88.9 |
| 2025-12-11T04:44:00 | -16.9948 | -34.9064 | 854.0 | 4.58 | -21.73 | 1 | 48.6 | 44.4 | -91.2 | 10 | 55.6 |
| 2025-12-11T04:44:00 | -16.9948 | -34.9064 | 886.0 | -0.58 | -13.96 | 1 | 47.2 | 44.7 | -90.1 | 9 | 50.0 |
| 2025-12-11T04:44:00 | -16.9948 | -34.9064 | 918.0 | 6.43 | -21.34 | 4 | 49.7 | 46.4 | -88.4 | 3 | 16.7 |
| 2025-12-11T04:45:00 | -16.9916 | -34.9047 | 54.0 | 6.60 | -18.73 | 1 | 179.2 | 179.2 | -76.5 | 15 | 83.3 |
| 2025-12-11T04:45:00 | -16.9916 | -34.9047 | 86.0 | 6.81 | -23.39 | 1 | 155.8 | 155.8 | -80.8 | 18 | 100.0 |
| 2025-12-11T04:45:00 | -16.9916 | -34.9047 | 118.0 | 2.84 | -26.69 | 1 | 140.9 | 140.9 | -83.4 | 15 | 83.3 |
| 2025-12-11T04:45:00 | -16.9916 | -34.9047 | 150.0 | 1.39 | -26.24 | 1 | 128.1 | 128.1 | -86.0 | 16 | 88.9 |
| 2025-12-11T04:45:00 | -16.9916 | -34.9047 | 182.0 | -2.86 | -13.85 | 1 | 124.9 | 124.9 | -84.9 | 18 | 100.0 |
| 2025-12-11T04:45:00 | -16.9916 | -34.9047 | 214.0 | -9.63 | -16.57 | 1 | 111.8 | 111.0 | -88.7 | 17 | 94.4 |
| 2025-12-11T04:45:00 | -16.9916 | -34.9047 | 246.0 | -1.68 | -20.61 | 1 | 110.9 | 110.6 | -87.0 | 17 | 94.4 |
| 2025-12-11T04:45:00 | -16.9916 | -34.9047 | 278.0 | -10.77 | -12.79 | 1 | 102.8 | 102.5 | -88.6 | 14 | 77.8 |
| 2025-12-11T04:45:00 | -16.9916 | -34.9047 | 310.0 | -4.84 | -11.15 | 1 | 78.6 | 78.4 | -97.2 | 16 | 88.9 |
| 2025-12-11T04:45:00 | -16.9916 | -34.9047 | 342.0 | 3.70 | 0.32 | 1 | 71.7 | 71.2 | -98.7 | 16 | 88.9 |
| 2025-12-11T04:45:00 | -16.9916 | -34.9047 | 374.0 | -0.63 | -6.24 | 1 | 74.1 | 73.2 | -96.4 | 17 | 94.4 |
| 2025-12-11T04:45:00 | -16.9916 | -34.9047 | 406.0 | 5.85 | -7.56 | 1 | 71.1 | 71.1 | -95.9 | 17 | 94.4 |
| 2025-12-11T04:45:00 | -16.9916 | -34.9047 | 438.0 | 6.56 | 3.54 | 1 | 63.4 | 63.4 | -97.8 | 17 | 94.4 |
| 2025-12-11T04:45:00 | -16.9916 | -34.9047 | 470.0 | 10.87 | -10.64 | 1 | 64.0 | 62.7 | -96.8 | 17 | 94.4 |
| 2025-12-11T04:45:00 | -16.9916 | -34.9047 | 502.0 | 5.57 | -3.91 | 1 | 70.6 | 70.6 | -92.2 | 18 | 100.0 |
| 2025-12-11T04:45:00 | -16.9916 | -34.9047 | 534.0 | 0.03 | -12.59 | 1 | 79.0 | 79.0 | -87.4 | 17 | 94.4 |
| 2025-12-11T04:45:00 | -16.9916 | -34.9047 | 566.0 | -4.48 | -4.44 | 1 | 82.2 | 81.5 | -85.1 | 15 | 83.3 |
| 2025-12-11T04:45:00 | -16.9916 | -34.9047 | 598.0 | 8.97 | -11.38 | 1 | 78.2 | 77.2 | -85.8 | 15 | 83.3 |
| 2025-12-11T04:45:00 | -16.9916 | -34.9047 | 630.0 | 7.27 | -21.33 | 1 | 67.8 | 66.4 | -89.2 | 16 | 88.9 |
| 2025-12-11T04:45:00 | -16.9916 | -34.9047 | 662.0 | 5.19 | -16.23 | 1 | 61.0 | 60.5 | -90.6 | 16 | 88.9 |
| 2025-12-11T04:45:00 | -16.9916 | -34.9047 | 694.0 | 4.60 | -6.97 | 1 | 58.8 | 58.9 | -90.2 | 16 | 88.9 |
| 2025-12-11T04:45:00 | -16.9916 | -34.9047 | 726.0 | 1.64 | -22.69 | 1 | 56.3 | 53.9 | -91.2 | 15 | 83.3 |
| 2025-12-11T04:45:00 | -16.9916 | -34.9047 | 758.0 | 2.76 | -21.53 | 1 | 52.4 | 50.2 | -91.8 | 15 | 83.3 |
| 2025-12-11T04:45:00 | -16.9916 | -34.9047 | 790.0 | 4.52 | -21.44 | 1 | 52.5 | 50.8 | -90.5 | 16 | 88.9 |
| 2025-12-11T04:45:00 | -16.9916 | -34.9047 | 822.0 | 6.16 | -24.21 | 1 | 51.5 | 50.1 | -89.8 | 15 | 83.3 |
| 2025-12-11T04:45:00 | -16.9916 | -34.9047 | 854.0 | 3.93 | -22.36 | 1 | 47.6 | 44.6 | -91.1 | 14 | 77.8 |
| 2025-12-11T04:45:00 | -16.9916 | -34.9047 | 886.0 | 4.05 | -23.65 | 1 | 45.3 | 44.6 | -90.1 | 7 | 38.9 |
| 2025-12-11T04:45:00 | -16.9916 | -34.9047 | 918.0 | -3.86 | -25.45 | 4 | 45.6 | 39.2 | -91.5 | 2 | 11.1 |
| 2025-12-11T04:45:00 | -16.9916 | -34.9047 | 950.0 | -20.09 | -45.90 | 4 | 45.4 | 37.5 | -91.3 | 1 | 5.6 |
| 2025-12-11T04:46:00 | -16.9885 | -34.9030 | 54.0 | 5.68 | -18.79 | 1 | 180.6 | 180.6 | -75.9 | 16 | 88.9 |
| 2025-12-11T04:46:00 | -16.9885 | -34.9030 | 86.0 | 13.27 | -15.70 | 1 | 156.8 | 156.8 | -80.4 | 14 | 77.8 |
| 2025-12-11T04:46:00 | -16.9885 | -34.9030 | 118.0 | 12.73 | -21.07 | 1 | 140.3 | 140.3 | -83.7 | 16 | 88.9 |
| 2025-12-11T04:46:00 | -16.9885 | -34.9030 | 150.0 | -3.58 | -23.25 | 1 | 128.5 | 128.5 | -85.8 | 14 | 77.8 |
| 2025-12-11T04:46:00 | -16.9885 | -34.9030 | 182.0 | -11.62 | -25.15 | 1 | 127.2 | 127.2 | -83.9 | 18 | 100.0 |
| 2025-12-11T04:46:00 | -16.9885 | -34.9030 | 214.0 | -8.06 | -23.17 | 1 | 113.7 | 113.7 | -87.5 | 18 | 100.0 |
| 2025-12-11T04:46:00 | -16.9885 | -34.9030 | 246.0 | 0.63 | -21.65 | 1 | 108.1 | 108.1 | -88.0 | 16 | 88.9 |
| 2025-12-11T04:46:00 | -16.9885 | -34.9030 | 278.0 | -0.26 | -24.51 | 1 | 103.5 | 103.5 | -88.2 | 16 | 88.9 |
| 2025-12-11T04:46:00 | -16.9885 | -34.9030 | 310.0 | -2.75 | -14.67 | 1 | 78.4 | 78.4 | -97.2 | 17 | 94.4 |
| 2025-12-11T04:46:00 | -16.9885 | -34.9030 | 342.0 | -3.31 | -12.80 | 1 | 72.9 | 71.9 | -98.4 | 17 | 94.4 |
| 2025-12-11T04:46:00 | -16.9885 | -34.9030 | 374.0 | 4.43 | -8.75 | 1 | 72.8 | 72.8 | -96.6 | 17 | 94.4 |
| 2025-12-11T04:46:00 | -16.9885 | -34.9030 | 406.0 | 2.99 | -9.19 | 1 | 68.2 | 68.2 | -97.1 | 17 | 94.4 |
| 2025-12-11T04:46:00 | -16.9885 | -34.9030 | 438.0 | -2.34 | 5.46 | 1 | 65.1 | 64.2 | -97.5 | 15 | 83.3 |
| 2025-12-11T04:46:00 | -16.9885 | -34.9030 | 470.0 | -6.84 | -4.27 | 1 | 64.3 | 62.9 | -96.7 | 15 | 83.3 |
| 2025-12-11T04:46:00 | -16.9885 | -34.9030 | 502.0 | -7.91 | 1.34 | 1 | 71.6 | 71.7 | -91.7 | 17 | 94.4 |
| 2025-12-11T04:46:00 | -16.9885 | -34.9030 | 534.0 | 2.92 | -18.40 | 1 | 81.8 | 81.8 | -86.2 | 17 | 94.4 |
| 2025-12-11T04:46:00 | -16.9885 | -34.9030 | 566.0 | 7.98 | -13.63 | 1 | 80.2 | 79.7 | -85.9 | 17 | 94.4 |
| 2025-12-11T04:46:00 | -16.9885 | -34.9030 | 598.0 | 0.07 | -12.60 | 1 | 78.8 | 78.3 | -85.3 | 17 | 94.4 |
| 2025-12-11T04:46:00 | -16.9885 | -34.9030 | 630.0 | -3.33 | -16.01 | 1 | 65.5 | 65.5 | -89.6 | 17 | 94.4 |
| 2025-12-11T04:46:00 | -16.9885 | -34.9030 | 662.0 | 3.12 | -24.58 | 1 | 61.0 | 61.0 | -90.4 | 18 | 100.0 |
| 2025-12-11T04:46:00 | -16.9885 | -34.9030 | 694.0 | -1.81 | -15.37 | 1 | 57.2 | 57.2 | -90.9 | 18 | 100.0 |
| 2025-12-11T04:46:00 | -16.9885 | -34.9030 | 726.0 | 7.43 | -16.85 | 1 | 55.3 | 55.3 | -90.6 | 16 | 88.9 |
| 2025-12-11T04:46:00 | -16.9885 | -34.9030 | 758.0 | -2.11 | -12.98 | 1 | 51.0 | 49.7 | -92.0 | 16 | 88.9 |
| 2025-12-11T04:46:00 | -16.9885 | -34.9030 | 790.0 | 9.45 | -23.22 | 1 | 51.2 | 49.8 | -90.9 | 16 | 88.9 |
| 2025-12-11T04:46:00 | -16.9885 | -34.9030 | 822.0 | -0.74 | -27.36 | 1 | 49.9 | 47.2 | -91.0 | 13 | 72.2 |
| 2025-12-11T04:46:00 | -16.9885 | -34.9030 | 854.0 | 5.78 | -26.15 | 1 | 47.1 | 44.4 | -91.2 | 13 | 72.2 |
| 2025-12-11T04:46:00 | -16.9885 | -34.9030 | 886.0 | 3.77 | -23.07 | 1 | 45.2 | 42.8 | -90.9 | 12 | 66.7 |
| 2025-12-11T04:46:00 | -16.9885 | -34.9030 | 918.0 | 20.97 | -11.15 | 4 | 44.1 | 33.5 | -94.0 | 2 | 11.1 |
| 2025-12-11T04:46:00 | -16.9885 | -34.9030 | 950.0 | 6.86 | -35.35 | 4 | 46.8 | 42.1 | -89.3 | 2 | 11.1 |
| 2025-12-11T04:46:00 | -16.9885 | -34.9030 | 982.0 | 17.85 | -17.33 | 4 | 44.3 | 41.0 | -88.8 | 1 | 5.6 |
| 2025-12-11T04:47:00 | -16.9852 | -34.9013 | 54.0 | 10.83 | -20.39 | 1 | 180.0 | 180.0 | -76.2 | 16 | 88.9 |
| 2025-12-11T04:47:00 | -16.9852 | -34.9013 | 86.0 | -0.98 | -17.98 | 1 | 154.4 | 154.4 | -81.4 | 16 | 88.9 |
| 2025-12-11T04:47:00 | -16.9852 | -34.9013 | 118.0 | 1.48 | -25.54 | 1 | 136.1 | 136.1 | -85.4 | 17 | 94.4 |
| 2025-12-11T04:47:00 | -16.9852 | -34.9013 | 150.0 | -0.85 | -20.81 | 1 | 125.8 | 125.8 | -86.9 | 17 | 94.4 |
| 2025-12-11T04:47:00 | -16.9852 | -34.9013 | 182.0 | -2.30 | -19.45 | 1 | 126.1 | 126.1 | -84.4 | 18 | 100.0 |
| 2025-12-11T04:47:00 | -16.9852 | -34.9013 | 214.0 | -6.65 | -23.43 | 1 | 112.8 | 112.8 | -87.9 | 18 | 100.0 |
| 2025-12-11T04:47:00 | -16.9852 | -34.9013 | 246.0 | -2.96 | -5.62 | 1 | 105.9 | 105.9 | -88.9 | 17 | 94.4 |
| 2025-12-11T04:47:00 | -16.9852 | -34.9013 | 278.0 | -0.29 | -10.33 | 1 | 104.5 | 104.5 | -87.8 | 17 | 94.4 |
| 2025-12-11T04:47:00 | -16.9852 | -34.9013 | 310.0 | -2.50 | -14.45 | 1 | 77.6 | 77.6 | -97.6 | 18 | 100.0 |
| 2025-12-11T04:47:00 | -16.9852 | -34.9013 | 342.0 | -11.62 | -8.87 | 1 | 71.0 | 71.0 | -98.8 | 17 | 94.4 |
| 2025-12-11T04:47:00 | -16.9852 | -34.9013 | 374.0 | -3.19 | -7.84 | 1 | 72.4 | 72.4 | -96.7 | 17 | 94.4 |
| 2025-12-11T04:47:00 | -16.9852 | -34.9013 | 406.0 | 2.78 | -15.11 | 1 | 66.8 | 66.8 | -97.7 | 17 | 94.4 |
| 2025-12-11T04:47:00 | -16.9852 | -34.9013 | 438.0 | 2.39 | -4.83 | 1 | 62.6 | 62.3 | -98.2 | 17 | 94.4 |
| 2025-12-11T04:47:00 | -16.9852 | -34.9013 | 470.0 | 1.09 | -27.05 | 1 | 63.3 | 63.4 | -96.5 | 17 | 94.4 |
| 2025-12-11T04:47:00 | -16.9852 | -34.9013 | 502.0 | 5.94 | -11.49 | 1 | 69.5 | 69.4 | -92.7 | 17 | 94.4 |
| 2025-12-11T04:47:00 | -16.9852 | -34.9013 | 534.0 | 7.29 | -15.93 | 1 | 81.2 | 80.4 | -86.8 | 17 | 94.4 |
| 2025-12-11T04:47:00 | -16.9852 | -34.9013 | 566.0 | 1.48 | -13.04 | 1 | 83.5 | 82.5 | -84.7 | 16 | 88.9 |
| 2025-12-11T04:47:00 | -16.9852 | -34.9013 | 598.0 | 5.21 | -16.67 | 1 | 77.9 | 77.7 | -85.5 | 16 | 88.9 |
| 2025-12-11T04:47:00 | -16.9852 | -34.9013 | 630.0 | 8.77 | -15.21 | 1 | 66.7 | 65.0 | -89.8 | 14 | 77.8 |
| 2025-12-11T04:47:00 | -16.9852 | -34.9013 | 662.0 | -3.20 | -15.69 | 1 | 62.8 | 62.8 | -89.6 | 18 | 100.0 |
| 2025-12-11T04:47:00 | -16.9852 | -34.9013 | 694.0 | 0.85 | -10.27 | 1 | 59.0 | 58.6 | -90.3 | 17 | 94.4 |
| 2025-12-11T04:47:00 | -16.9852 | -34.9013 | 726.0 | 2.66 | -17.90 | 1 | 54.8 | 54.2 | -91.1 | 16 | 88.9 |
| 2025-12-11T04:47:00 | -16.9852 | -34.9013 | 758.0 | 1.76 | -18.80 | 1 | 52.4 | 52.1 | -91.0 | 15 | 83.3 |
| 2025-12-11T04:47:00 | -16.9852 | -34.9013 | 790.0 | 4.07 | -18.12 | 1 | 49.6 | 48.3 | -91.6 | 16 | 88.9 |
| 2025-12-11T04:47:00 | -16.9852 | -34.9013 | 822.0 | -1.46 | -22.00 | 1 | 48.3 | 47.1 | -91.1 | 15 | 83.3 |
| 2025-12-11T04:47:00 | -16.9852 | -34.9013 | 854.0 | 4.25 | -15.69 | 1 | 45.9 | 43.6 | -91.5 | 12 | 66.7 |
| 2025-12-11T04:47:00 | -16.9852 | -34.9013 | 886.0 | -7.43 | -36.70 | 1 | 44.7 | 43.3 | -90.7 | 9 | 50.0 |
| 2025-12-11T04:47:00 | -16.9852 | -34.9013 | 918.0 | 3.63 | -23.43 | 1 | 44.8 | 39.2 | -91.5 | 6 | 33.3 |
| 2025-12-11T04:47:00 | -16.9852 | -34.9013 | 950.0 | 12.15 | -16.03 | 4 | 44.2 | 42.0 | -89.3 | 1 | 5.6 |
| 2025-12-11T04:47:00 | -16.9852 | -34.9013 | 982.0 | 5.02 | -48.24 | 4 | 45.9 | 51.0 | -84.5 | 1 | 5.6 |
| 2025-12-11T04:48:00 | -16.9819 | -34.8995 | 54.0 | 10.20 | -14.66 | 1 | 178.6 | 178.6 | -76.8 | 18 | 94.7 |
| 2025-12-11T04:48:00 | -16.9819 | -34.8995 | 86.0 | 14.44 | -20.78 | 1 | 156.6 | 156.6 | -80.5 | 15 | 78.9 |
| 2025-12-11T04:48:00 | -16.9819 | -34.8995 | 118.0 | 3.25 | -33.12 | 1 | 138.5 | 138.5 | -84.4 | 16 | 84.2 |
| 2025-12-11T04:48:00 | -16.9819 | -34.8995 | 150.0 | 7.79 | -21.74 | 1 | 126.0 | 125.5 | -87.1 | 18 | 94.7 |
| 2025-12-11T04:48:00 | -16.9819 | -34.8995 | 182.0 | -6.82 | -15.31 | 1 | 125.9 | 125.0 | -84.8 | 16 | 84.2 |
| 2025-12-11T04:48:00 | -16.9819 | -34.8995 | 214.0 | -2.36 | -14.70 | 1 | 112.9 | 112.8 | -87.9 | 16 | 84.2 |
| 2025-12-11T04:48:00 | -16.9819 | -34.8995 | 246.0 | -4.29 | -12.64 | 1 | 108.6 | 108.6 | -87.8 | 18 | 94.7 |
| 2025-12-11T04:48:00 | -16.9819 | -34.8995 | 278.0 | -8.69 | -17.62 | 1 | 104.6 | 104.6 | -87.7 | 19 | 100.0 |
| 2025-12-11T04:48:00 | -16.9819 | -34.8995 | 310.0 | 0.70 | -21.70 | 1 | 79.0 | 79.0 | -97.0 | 19 | 100.0 |
| 2025-12-11T04:48:00 | -16.9819 | -34.8995 | 342.0 | 1.92 | -5.38 | 1 | 72.9 | 72.9 | -98.0 | 18 | 94.7 |
| 2025-12-11T04:48:00 | -16.9819 | -34.8995 | 374.0 | -6.87 | -10.55 | 1 | 72.5 | 72.5 | -96.7 | 19 | 100.0 |
| 2025-12-11T04:48:00 | -16.9819 | -34.8995 | 406.0 | 4.72 | 2.11 | 1 | 68.0 | 68.0 | -97.2 | 18 | 94.7 |
| 2025-12-11T04:48:00 | -16.9819 | -34.8995 | 438.0 | 1.98 | -9.19 | 1 | 63.2 | 63.2 | -97.9 | 19 | 100.0 |
| 2025-12-11T04:48:00 | -16.9819 | -34.8995 | 470.0 | 4.31 | -13.79 | 1 | 64.0 | 64.0 | -96.2 | 17 | 89.5 |
| 2025-12-11T04:48:00 | -16.9819 | -34.8995 | 502.0 | 3.80 | -8.56 | 1 | 66.2 | 65.4 | -94.4 | 17 | 89.5 |
| 2025-12-11T04:48:00 | -16.9819 | -34.8995 | 534.0 | -3.00 | -14.09 | 1 | 80.2 | 78.7 | -87.5 | 14 | 73.7 |
| 2025-12-11T04:48:00 | -16.9819 | -34.8995 | 566.0 | 13.09 | -7.45 | 1 | 81.1 | 80.8 | -85.4 | 17 | 89.5 |
| 2025-12-11T04:48:00 | -16.9819 | -34.8995 | 598.0 | 4.58 | -15.50 | 1 | 77.4 | 77.4 | -85.7 | 17 | 89.5 |
| 2025-12-11T04:48:00 | -16.9819 | -34.8995 | 630.0 | 1.40 | -21.71 | 1 | 64.7 | 64.7 | -89.9 | 18 | 94.7 |
| 2025-12-11T04:48:00 | -16.9819 | -34.8995 | 662.0 | 1.11 | -12.90 | 1 | 61.1 | 60.9 | -90.4 | 17 | 89.5 |
| 2025-12-11T04:48:00 | -16.9819 | -34.8995 | 694.0 | -11.66 | -11.88 | 1 | 57.9 | 57.5 | -90.8 | 16 | 84.2 |
| 2025-12-11T04:48:00 | -16.9819 | -34.8995 | 726.0 | 3.23 | -14.07 | 1 | 58.3 | 57.3 | -89.8 | 17 | 89.5 |
| 2025-12-11T04:48:00 | -16.9819 | -34.8995 | 758.0 | -0.81 | -20.12 | 1 | 50.5 | 50.3 | -91.7 | 18 | 94.7 |
| 2025-12-11T04:48:00 | -16.9819 | -34.8995 | 790.0 | -0.04 | -13.53 | 1 | 50.9 | 50.9 | -90.4 | 18 | 94.7 |
| 2025-12-11T04:48:00 | -16.9819 | -34.8995 | 822.0 | -9.88 | -23.63 | 1 | 49.5 | 48.6 | -90.4 | 18 | 94.7 |
| 2025-12-11T04:48:00 | -16.9819 | -34.8995 | 854.0 | -3.64 | -25.49 | 1 | 43.4 | 41.8 | -92.3 | 16 | 84.2 |
| 2025-12-11T04:48:00 | -16.9819 | -34.8995 | 886.0 | -2.64 | -30.02 | 1 | 45.9 | 45.5 | -89.7 | 7 | 36.8 |
| 2025-12-11T04:48:00 | -16.9819 | -34.8995 | 918.0 | -3.66 | -23.89 | 1 | 43.5 | 38.3 | -91.9 | 6 | 31.6 |
| 2025-12-11T04:48:00 | -16.9819 | -34.8995 | 950.0 | 6.50 | -22.02 | 4 | 44.9 | 39.5 | -90.4 | 1 | 5.3 |
| 2025-12-11T04:48:00 | -16.9819 | -34.8995 | 982.0 | 16.69 | -20.28 | 4 | 43.4 | 31.8 | -92.8 | 1 | 5.3 |
| 2025-12-11T04:49:00 | -16.9787 | -34.8978 | 54.0 | 13.92 | -17.81 | 1 | 179.2 | 179.2 | -76.5 | 16 | 88.9 |
| 2025-12-11T04:49:00 | -16.9787 | -34.8978 | 86.0 | -0.30 | -23.49 | 1 | 157.7 | 157.7 | -80.0 | 17 | 94.4 |
| 2025-12-11T04:49:00 | -16.9787 | -34.8978 | 118.0 | -1.25 | -11.03 | 1 | 138.2 | 138.2 | -84.5 | 17 | 94.4 |
| 2025-12-11T04:49:00 | -16.9787 | -34.8978 | 150.0 | 4.22 | -14.76 | 1 | 125.6 | 125.6 | -87.0 | 16 | 88.9 |
| 2025-12-11T04:49:00 | -16.9787 | -34.8978 | 182.0 | -9.88 | -12.57 | 1 | 126.3 | 126.3 | -84.3 | 18 | 100.0 |
| 2025-12-11T04:49:00 | -16.9787 | -34.8978 | 214.0 | -12.81 | -18.68 | 1 | 116.4 | 115.8 | -86.6 | 15 | 83.3 |
| 2025-12-11T04:49:00 | -16.9787 | -34.8978 | 246.0 | -12.87 | -13.59 | 1 | 108.8 | 108.9 | -87.7 | 17 | 94.4 |
| 2025-12-11T04:49:00 | -16.9787 | -34.8978 | 278.0 | -5.76 | -15.63 | 1 | 104.9 | 104.7 | -87.7 | 14 | 77.8 |
| 2025-12-11T04:49:00 | -16.9787 | -34.8978 | 310.0 | -0.96 | -18.74 | 1 | 78.3 | 77.4 | -97.7 | 14 | 77.8 |
| 2025-12-11T04:49:00 | -16.9787 | -34.8978 | 342.0 | 2.92 | -11.47 | 1 | 73.5 | 73.1 | -97.9 | 15 | 83.3 |
| 2025-12-11T04:49:00 | -16.9787 | -34.8978 | 374.0 | -3.20 | -11.49 | 1 | 74.7 | 74.2 | -96.0 | 17 | 94.4 |
| 2025-12-11T04:49:00 | -16.9787 | -34.8978 | 406.0 | 8.53 | -8.17 | 1 | 67.1 | 67.3 | -97.5 | 16 | 88.9 |
| 2025-12-11T04:49:00 | -16.9787 | -34.8978 | 438.0 | -1.51 | -15.62 | 1 | 63.4 | 62.6 | -98.1 | 16 | 88.9 |
| 2025-12-11T04:49:00 | -16.9787 | -34.8978 | 470.0 | 1.82 | -9.75 | 1 | 61.1 | 60.0 | -98.0 | 16 | 88.9 |
| 2025-12-11T04:49:00 | -16.9787 | -34.8978 | 502.0 | 0.76 | -5.82 | 1 | 64.0 | 63.7 | -95.1 | 15 | 83.3 |
| 2025-12-11T04:49:00 | -16.9787 | -34.8978 | 534.0 | 0.81 | -1.90 | 1 | 79.3 | 78.8 | -87.4 | 17 | 94.4 |
| 2025-12-11T04:49:00 | -16.9787 | -34.8978 | 566.0 | -2.97 | -4.27 | 1 | 83.0 | 83.0 | -84.5 | 17 | 94.4 |
| 2025-12-11T04:49:00 | -16.9787 | -34.8978 | 598.0 | 4.74 | -20.89 | 1 | 77.8 | 77.8 | -85.5 | 18 | 100.0 |
| 2025-12-11T04:49:00 | -16.9787 | -34.8978 | 630.0 | 2.20 | -26.56 | 1 | 63.4 | 62.3 | -91.0 | 16 | 88.9 |
| 2025-12-11T04:49:00 | -16.9787 | -34.8978 | 662.0 | -1.64 | -19.96 | 1 | 62.2 | 62.2 | -89.9 | 18 | 100.0 |
| 2025-12-11T04:49:00 | -16.9787 | -34.8978 | 694.0 | -3.41 | -14.54 | 1 | 58.0 | 58.0 | -90.6 | 18 | 100.0 |
| 2025-12-11T04:49:00 | -16.9787 | -34.8978 | 726.0 | 2.64 | -18.15 | 1 | 55.4 | 55.4 | -90.6 | 18 | 100.0 |
| 2025-12-11T04:49:00 | -16.9787 | -34.8978 | 758.0 | -7.06 | -28.38 | 1 | 50.3 | 50.3 | -91.7 | 17 | 94.4 |
| 2025-12-11T04:49:00 | -16.9787 | -34.8978 | 790.0 | 4.76 | -24.10 | 1 | 53.8 | 51.2 | -90.3 | 16 | 88.9 |
| 2025-12-11T04:49:00 | -16.9787 | -34.8978 | 822.0 | 4.10 | -25.56 | 1 | 47.7 | 46.3 | -91.4 | 15 | 83.3 |
| 2025-12-11T04:49:00 | -16.9787 | -34.8978 | 854.0 | 9.31 | -24.84 | 1 | 46.5 | 42.4 | -92.1 | 9 | 50.0 |
| 2025-12-11T04:49:00 | -16.9787 | -34.8978 | 886.0 | 2.94 | -13.91 | 1 | 43.5 | 38.0 | -93.0 | 6 | 33.3 |
| 2025-12-11T04:49:00 | -16.9787 | -34.8978 | 918.0 | 10.23 | -27.10 | 1 | 46.2 | 42.9 | -89.9 | 5 | 27.8 |
| 2025-12-11T04:49:00 | -16.9787 | -34.8978 | 950.0 | 10.16 | -41.82 | 4 | 43.7 | 46.5 | -87.4 | 1 | 5.6 |
| 2025-12-11T04:50:00 | -16.9756 | -34.8961 | 54.0 | 12.82 | -11.93 | 1 | 178.1 | 178.1 | -77.0 | 15 | 88.2 |
| 2025-12-11T04:50:00 | -16.9756 | -34.8961 | 86.0 | 2.17 | -24.68 | 1 | 159.2 | 159.2 | -79.4 | 13 | 76.5 |
| 2025-12-11T04:50:00 | -16.9756 | -34.8961 | 118.0 | 7.90 | -42.45 | 1 | 137.6 | 137.6 | -84.8 | 16 | 94.1 |
| 2025-12-11T04:50:00 | -16.9756 | -34.8961 | 150.0 | 3.53 | -33.04 | 1 | 125.0 | 125.0 | -87.3 | 16 | 94.1 |
| 2025-12-11T04:50:00 | -16.9756 | -34.8961 | 182.0 | -10.26 | -23.65 | 1 | 127.0 | 127.0 | -84.0 | 17 | 100.0 |
| 2025-12-11T04:50:00 | -16.9756 | -34.8961 | 214.0 | -5.46 | -18.05 | 1 | 114.6 | 114.6 | -87.1 | 16 | 94.1 |
| 2025-12-11T04:50:00 | -16.9756 | -34.8961 | 246.0 | -2.98 | -4.17 | 1 | 110.0 | 110.0 | -87.2 | 16 | 94.1 |
| 2025-12-11T04:50:00 | -16.9756 | -34.8961 | 278.0 | 0.27 | -14.09 | 1 | 104.0 | 104.0 | -88.0 | 17 | 100.0 |
| 2025-12-11T04:50:00 | -16.9756 | -34.8961 | 310.0 | -6.63 | -17.18 | 1 | 81.1 | 80.6 | -96.3 | 14 | 82.4 |
| 2025-12-11T04:50:00 | -16.9756 | -34.8961 | 342.0 | -8.12 | -5.68 | 1 | 74.0 | 73.3 | -97.8 | 16 | 94.1 |
| 2025-12-11T04:50:00 | -16.9756 | -34.8961 | 374.0 | 2.09 | -10.56 | 1 | 73.1 | 71.5 | -97.1 | 14 | 82.4 |
| 2025-12-11T04:50:00 | -16.9756 | -34.8961 | 406.0 | 10.53 | -12.25 | 1 | 68.1 | 67.8 | -97.3 | 16 | 94.1 |
| 2025-12-11T04:50:00 | -16.9756 | -34.8961 | 438.0 | 7.24 | -15.64 | 1 | 61.3 | 60.5 | -99.0 | 16 | 94.1 |
| 2025-12-11T04:50:00 | -16.9756 | -34.8961 | 470.0 | 5.06 | -8.23 | 1 | 62.9 | 61.1 | -97.5 | 14 | 82.4 |
| 2025-12-11T04:50:00 | -16.9756 | -34.8961 | 502.0 | 5.43 | -5.47 | 1 | 63.6 | 63.0 | -95.4 | 14 | 82.4 |
| 2025-12-11T04:50:00 | -16.9756 | -34.8961 | 534.0 | 9.17 | -15.68 | 1 | 76.5 | 76.5 | -88.4 | 17 | 100.0 |
| 2025-12-11T04:50:00 | -16.9756 | -34.8961 | 566.0 | 9.20 | -13.33 | 1 | 82.6 | 82.6 | -84.6 | 16 | 94.1 |
| 2025-12-11T04:50:00 | -16.9756 | -34.8961 | 598.0 | -5.58 | -20.64 | 1 | 79.2 | 79.2 | -84.9 | 17 | 100.0 |
| 2025-12-11T04:50:00 | -16.9756 | -34.8961 | 630.0 | 0.10 | -25.40 | 1 | 64.4 | 64.4 | -90.0 | 17 | 100.0 |
| 2025-12-11T04:50:00 | -16.9756 | -34.8961 | 662.0 | 2.94 | -16.14 | 1 | 60.7 | 60.2 | -90.7 | 15 | 88.2 |
| 2025-12-11T04:50:00 | -16.9756 | -34.8961 | 694.0 | -8.06 | -12.97 | 1 | 57.2 | 56.7 | -91.1 | 13 | 76.5 |
| 2025-12-11T04:50:00 | -16.9756 | -34.8961 | 726.0 | -4.02 | -18.48 | 1 | 54.1 | 52.8 | -91.7 | 12 | 70.6 |
| 2025-12-11T04:50:00 | -16.9756 | -34.8961 | 758.0 | -3.68 | -15.74 | 1 | 51.1 | 50.4 | -91.7 | 13 | 76.5 |
| 2025-12-11T04:50:00 | -16.9756 | -34.8961 | 790.0 | -0.75 | -9.75 | 1 | 53.8 | 52.7 | -89.6 | 15 | 88.2 |
| 2025-12-11T04:50:00 | -16.9756 | -34.8961 | 822.0 | 3.85 | -26.70 | 1 | 47.5 | 45.7 | -91.6 | 15 | 88.2 |
| 2025-12-11T04:50:00 | -16.9756 | -34.8961 | 854.0 | 0.11 | -21.03 | 1 | 43.4 | 42.9 | -91.8 | 16 | 94.1 |
| 2025-12-11T04:50:00 | -16.9756 | -34.8961 | 886.0 | -1.73 | -18.59 | 1 | 42.4 | 42.0 | -91.3 | 9 | 52.9 |
| 2025-12-11T04:50:00 | -16.9756 | -34.8961 | 918.0 | -9.86 | -17.29 | 1 | 41.3 | 41.7 | -90.4 | 6 | 35.3 |
| 2025-12-11T04:50:00 | -16.9756 | -34.8961 | 950.0 | 8.13 | -37.60 | 4 | 44.2 | 31.9 | -93.7 | 2 | 11.8 |
| 2025-12-11T04:51:00 | -16.9724 | -34.8943 | 54.0 | -3.03 | -7.33 | 1 | 177.4 | 177.4 | -77.3 | 19 | 100.0 |
| 2025-12-11T04:51:00 | -16.9724 | -34.8943 | 86.0 | 1.21 | -35.57 | 1 | 157.2 | 157.2 | -80.2 | 18 | 94.7 |
| 2025-12-11T04:51:00 | -16.9724 | -34.8943 | 118.0 | 2.33 | -31.41 | 1 | 139.1 | 139.1 | -84.2 | 17 | 89.5 |
| 2025-12-11T04:51:00 | -16.9724 | -34.8943 | 150.0 | 3.08 | -24.27 | 1 | 127.1 | 127.1 | -86.4 | 18 | 94.7 |
| 2025-12-11T04:51:00 | -16.9724 | -34.8943 | 182.0 | -4.90 | -13.01 | 1 | 125.1 | 125.1 | -84.8 | 18 | 94.7 |
| 2025-12-11T04:51:00 | -16.9724 | -34.8943 | 214.0 | -3.84 | -14.73 | 1 | 113.6 | 113.6 | -87.6 | 17 | 89.5 |
| 2025-12-11T04:51:00 | -16.9724 | -34.8943 | 246.0 | -6.62 | -12.47 | 1 | 108.9 | 108.9 | -87.7 | 18 | 94.7 |
| 2025-12-11T04:51:00 | -16.9724 | -34.8943 | 278.0 | 1.70 | -13.82 | 1 | 102.0 | 101.4 | -89.1 | 17 | 89.5 |
| 2025-12-11T04:51:00 | -16.9724 | -34.8943 | 310.0 | 0.87 | -8.44 | 1 | 79.1 | 78.7 | -97.1 | 17 | 89.5 |
| 2025-12-11T04:51:00 | -16.9724 | -34.8943 | 342.0 | 1.87 | 2.86 | 1 | 71.6 | 71.6 | -98.5 | 18 | 94.7 |
| 2025-12-11T04:51:00 | -16.9724 | -34.8943 | 374.0 | -2.68 | -4.10 | 1 | 71.9 | 71.9 | -96.9 | 19 | 100.0 |
| 2025-12-11T04:51:00 | -16.9724 | -34.8943 | 406.0 | -2.24 | -20.73 | 1 | 68.4 | 68.4 | -97.0 | 19 | 100.0 |
| 2025-12-11T04:51:00 | -16.9724 | -34.8943 | 438.0 | 7.52 | -11.98 | 1 | 62.9 | 62.9 | -98.0 | 19 | 100.0 |
| 2025-12-11T04:51:00 | -16.9724 | -34.8943 | 470.0 | 0.96 | -8.62 | 1 | 63.3 | 63.3 | -96.5 | 18 | 94.7 |
| 2025-12-11T04:51:00 | -16.9724 | -34.8943 | 502.0 | 5.73 | -3.50 | 1 | 66.1 | 66.1 | -94.1 | 19 | 100.0 |
| 2025-12-11T04:51:00 | -16.9724 | -34.8943 | 534.0 | 2.22 | -8.77 | 1 | 75.4 | 75.4 | -88.9 | 18 | 94.7 |
| 2025-12-11T04:51:00 | -16.9724 | -34.8943 | 566.0 | 3.00 | -12.06 | 1 | 81.2 | 81.2 | -85.2 | 19 | 100.0 |
| 2025-12-11T04:51:00 | -16.9724 | -34.8943 | 598.0 | 4.13 | -11.40 | 1 | 76.8 | 76.8 | -85.9 | 18 | 94.7 |
| 2025-12-11T04:51:00 | -16.9724 | -34.8943 | 630.0 | -0.60 | -17.04 | 1 | 62.7 | 62.7 | -90.8 | 18 | 94.7 |
| 2025-12-11T04:51:00 | -16.9724 | -34.8943 | 662.0 | -7.01 | -15.91 | 1 | 60.4 | 60.4 | -90.7 | 19 | 100.0 |
| 2025-12-11T04:51:00 | -16.9724 | -34.8943 | 694.0 | -1.71 | -11.54 | 1 | 57.8 | 57.5 | -90.8 | 18 | 94.7 |
| 2025-12-11T04:51:00 | -16.9724 | -34.8943 | 726.0 | -1.56 | -16.37 | 1 | 54.5 | 53.8 | -91.3 | 18 | 94.7 |
| 2025-12-11T04:51:00 | -16.9724 | -34.8943 | 758.0 | 3.60 | -16.20 | 1 | 54.1 | 52.3 | -90.9 | 16 | 84.2 |
| 2025-12-11T04:51:00 | -16.9724 | -34.8943 | 790.0 | 10.83 | -14.73 | 1 | 55.1 | 51.0 | -90.4 | 14 | 73.7 |
| 2025-12-11T04:51:00 | -16.9724 | -34.8943 | 822.0 | 0.83 | -25.70 | 1 | 47.8 | 45.1 | -91.9 | 16 | 84.2 |
| 2025-12-11T04:51:00 | -16.9724 | -34.8943 | 854.0 | 7.75 | -18.83 | 1 | 45.3 | 41.4 | -92.5 | 10 | 52.6 |
| 2025-12-11T04:51:00 | -16.9724 | -34.8943 | 886.0 | -5.65 | -22.27 | 1 | 47.6 | 45.6 | -89.7 | 9 | 47.4 |
| 2025-12-11T04:51:00 | -16.9724 | -34.8943 | 918.0 | 1.82 | -35.33 | 4 | 43.8 | 38.3 | -91.9 | 3 | 15.8 |
| 2025-12-11T04:52:00 | -16.9691 | -34.8926 | 54.0 | 11.17 | -17.48 | 1 | 177.0 | 177.0 | -77.4 | 18 | 100.0 |
| 2025-12-11T04:52:00 | -16.9691 | -34.8926 | 86.0 | 3.20 | -24.46 | 1 | 158.9 | 158.9 | -79.5 | 17 | 94.4 |
| 2025-12-11T04:52:00 | -16.9691 | -34.8926 | 118.0 | 2.68 | -11.60 | 1 | 140.0 | 140.0 | -83.8 | 18 | 100.0 |
| 2025-12-11T04:52:00 | -16.9691 | -34.8926 | 150.0 | -3.77 | -16.72 | 1 | 126.1 | 125.9 | -86.9 | 16 | 88.9 |
| 2025-12-11T04:52:00 | -16.9691 | -34.8926 | 182.0 | -4.32 | -26.89 | 1 | 125.0 | 124.9 | -84.9 | 17 | 94.4 |
| 2025-12-11T04:52:00 | -16.9691 | -34.8926 | 214.0 | -14.81 | -8.82 | 1 | 113.0 | 113.0 | -87.8 | 15 | 83.3 |
| 2025-12-11T04:52:00 | -16.9691 | -34.8926 | 246.0 | -5.93 | -11.29 | 1 | 109.1 | 109.1 | -87.6 | 18 | 100.0 |
| 2025-12-11T04:52:00 | -16.9691 | -34.8926 | 278.0 | -10.91 | -13.35 | 1 | 104.4 | 104.4 | -87.8 | 17 | 94.4 |
| 2025-12-11T04:52:00 | -16.9691 | -34.8926 | 310.0 | 5.52 | -7.67 | 1 | 81.3 | 81.3 | -96.0 | 17 | 94.4 |
| 2025-12-11T04:52:00 | -16.9691 | -34.8926 | 342.0 | -8.96 | -9.15 | 1 | 71.7 | 71.7 | -98.5 | 18 | 100.0 |
| 2025-12-11T04:52:00 | -16.9691 | -34.8926 | 374.0 | 1.01 | -7.10 | 1 | 72.0 | 72.0 | -96.9 | 18 | 100.0 |
| 2025-12-11T04:52:00 | -16.9691 | -34.8926 | 406.0 | -1.74 | -8.62 | 1 | 68.8 | 68.8 | -96.9 | 18 | 100.0 |
| 2025-12-11T04:52:00 | -16.9691 | -34.8926 | 438.0 | -3.78 | -8.94 | 1 | 63.5 | 63.2 | -97.9 | 17 | 94.4 |
| 2025-12-11T04:52:00 | -16.9691 | -34.8926 | 470.0 | 3.60 | -16.97 | 1 | 62.3 | 62.3 | -97.0 | 18 | 100.0 |
| 2025-12-11T04:52:00 | -16.9691 | -34.8926 | 502.0 | 5.68 | -9.56 | 1 | 64.8 | 64.8 | -94.6 | 16 | 88.9 |
| 2025-12-11T04:52:00 | -16.9691 | -34.8926 | 534.0 | 9.66 | -4.17 | 1 | 77.1 | 77.1 | -88.2 | 17 | 94.4 |
| 2025-12-11T04:52:00 | -16.9691 | -34.8926 | 566.0 | -0.35 | -9.21 | 1 | 78.9 | 78.9 | -86.2 | 18 | 100.0 |
| 2025-12-11T04:52:00 | -16.9691 | -34.8926 | 598.0 | 8.54 | -12.18 | 1 | 78.1 | 78.1 | -85.4 | 17 | 94.4 |
| 2025-12-11T04:52:00 | -16.9691 | -34.8926 | 630.0 | 3.80 | -26.40 | 1 | 63.4 | 63.4 | -90.5 | 18 | 100.0 |
| 2025-12-11T04:52:00 | -16.9691 | -34.8926 | 662.0 | -4.94 | -24.98 | 1 | 58.6 | 58.6 | -91.4 | 18 | 100.0 |
| 2025-12-11T04:52:00 | -16.9691 | -34.8926 | 694.0 | -5.04 | -12.95 | 1 | 57.5 | 57.5 | -90.8 | 18 | 100.0 |
| 2025-12-11T04:52:00 | -16.9691 | -34.8926 | 726.0 | -4.80 | -23.72 | 1 | 54.4 | 54.0 | -91.2 | 17 | 94.4 |
| 2025-12-11T04:52:00 | -16.9691 | -34.8926 | 758.0 | -11.61 | -11.79 | 1 | 49.5 | 48.1 | -92.6 | 14 | 77.8 |
| 2025-12-11T04:52:00 | -16.9691 | -34.8926 | 790.0 | 0.87 | -16.35 | 1 | 50.7 | 48.7 | -91.4 | 16 | 88.9 |
| 2025-12-11T04:52:00 | -16.9691 | -34.8926 | 822.0 | -6.58 | -24.14 | 1 | 46.1 | 45.0 | -92.0 | 16 | 88.9 |
| 2025-12-11T04:52:00 | -16.9691 | -34.8926 | 854.0 | -1.33 | -19.66 | 1 | 41.1 | 40.2 | -93.0 | 15 | 83.3 |
| 2025-12-11T04:52:00 | -16.9691 | -34.8926 | 886.0 | -19.33 | -23.37 | 1 | 45.1 | 42.6 | -91.0 | 5 | 27.8 |
| 2025-12-11T04:52:00 | -16.9691 | -34.8926 | 918.0 | 3.36 | -25.44 | 1 | 41.2 | 38.9 | -91.6 | 5 | 27.8 |
| 2025-12-11T04:52:00 | -16.9691 | -34.8926 | 950.0 | -1.25 | -27.64 | 4 | 40.3 | 36.2 | -91.8 | 1 | 5.6 |
| 2025-12-11T04:53:00 | -16.9659 | -34.8908 | 54.0 | 17.65 | -20.06 | 1 | 175.9 | 175.9 | -77.9 | 18 | 100.0 |
| 2025-12-11T04:53:00 | -16.9659 | -34.8908 | 86.0 | 5.89 | -33.69 | 1 | 159.9 | 159.9 | -79.1 | 16 | 88.9 |
| 2025-12-11T04:53:00 | -16.9659 | -34.8908 | 118.0 | -0.57 | -28.52 | 1 | 139.7 | 139.7 | -83.9 | 18 | 100.0 |
| 2025-12-11T04:53:00 | -16.9659 | -34.8908 | 150.0 | 3.42 | -19.56 | 1 | 124.3 | 124.3 | -87.6 | 17 | 94.4 |
| 2025-12-11T04:53:00 | -16.9659 | -34.8908 | 182.0 | -13.55 | -25.62 | 1 | 124.6 | 124.6 | -85.0 | 17 | 94.4 |
| 2025-12-11T04:53:00 | -16.9659 | -34.8908 | 214.0 | -11.49 | -16.84 | 1 | 111.0 | 110.6 | -88.9 | 17 | 94.4 |
| 2025-12-11T04:53:00 | -16.9659 | -34.8908 | 246.0 | -2.95 | -10.34 | 1 | 108.3 | 108.0 | -88.0 | 15 | 83.3 |
| 2025-12-11T04:53:00 | -16.9659 | -34.8908 | 278.0 | -7.96 | -12.42 | 1 | 104.1 | 103.6 | -88.2 | 17 | 94.4 |
| 2025-12-11T04:53:00 | -16.9659 | -34.8908 | 310.0 | 5.33 | -7.04 | 1 | 82.0 | 81.6 | -95.8 | 16 | 88.9 |
| 2025-12-11T04:53:00 | -16.9659 | -34.8908 | 342.0 | -6.76 | -5.13 | 1 | 74.4 | 74.4 | -97.4 | 18 | 100.0 |
| 2025-12-11T04:53:00 | -16.9659 | -34.8908 | 374.0 | -2.91 | -5.47 | 1 | 73.9 | 73.9 | -96.1 | 17 | 94.4 |
| 2025-12-11T04:53:00 | -16.9659 | -34.8908 | 406.0 | 5.57 | -10.03 | 1 | 71.1 | 71.1 | -95.9 | 18 | 100.0 |
| 2025-12-11T04:53:00 | -16.9659 | -34.8908 | 438.0 | 7.63 | -9.27 | 1 | 63.2 | 63.2 | -97.9 | 18 | 100.0 |
| 2025-12-11T04:53:00 | -16.9659 | -34.8908 | 470.0 | 7.49 | -13.68 | 1 | 63.5 | 63.5 | -96.5 | 16 | 88.9 |
| 2025-12-11T04:53:00 | -16.9659 | -34.8908 | 502.0 | 4.00 | -6.49 | 1 | 64.5 | 64.5 | -94.8 | 18 | 100.0 |
| 2025-12-11T04:53:00 | -16.9659 | -34.8908 | 534.0 | 1.43 | -9.09 | 1 | 73.3 | 73.3 | -89.8 | 17 | 94.4 |
| 2025-12-11T04:53:00 | -16.9659 | -34.8908 | 566.0 | 4.89 | -10.39 | 1 | 79.2 | 79.2 | -86.1 | 16 | 88.9 |
| 2025-12-11T04:53:00 | -16.9659 | -34.8908 | 598.0 | -1.62 | -12.27 | 1 | 76.4 | 76.0 | -86.3 | 15 | 83.3 |
| 2025-12-11T04:53:00 | -16.9659 | -34.8908 | 630.0 | -3.47 | -13.90 | 1 | 63.1 | 62.5 | -90.9 | 16 | 88.9 |
| 2025-12-11T04:53:00 | -16.9659 | -34.8908 | 662.0 | -6.35 | -7.17 | 1 | 58.8 | 58.4 | -91.5 | 17 | 94.4 |
| 2025-12-11T04:53:00 | -16.9659 | -34.8908 | 694.0 | -4.85 | -6.35 | 1 | 59.4 | 56.8 | -91.1 | 15 | 83.3 |
| 2025-12-11T04:53:00 | -16.9659 | -34.8908 | 726.0 | 4.77 | -16.94 | 1 | 55.4 | 54.0 | -91.2 | 15 | 83.3 |
| 2025-12-11T04:53:00 | -16.9659 | -34.8908 | 758.0 | -4.26 | -24.93 | 1 | 50.2 | 49.7 | -92.0 | 17 | 94.4 |
| 2025-12-11T04:53:00 | -16.9659 | -34.8908 | 790.0 | -1.00 | -22.37 | 1 | 50.2 | 47.3 | -92.0 | 14 | 77.8 |
| 2025-12-11T04:53:00 | -16.9659 | -34.8908 | 822.0 | -5.79 | -23.58 | 1 | 43.2 | 42.4 | -93.0 | 15 | 83.3 |
| 2025-12-11T04:53:00 | -16.9659 | -34.8908 | 854.0 | -9.14 | -22.62 | 1 | 43.2 | 41.1 | -92.6 | 12 | 66.7 |
| 2025-12-11T04:53:00 | -16.9659 | -34.8908 | 886.0 | -2.37 | -27.68 | 1 | 41.3 | 37.8 | -93.0 | 11 | 61.1 |
| 2025-12-11T04:53:00 | -16.9659 | -34.8908 | 918.0 | 4.71 | -25.37 | 1 | 40.2 | 36.4 | -92.7 | 5 | 27.8 |
| 2025-12-11T04:53:00 | -16.9659 | -34.8908 | 950.0 | 2.25 | -35.60 | 1 | 39.1 | 39.6 | -90.3 | 5 | 27.8 |
| 2025-12-11T04:53:00 | -16.9659 | -34.8908 | 982.0 | -1.32 | -67.29 | 4 | 41.5 | 34.2 | -91.7 | 1 | 5.6 |
| 2025-12-11T04:54:00 | -16.9627 | -34.8890 | 54.0 | 10.17 | -32.35 | 1 | 175.2 | 175.2 | -78.2 | 15 | 83.3 |
| 2025-12-11T04:54:00 | -16.9627 | -34.8890 | 86.0 | 3.67 | -29.53 | 1 | 158.2 | 158.2 | -79.8 | 16 | 88.9 |
| 2025-12-11T04:54:00 | -16.9627 | -34.8890 | 118.0 | 1.29 | -29.13 | 1 | 140.9 | 140.9 | -83.4 | 16 | 88.9 |
| 2025-12-11T04:54:00 | -16.9627 | -34.8890 | 150.0 | -2.97 | -28.75 | 1 | 125.7 | 125.7 | -87.0 | 17 | 94.4 |
| 2025-12-11T04:54:00 | -16.9627 | -34.8890 | 182.0 | -7.90 | -25.72 | 1 | 124.8 | 124.8 | -84.9 | 17 | 94.4 |
| 2025-12-11T04:54:00 | -16.9627 | -34.8890 | 214.0 | -1.39 | -18.32 | 1 | 110.8 | 110.7 | -88.8 | 15 | 83.3 |
| 2025-12-11T04:54:00 | -16.9627 | -34.8890 | 246.0 | -9.18 | -7.39 | 1 | 105.1 | 105.1 | -89.3 | 17 | 94.4 |
| 2025-12-11T04:54:00 | -16.9627 | -34.8890 | 278.0 | 3.12 | -9.32 | 1 | 103.7 | 103.2 | -88.3 | 17 | 94.4 |
| 2025-12-11T04:54:00 | -16.9627 | -34.8890 | 310.0 | -3.42 | -17.97 | 1 | 83.4 | 82.6 | -95.4 | 17 | 94.4 |
| 2025-12-11T04:54:00 | -16.9627 | -34.8890 | 342.0 | -1.17 | -4.66 | 1 | 73.2 | 72.4 | -98.2 | 16 | 88.9 |
| 2025-12-11T04:54:00 | -16.9627 | -34.8890 | 374.0 | -3.30 | -3.09 | 1 | 72.3 | 71.6 | -97.1 | 15 | 83.3 |
| 2025-12-11T04:54:00 | -16.9627 | -34.8890 | 406.0 | -4.19 | -4.91 | 1 | 72.8 | 72.8 | -95.1 | 17 | 94.4 |
| 2025-12-11T04:54:00 | -16.9627 | -34.8890 | 438.0 | 6.63 | -4.92 | 1 | 65.2 | 64.8 | -97.2 | 17 | 94.4 |
| 2025-12-11T04:54:00 | -16.9627 | -34.8890 | 470.0 | 6.90 | -6.77 | 1 | 63.3 | 63.0 | -96.7 | 17 | 94.4 |
| 2025-12-11T04:54:00 | -16.9627 | -34.8890 | 502.0 | 9.03 | -13.31 | 1 | 66.2 | 66.2 | -94.0 | 17 | 94.4 |
| 2025-12-11T04:54:00 | -16.9627 | -34.8890 | 534.0 | 6.77 | -15.35 | 1 | 78.2 | 77.6 | -88.0 | 16 | 88.9 |
| 2025-12-11T04:54:00 | -16.9627 | -34.8890 | 566.0 | -2.72 | -6.30 | 1 | 82.8 | 82.2 | -84.8 | 17 | 94.4 |
| 2025-12-11T04:54:00 | -16.9627 | -34.8890 | 598.0 | 4.50 | -15.11 | 1 | 79.0 | 79.0 | -85.0 | 17 | 94.4 |
| 2025-12-11T04:54:00 | -16.9627 | -34.8890 | 630.0 | -2.43 | -20.98 | 1 | 64.9 | 64.9 | -89.8 | 17 | 94.4 |
| 2025-12-11T04:54:00 | -16.9627 | -34.8890 | 662.0 | -5.40 | -19.08 | 1 | 60.0 | 60.0 | -90.8 | 17 | 94.4 |
| 2025-12-11T04:54:00 | -16.9627 | -34.8890 | 694.0 | 2.43 | -18.19 | 1 | 57.7 | 57.7 | -90.7 | 18 | 100.0 |
| 2025-12-11T04:54:00 | -16.9627 | -34.8890 | 726.0 | 0.15 | -17.44 | 1 | 53.4 | 53.4 | -91.4 | 18 | 100.0 |
| 2025-12-11T04:54:00 | -16.9627 | -34.8890 | 758.0 | 1.73 | -20.23 | 1 | 49.7 | 49.7 | -92.0 | 17 | 94.4 |
| 2025-12-11T04:54:00 | -16.9627 | -34.8890 | 790.0 | 5.77 | -18.27 | 1 | 50.0 | 49.8 | -90.9 | 17 | 94.4 |
| 2025-12-11T04:54:00 | -16.9627 | -34.8890 | 822.0 | 8.45 | -20.13 | 1 | 47.3 | 45.6 | -91.7 | 16 | 88.9 |
| 2025-12-11T04:54:00 | -16.9627 | -34.8890 | 854.0 | -0.82 | -19.92 | 1 | 42.8 | 41.6 | -92.4 | 12 | 66.7 |
| 2025-12-11T04:54:00 | -16.9627 | -34.8890 | 886.0 | -1.70 | -22.56 | 1 | 41.3 | 39.6 | -92.3 | 9 | 50.0 |
| 2025-12-11T04:54:00 | -16.9627 | -34.8890 | 918.0 | 8.42 | -39.29 | 1 | 42.2 | 40.1 | -91.1 | 6 | 33.3 |
| 2025-12-11T04:54:00 | -16.9627 | -34.8890 | 950.0 | -11.80 | -41.88 | 4 | 39.1 | 34.5 | -92.6 | 1 | 5.6 |
| 2025-12-11T04:54:00 | -16.9627 | -34.8890 | 982.0 | 11.79 | -9.28 | 4 | 39.0 | 33.8 | -92.0 | 1 | 5.6 |
| 2025-12-11T04:55:00 | -16.9595 | -34.8873 | 54.0 | 10.23 | -15.39 | 1 | 176.1 | 176.1 | -77.8 | 17 | 94.4 |
| 2025-12-11T04:55:00 | -16.9595 | -34.8873 | 86.0 | 0.19 | -29.44 | 1 | 158.8 | 158.8 | -79.5 | 15 | 83.3 |
| 2025-12-11T04:55:00 | -16.9595 | -34.8873 | 118.0 | 0.27 | -34.16 | 1 | 141.1 | 141.1 | -83.3 | 16 | 88.9 |
| 2025-12-11T04:55:00 | -16.9595 | -34.8873 | 150.0 | -4.93 | -18.85 | 1 | 125.3 | 125.3 | -87.1 | 16 | 88.9 |
| 2025-12-11T04:55:00 | -16.9595 | -34.8873 | 182.0 | -7.49 | -27.89 | 1 | 125.6 | 125.6 | -84.6 | 18 | 100.0 |
| 2025-12-11T04:55:00 | -16.9595 | -34.8873 | 214.0 | -5.70 | -21.21 | 1 | 114.6 | 114.6 | -87.1 | 17 | 94.4 |
| 2025-12-11T04:55:00 | -16.9595 | -34.8873 | 246.0 | 4.20 | -10.87 | 1 | 109.6 | 109.6 | -87.4 | 18 | 100.0 |
| 2025-12-11T04:55:00 | -16.9595 | -34.8873 | 278.0 | -6.67 | -17.71 | 1 | 104.5 | 103.8 | -88.1 | 14 | 77.8 |
| 2025-12-11T04:55:00 | -16.9595 | -34.8873 | 310.0 | -4.19 | -10.72 | 1 | 81.9 | 81.1 | -96.1 | 16 | 88.9 |
| 2025-12-11T04:55:00 | -16.9595 | -34.8873 | 342.0 | -3.55 | 1.14 | 1 | 72.0 | 72.0 | -98.4 | 17 | 94.4 |
| 2025-12-11T04:55:00 | -16.9595 | -34.8873 | 374.0 | 2.21 | -9.99 | 1 | 72.1 | 71.6 | -97.1 | 17 | 94.4 |
| 2025-12-11T04:55:00 | -16.9595 | -34.8873 | 406.0 | 0.42 | -3.66 | 1 | 72.4 | 72.0 | -95.5 | 17 | 94.4 |
| 2025-12-11T04:55:00 | -16.9595 | -34.8873 | 438.0 | -1.07 | -11.71 | 1 | 64.8 | 64.8 | -97.2 | 17 | 94.4 |
| 2025-12-11T04:55:00 | -16.9595 | -34.8873 | 470.0 | 6.72 | -10.88 | 1 | 64.2 | 64.2 | -96.1 | 18 | 100.0 |
| 2025-12-11T04:55:00 | -16.9595 | -34.8873 | 502.0 | 4.43 | -10.93 | 1 | 66.3 | 66.3 | -94.0 | 18 | 100.0 |
| 2025-12-11T04:55:00 | -16.9595 | -34.8873 | 534.0 | 7.35 | -9.09 | 1 | 79.4 | 79.4 | -87.2 | 18 | 100.0 |
| 2025-12-11T04:55:00 | -16.9595 | -34.8873 | 566.0 | -5.49 | -9.94 | 1 | 82.9 | 82.5 | -84.7 | 17 | 94.4 |
| 2025-12-11T04:55:00 | -16.9595 | -34.8873 | 598.0 | -1.61 | -18.88 | 1 | 76.6 | 76.2 | -86.2 | 16 | 88.9 |
| 2025-12-11T04:55:00 | -16.9595 | -34.8873 | 630.0 | -1.21 | -21.63 | 1 | 64.5 | 64.5 | -90.0 | 18 | 100.0 |
| 2025-12-11T04:55:00 | -16.9595 | -34.8873 | 662.0 | -3.10 | -13.04 | 1 | 57.6 | 57.6 | -91.8 | 18 | 100.0 |
| 2025-12-11T04:55:00 | -16.9595 | -34.8873 | 694.0 | 0.43 | -11.29 | 1 | 56.0 | 54.9 | -91.9 | 16 | 88.9 |
| 2025-12-11T04:55:00 | -16.9595 | -34.8873 | 726.0 | 2.34 | -16.78 | 1 | 56.0 | 53.9 | -91.2 | 14 | 77.8 |
| 2025-12-11T04:55:00 | -16.9595 | -34.8873 | 758.0 | 4.07 | -17.61 | 1 | 51.3 | 50.6 | -91.6 | 15 | 83.3 |
| 2025-12-11T04:55:00 | -16.9595 | -34.8873 | 790.0 | 4.99 | -7.62 | 1 | 48.4 | 47.9 | -91.7 | 15 | 83.3 |
| 2025-12-11T04:55:00 | -16.9595 | -34.8873 | 822.0 | -2.20 | -14.95 | 1 | 46.6 | 45.5 | -91.7 | 16 | 88.9 |
| 2025-12-11T04:55:00 | -16.9595 | -34.8873 | 854.0 | -2.25 | -11.60 | 1 | 43.4 | 41.7 | -92.4 | 12 | 66.7 |
| 2025-12-11T04:55:00 | -16.9595 | -34.8873 | 886.0 | -16.01 | -16.81 | 1 | 39.4 | 38.5 | -92.7 | 9 | 50.0 |
| 2025-12-11T04:55:00 | -16.9595 | -34.8873 | 918.0 | -1.67 | -22.20 | 1 | 41.1 | 39.6 | -91.3 | 5 | 27.8 |
| 2025-12-11T04:55:00 | -16.9595 | -34.8873 | 950.0 | 9 | 42.6 | 32.2 | -93.6 | 0 | 0.0 | ||
| 2025-12-11T04:55:00 | -16.9595 | -34.8873 | 982.0 | -6.06 | -10.86 | 4 | 40.5 | 29.0 | -94.1 | 1 | 5.6 |
| 2025-12-11T04:56:00 | -16.9562 | -34.8856 | 54.0 | -2.58 | -30.04 | 1 | 175.8 | 175.8 | -78.0 | 14 | 77.8 |
| 2025-12-11T04:56:00 | -16.9562 | -34.8856 | 86.0 | -7.40 | -30.39 | 1 | 157.4 | 157.4 | -80.1 | 18 | 100.0 |
| 2025-12-11T04:56:00 | -16.9562 | -34.8856 | 118.0 | 15.55 | -22.38 | 1 | 139.2 | 139.2 | -84.1 | 18 | 100.0 |
| 2025-12-11T04:56:00 | -16.9562 | -34.8856 | 150.0 | 0.71 | -22.44 | 1 | 125.1 | 125.1 | -87.2 | 16 | 88.9 |
| 2025-12-11T04:56:00 | -16.9562 | -34.8856 | 182.0 | -15.50 | -17.25 | 1 | 128.7 | 128.7 | -83.3 | 18 | 100.0 |
| 2025-12-11T04:56:00 | -16.9562 | -34.8856 | 214.0 | -12.11 | -12.16 | 1 | 115.5 | 115.5 | -86.8 | 18 | 100.0 |
| 2025-12-11T04:56:00 | -16.9562 | -34.8856 | 246.0 | -5.71 | -8.41 | 1 | 107.3 | 107.3 | -88.4 | 18 | 100.0 |
| 2025-12-11T04:56:00 | -16.9562 | -34.8856 | 278.0 | 5.12 | -20.03 | 1 | 107.0 | 107.0 | -86.7 | 18 | 100.0 |
| 2025-12-11T04:56:00 | -16.9562 | -34.8856 | 310.0 | -0.53 | -11.62 | 1 | 82.7 | 82.7 | -95.4 | 15 | 83.3 |
| 2025-12-11T04:56:00 | -16.9562 | -34.8856 | 342.0 | -0.67 | 1.14 | 1 | 73.7 | 73.7 | -97.7 | 18 | 100.0 |
| 2025-12-11T04:56:00 | -16.9562 | -34.8856 | 374.0 | -1.53 | -13.02 | 1 | 73.7 | 73.7 | -96.2 | 18 | 100.0 |
| 2025-12-11T04:56:00 | -16.9562 | -34.8856 | 406.0 | -2.44 | -8.27 | 1 | 74.4 | 74.4 | -94.5 | 18 | 100.0 |
| 2025-12-11T04:56:00 | -16.9562 | -34.8856 | 438.0 | 1.61 | -0.72 | 1 | 63.8 | 63.8 | -97.6 | 17 | 94.4 |
| 2025-12-11T04:56:00 | -16.9562 | -34.8856 | 470.0 | 3.20 | -1.78 | 1 | 64.7 | 64.7 | -95.9 | 18 | 100.0 |
| 2025-12-11T04:56:00 | -16.9562 | -34.8856 | 502.0 | 7.29 | -10.90 | 1 | 67.9 | 67.2 | -93.6 | 17 | 94.4 |
| 2025-12-11T04:56:00 | -16.9562 | -34.8856 | 534.0 | 8.31 | -14.83 | 1 | 79.2 | 79.0 | -87.4 | 16 | 88.9 |
| 2025-12-11T04:56:00 | -16.9562 | -34.8856 | 566.0 | 0.80 | -9.85 | 1 | 83.9 | 83.9 | -84.1 | 18 | 100.0 |
| 2025-12-11T04:56:00 | -16.9562 | -34.8856 | 598.0 | -6.73 | -15.96 | 1 | 77.5 | 76.7 | -86.0 | 17 | 94.4 |
| 2025-12-11T04:56:00 | -16.9562 | -34.8856 | 630.0 | -2.83 | -12.53 | 1 | 66.5 | 65.8 | -89.5 | 17 | 94.4 |
| 2025-12-11T04:56:00 | -16.9562 | -34.8856 | 662.0 | -1.26 | -17.54 | 1 | 60.7 | 60.7 | -90.5 | 16 | 88.9 |
| 2025-12-11T04:56:00 | -16.9562 | -34.8856 | 694.0 | 0.48 | -20.25 | 1 | 57.2 | 57.2 | -90.9 | 18 | 100.0 |
| 2025-12-11T04:56:00 | -16.9562 | -34.8856 | 726.0 | -1.67 | -8.20 | 1 | 54.7 | 54.7 | -90.9 | 18 | 100.0 |
| 2025-12-11T04:56:00 | -16.9562 | -34.8856 | 758.0 | -2.50 | -14.87 | 1 | 51.2 | 51.2 | -91.3 | 14 | 77.8 |
| 2025-12-11T04:56:00 | -16.9562 | -34.8856 | 790.0 | 1.11 | -20.09 | 1 | 50.0 | 49.5 | -91.0 | 16 | 88.9 |
| 2025-12-11T04:56:00 | -16.9562 | -34.8856 | 822.0 | 0.66 | -22.13 | 1 | 44.5 | 43.9 | -92.4 | 15 | 83.3 |
| 2025-12-11T04:56:00 | -16.9562 | -34.8856 | 854.0 | -5.82 | -15.73 | 1 | 44.1 | 42.1 | -92.2 | 12 | 66.7 |
| 2025-12-11T04:56:00 | -16.9562 | -34.8856 | 886.0 | 0.92 | -19.40 | 1 | 43.7 | 42.0 | -91.2 | 9 | 50.0 |
| 2025-12-11T04:56:00 | -16.9562 | -34.8856 | 918.0 | -4.29 | -25.85 | 1 | 39.6 | 34.2 | -93.7 | 7 | 38.9 |
| 2025-12-11T04:56:00 | -16.9562 | -34.8856 | 950.0 | 4.46 | -57.21 | 4 | 43.5 | 35.1 | -92.3 | 2 | 11.1 |
| 2025-12-11T04:57:00 | -16.9531 | -34.8839 | 54.0 | 10.61 | -22.57 | 1 | 175.2 | 175.2 | -78.2 | 18 | 100.0 |
| 2025-12-11T04:57:00 | -16.9531 | -34.8839 | 86.0 | 3.38 | -21.55 | 1 | 157.3 | 157.3 | -80.2 | 13 | 72.2 |
| 2025-12-11T04:57:00 | -16.9531 | -34.8839 | 118.0 | 6.21 | -23.10 | 1 | 139.3 | 138.9 | -84.3 | 16 | 88.9 |
| 2025-12-11T04:57:00 | -16.9531 | -34.8839 | 150.0 | -5.38 | -24.34 | 1 | 124.6 | 124.6 | -87.4 | 14 | 77.8 |
| 2025-12-11T04:57:00 | -16.9531 | -34.8839 | 182.0 | 2.18 | -17.62 | 1 | 125.9 | 125.6 | -84.6 | 15 | 83.3 |
| 2025-12-11T04:57:00 | -16.9531 | -34.8839 | 214.0 | -6.51 | -10.89 | 1 | 114.8 | 114.6 | -87.2 | 16 | 88.9 |
| 2025-12-11T04:57:00 | -16.9531 | -34.8839 | 246.0 | 6.65 | -5.29 | 1 | 109.9 | 109.6 | -87.4 | 17 | 94.4 |
| 2025-12-11T04:57:00 | -16.9531 | -34.8839 | 278.0 | -3.77 | -13.37 | 1 | 105.1 | 105.1 | -87.5 | 17 | 94.4 |
| 2025-12-11T04:57:00 | -16.9531 | -34.8839 | 310.0 | -0.94 | -12.73 | 1 | 84.9 | 84.9 | -94.5 | 18 | 100.0 |
| 2025-12-11T04:57:00 | -16.9531 | -34.8839 | 342.0 | 8.76 | -7.27 | 1 | 73.3 | 73.3 | -97.8 | 17 | 94.4 |
| 2025-12-11T04:57:00 | -16.9531 | -34.8839 | 374.0 | 2.14 | -10.64 | 1 | 73.3 | 73.3 | -96.4 | 18 | 100.0 |
| 2025-12-11T04:57:00 | -16.9531 | -34.8839 | 406.0 | -0.73 | -17.19 | 1 | 72.2 | 71.7 | -95.6 | 17 | 94.4 |
| 2025-12-11T04:57:00 | -16.9531 | -34.8839 | 438.0 | 4.10 | -17.79 | 1 | 64.3 | 63.7 | -97.7 | 17 | 94.4 |
| 2025-12-11T04:57:00 | -16.9531 | -34.8839 | 470.0 | 11.60 | -6.24 | 1 | 65.1 | 65.1 | -95.8 | 18 | 100.0 |
| 2025-12-11T04:57:00 | -16.9531 | -34.8839 | 502.0 | 2.22 | -8.31 | 1 | 69.0 | 69.0 | -92.9 | 17 | 94.4 |
| 2025-12-11T04:57:00 | -16.9531 | -34.8839 | 534.0 | 3.56 | -12.62 | 1 | 80.8 | 80.8 | -86.6 | 17 | 94.4 |
| 2025-12-11T04:57:00 | -16.9531 | -34.8839 | 566.0 | 6.38 | -12.38 | 1 | 81.7 | 81.7 | -85.0 | 16 | 88.9 |
| 2025-12-11T04:57:00 | -16.9531 | -34.8839 | 598.0 | 1.89 | -12.10 | 1 | 77.6 | 77.6 | -85.6 | 17 | 94.4 |
| 2025-12-11T04:57:00 | -16.9531 | -34.8839 | 630.0 | -1.58 | -10.33 | 1 | 63.9 | 63.9 | -90.3 | 17 | 94.4 |
| 2025-12-11T04:57:00 | -16.9531 | -34.8839 | 662.0 | -4.02 | -16.31 | 1 | 59.3 | 59.3 | -91.1 | 18 | 100.0 |
| 2025-12-11T04:57:00 | -16.9531 | -34.8839 | 694.0 | -3.45 | -5.43 | 1 | 55.4 | 55.4 | -91.7 | 18 | 100.0 |
| 2025-12-11T04:57:00 | -16.9531 | -34.8839 | 726.0 | 4.61 | -14.32 | 1 | 54.2 | 53.0 | -91.6 | 16 | 88.9 |
| 2025-12-11T04:57:00 | -16.9531 | -34.8839 | 758.0 | -3.71 | -16.09 | 1 | 49.8 | 50.0 | -91.9 | 17 | 94.4 |
| 2025-12-11T04:57:00 | -16.9531 | -34.8839 | 790.0 | 8.20 | -14.79 | 1 | 49.9 | 48.6 | -91.4 | 17 | 94.4 |
| 2025-12-11T04:57:00 | -16.9531 | -34.8839 | 822.0 | -2.14 | -16.18 | 1 | 47.2 | 45.6 | -91.7 | 15 | 83.3 |
| 2025-12-11T04:57:00 | -16.9531 | -34.8839 | 854.0 | 4.75 | -25.81 | 1 | 43.1 | 42.3 | -92.1 | 13 | 72.2 |
| 2025-12-11T04:57:00 | -16.9531 | -34.8839 | 886.0 | -4.44 | -24.07 | 1 | 40.6 | 36.4 | -93.7 | 9 | 50.0 |
| 2025-12-11T04:57:00 | -16.9531 | -34.8839 | 918.0 | 12.07 | -21.04 | 1 | 41.9 | 38.0 | -92.0 | 5 | 27.8 |
| 2025-12-11T04:57:00 | -16.9531 | -34.8839 | 950.0 | 26.18 | -21.54 | 4 | 40.7 | 33.5 | -93.0 | 2 | 11.1 |
| 2025-12-11T04:58:00 | -16.9499 | -34.8822 | 54.0 | -0.23 | -18.23 | 1 | 175.5 | 175.5 | -78.1 | 18 | 100.0 |
| 2025-12-11T04:58:00 | -16.9499 | -34.8822 | 86.0 | -5.58 | -16.76 | 1 | 156.8 | 156.8 | -80.4 | 17 | 94.4 |
| 2025-12-11T04:58:00 | -16.9499 | -34.8822 | 118.0 | 3.75 | -18.24 | 1 | 136.0 | 136.0 | -85.5 | 16 | 88.9 |
| 2025-12-11T04:58:00 | -16.9499 | -34.8822 | 150.0 | -2.90 | -25.01 | 1 | 124.7 | 124.7 | -87.4 | 15 | 83.3 |
| 2025-12-11T04:58:00 | -16.9499 | -34.8822 | 182.0 | -3.99 | -14.94 | 1 | 126.6 | 126.6 | -84.2 | 16 | 88.9 |
| 2025-12-11T04:58:00 | -16.9499 | -34.8822 | 214.0 | -6.10 | -16.03 | 1 | 115.2 | 115.2 | -86.9 | 17 | 94.4 |
| 2025-12-11T04:58:00 | -16.9499 | -34.8822 | 246.0 | -3.37 | -10.87 | 1 | 109.0 | 109.0 | -87.6 | 18 | 100.0 |
| 2025-12-11T04:58:00 | -16.9499 | -34.8822 | 278.0 | -5.60 | -7.77 | 1 | 103.7 | 103.7 | -88.1 | 17 | 94.4 |
| 2025-12-11T04:58:00 | -16.9499 | -34.8822 | 310.0 | 0.43 | -15.47 | 1 | 84.9 | 84.5 | -94.6 | 14 | 77.8 |
| 2025-12-11T04:58:00 | -16.9499 | -34.8822 | 342.0 | 1.65 | -5.95 | 1 | 74.1 | 73.5 | -97.8 | 16 | 88.9 |
| 2025-12-11T04:58:00 | -16.9499 | -34.8822 | 374.0 | 0.01 | -8.25 | 1 | 75.9 | 74.8 | -95.7 | 15 | 83.3 |
| 2025-12-11T04:58:00 | -16.9499 | -34.8822 | 406.0 | -2.20 | -10.39 | 1 | 68.0 | 67.4 | -97.5 | 16 | 88.9 |
| 2025-12-11T04:58:00 | -16.9499 | -34.8822 | 438.0 | 0.40 | -11.24 | 1 | 65.5 | 64.4 | -97.4 | 16 | 88.9 |
| 2025-12-11T04:58:00 | -16.9499 | -34.8822 | 470.0 | 0.54 | -8.70 | 1 | 64.6 | 63.9 | -96.3 | 16 | 88.9 |
| 2025-12-11T04:58:00 | -16.9499 | -34.8822 | 502.0 | 1.68 | -6.59 | 1 | 66.8 | 66.5 | -93.9 | 17 | 94.4 |
| 2025-12-11T04:58:00 | -16.9499 | -34.8822 | 534.0 | -7.46 | -15.08 | 1 | 83.2 | 82.9 | -85.7 | 17 | 94.4 |
| 2025-12-11T04:58:00 | -16.9499 | -34.8822 | 566.0 | -0.03 | -14.76 | 1 | 86.5 | 86.2 | -83.1 | 17 | 94.4 |
| 2025-12-11T04:58:00 | -16.9499 | -34.8822 | 598.0 | -2.79 | -22.86 | 1 | 77.9 | 77.5 | -85.6 | 15 | 83.3 |
| 2025-12-11T04:58:00 | -16.9499 | -34.8822 | 630.0 | -1.50 | -19.23 | 1 | 63.7 | 63.7 | -90.4 | 17 | 94.4 |
| 2025-12-11T04:58:00 | -16.9499 | -34.8822 | 662.0 | -2.12 | -13.37 | 1 | 59.0 | 59.0 | -91.2 | 17 | 94.4 |
| 2025-12-11T04:58:00 | -16.9499 | -34.8822 | 694.0 | -6.73 | -16.02 | 1 | 56.3 | 55.2 | -91.8 | 17 | 94.4 |
| 2025-12-11T04:58:00 | -16.9499 | -34.8822 | 726.0 | -1.59 | -13.98 | 1 | 57.9 | 56.5 | -90.2 | 17 | 94.4 |
| 2025-12-11T04:58:00 | -16.9499 | -34.8822 | 758.0 | -2.78 | -13.04 | 1 | 49.7 | 49.7 | -92.0 | 17 | 94.4 |
| 2025-12-11T04:58:00 | -16.9499 | -34.8822 | 790.0 | 6.94 | -6.63 | 1 | 48.7 | 48.6 | -91.4 | 16 | 88.9 |
| 2025-12-11T04:58:00 | -16.9499 | -34.8822 | 822.0 | 1.84 | -16.24 | 1 | 44.5 | 43.8 | -92.5 | 15 | 83.3 |
| 2025-12-11T04:58:00 | -16.9499 | -34.8822 | 854.0 | -1.89 | -21.70 | 1 | 40.6 | 40.1 | -93.0 | 14 | 77.8 |
| 2025-12-11T04:58:00 | -16.9499 | -34.8822 | 886.0 | 5.99 | -17.18 | 1 | 40.8 | 39.8 | -92.2 | 14 | 77.8 |
| 2025-12-11T04:58:00 | -16.9499 | -34.8822 | 918.0 | 9.67 | -26.76 | 1 | 42.6 | 39.1 | -91.5 | 6 | 33.3 |
| 2025-12-11T04:58:00 | -16.9499 | -34.8822 | 950.0 | 23.97 | -23.00 | 4 | 41.7 | 34.6 | -92.5 | 2 | 11.1 |
| 2025-12-11T04:59:00 | -16.9467 | -34.8804 | 54.0 | -4.55 | -20.79 | 1 | 173.5 | 173.5 | -78.9 | 17 | 94.4 |
| 2025-12-11T04:59:00 | -16.9467 | -34.8804 | 86.0 | 10.29 | -26.11 | 1 | 159.0 | 159.0 | -79.5 | 16 | 88.9 |
| 2025-12-11T04:59:00 | -16.9467 | -34.8804 | 118.0 | 1.52 | -29.17 | 1 | 136.9 | 136.9 | -85.1 | 18 | 100.0 |
| 2025-12-11T04:59:00 | -16.9467 | -34.8804 | 150.0 | 0.29 | -21.48 | 1 | 125.9 | 125.9 | -86.9 | 17 | 94.4 |
| 2025-12-11T04:59:00 | -16.9467 | -34.8804 | 182.0 | 1.87 | -16.60 | 1 | 123.6 | 123.6 | -85.5 | 17 | 94.4 |
| 2025-12-11T04:59:00 | -16.9467 | -34.8804 | 214.0 | -1.29 | -14.67 | 1 | 111.7 | 111.7 | -88.4 | 17 | 94.4 |
| 2025-12-11T04:59:00 | -16.9467 | -34.8804 | 246.0 | -4.67 | -14.44 | 1 | 106.5 | 106.5 | -88.7 | 15 | 83.3 |
| 2025-12-11T04:59:00 | -16.9467 | -34.8804 | 278.0 | 4.57 | -14.47 | 1 | 104.8 | 104.8 | -87.7 | 18 | 100.0 |
| 2025-12-11T04:59:00 | -16.9467 | -34.8804 | 310.0 | 0.19 | -10.30 | 1 | 84.2 | 83.4 | -95.1 | 17 | 94.4 |
| 2025-12-11T04:59:00 | -16.9467 | -34.8804 | 342.0 | -3.60 | -7.14 | 1 | 73.7 | 73.1 | -97.9 | 17 | 94.4 |
| 2025-12-11T04:59:00 | -16.9467 | -34.8804 | 374.0 | -2.37 | -3.70 | 1 | 76.0 | 76.0 | -95.2 | 18 | 100.0 |
| 2025-12-11T04:59:00 | -16.9467 | -34.8804 | 406.0 | -3.05 | -8.52 | 1 | 71.5 | 70.6 | -96.1 | 16 | 88.9 |
| 2025-12-11T04:59:00 | -16.9467 | -34.8804 | 438.0 | -1.67 | -11.69 | 1 | 64.3 | 64.3 | -97.4 | 17 | 94.4 |
| 2025-12-11T04:59:00 | -16.9467 | -34.8804 | 470.0 | 2.44 | -7.87 | 1 | 66.3 | 66.3 | -95.3 | 16 | 88.9 |
| 2025-12-11T04:59:00 | -16.9467 | -34.8804 | 502.0 | 0.81 | 1.42 | 1 | 69.2 | 69.2 | -92.8 | 18 | 100.0 |
| 2025-12-11T04:59:00 | -16.9467 | -34.8804 | 534.0 | 7.17 | -2.59 | 1 | 85.7 | 85.7 | -84.5 | 18 | 100.0 |
| 2025-12-11T04:59:00 | -16.9467 | -34.8804 | 566.0 | -4.41 | -11.68 | 1 | 86.5 | 86.5 | -83.0 | 18 | 100.0 |
| 2025-12-11T04:59:00 | -16.9467 | -34.8804 | 598.0 | 0.85 | -11.38 | 1 | 76.4 | 76.4 | -86.1 | 17 | 94.4 |
| 2025-12-11T04:59:00 | -16.9467 | -34.8804 | 630.0 | 3.80 | -18.41 | 1 | 64.8 | 64.8 | -89.9 | 18 | 100.0 |
| 2025-12-11T04:59:00 | -16.9467 | -34.8804 | 662.0 | 4.01 | -19.74 | 1 | 58.3 | 57.7 | -91.8 | 17 | 94.4 |
| 2025-12-11T04:59:00 | -16.9467 | -34.8804 | 694.0 | -1.17 | -12.08 | 1 | 55.4 | 54.9 | -91.9 | 17 | 94.4 |
| 2025-12-11T04:59:00 | -16.9467 | -34.8804 | 726.0 | 3.48 | -23.63 | 1 | 55.2 | 54.8 | -90.9 | 17 | 94.4 |
| 2025-12-11T04:59:00 | -16.9467 | -34.8804 | 758.0 | 0.58 | -29.24 | 1 | 49.9 | 48.9 | -92.3 | 16 | 88.9 |
| 2025-12-11T04:59:00 | -16.9467 | -34.8804 | 790.0 | -4.13 | -13.23 | 1 | 51.3 | 49.6 | -91.0 | 15 | 83.3 |
| 2025-12-11T04:59:00 | -16.9467 | -34.8804 | 822.0 | 5.55 | -20.96 | 1 | 48.1 | 46.8 | -91.2 | 16 | 88.9 |
| 2025-12-11T04:59:00 | -16.9467 | -34.8804 | 854.0 | -0.45 | -19.60 | 1 | 44.0 | 44.0 | -91.4 | 10 | 55.6 |
| 2025-12-11T04:59:00 | -16.9467 | -34.8804 | 886.0 | 3.23 | -16.93 | 1 | 41.8 | 41.4 | -91.5 | 10 | 55.6 |
| 2025-12-11T04:59:00 | -16.9467 | -34.8804 | 918.0 | -2.08 | -20.59 | 1 | 42.9 | 39.9 | -91.2 | 11 | 61.1 |
| 2025-12-11T04:59:00 | -16.9467 | -34.8804 | 950.0 | 2.77 | 1.93 | 4 | 41.8 | 30.2 | -94.5 | 1 | 5.6 |
| 2025-12-11T05:00:00 | -16.9434 | -34.8786 | 54.0 | -6.89 | -25.28 | 1 | 174.7 | 174.7 | -78.4 | 17 | 89.5 |
| 2025-12-11T05:00:00 | -16.9434 | -34.8786 | 86.0 | 2.14 | -28.81 | 1 | 160.3 | 160.3 | -78.9 | 17 | 89.5 |
| 2025-12-11T05:00:00 | -16.9434 | -34.8786 | 118.0 | -1.87 | -21.17 | 1 | 137.4 | 137.4 | -84.9 | 18 | 94.7 |
| 2025-12-11T05:00:00 | -16.9434 | -34.8786 | 150.0 | 1.97 | -9.96 | 1 | 126.0 | 126.0 | -86.8 | 16 | 84.2 |
| 2025-12-11T05:00:00 | -16.9434 | -34.8786 | 182.0 | -0.81 | -21.75 | 1 | 124.2 | 124.2 | -85.2 | 18 | 94.7 |
| 2025-12-11T05:00:00 | -16.9434 | -34.8786 | 214.0 | -11.84 | -9.94 | 1 | 111.5 | 111.1 | -88.6 | 18 | 94.7 |
| 2025-12-11T05:00:00 | -16.9434 | -34.8786 | 246.0 | -1.86 | -8.89 | 1 | 105.7 | 106.1 | -88.9 | 18 | 94.7 |
| 2025-12-11T05:00:00 | -16.9434 | -34.8786 | 278.0 | 1.68 | -14.98 | 1 | 105.8 | 105.4 | -87.4 | 18 | 94.7 |
| 2025-12-11T05:00:00 | -16.9434 | -34.8786 | 310.0 | 1.86 | -6.71 | 1 | 84.8 | 84.5 | -94.6 | 18 | 94.7 |
| 2025-12-11T05:00:00 | -16.9434 | -34.8786 | 342.0 | 8.37 | -5.10 | 1 | 74.3 | 74.3 | -97.4 | 18 | 94.7 |
| 2025-12-11T05:00:00 | -16.9434 | -34.8786 | 374.0 | -2.43 | -4.03 | 1 | 74.9 | 74.9 | -95.7 | 19 | 100.0 |
| 2025-12-11T05:00:00 | -16.9434 | -34.8786 | 406.0 | 3.44 | -11.16 | 1 | 68.4 | 68.4 | -97.0 | 18 | 94.7 |
| 2025-12-11T05:00:00 | -16.9434 | -34.8786 | 438.0 | -3.38 | -6.19 | 1 | 64.2 | 64.2 | -97.5 | 17 | 89.5 |
| 2025-12-11T05:00:00 | -16.9434 | -34.8786 | 470.0 | -0.50 | -7.59 | 1 | 65.4 | 65.4 | -95.7 | 19 | 100.0 |
| 2025-12-11T05:00:00 | -16.9434 | -34.8786 | 502.0 | 1.97 | -0.68 | 1 | 71.2 | 71.2 | -91.9 | 18 | 94.7 |
| 2025-12-11T05:00:00 | -16.9434 | -34.8786 | 534.0 | 2.05 | -6.04 | 1 | 88.3 | 87.0 | -84.0 | 14 | 73.7 |
| 2025-12-11T05:00:00 | -16.9434 | -34.8786 | 566.0 | 10.80 | -14.00 | 1 | 85.1 | 84.3 | -83.9 | 14 | 73.7 |
| 2025-12-11T05:00:00 | -16.9434 | -34.8786 | 598.0 | 5.62 | -8.76 | 1 | 77.1 | 77.1 | -85.8 | 17 | 89.5 |
| 2025-12-11T05:00:00 | -16.9434 | -34.8786 | 630.0 | 12.45 | -1.76 | 1 | 63.2 | 63.2 | -90.6 | 19 | 100.0 |
| 2025-12-11T05:00:00 | -16.9434 | -34.8786 | 662.0 | 3.42 | -13.02 | 1 | 55.4 | 55.4 | -92.8 | 19 | 100.0 |
| 2025-12-11T05:00:00 | -16.9434 | -34.8786 | 694.0 | -4.86 | -11.57 | 1 | 55.6 | 55.6 | -91.6 | 18 | 94.7 |
| 2025-12-11T05:00:00 | -16.9434 | -34.8786 | 726.0 | -5.62 | -18.47 | 1 | 54.4 | 54.4 | -91.0 | 19 | 100.0 |
| 2025-12-11T05:00:00 | -16.9434 | -34.8786 | 758.0 | 9.69 | -9.78 | 1 | 50.4 | 50.1 | -91.8 | 17 | 89.5 |
| 2025-12-11T05:00:00 | -16.9434 | -34.8786 | 790.0 | 5.47 | -15.02 | 1 | 49.5 | 47.8 | -91.7 | 16 | 84.2 |
| 2025-12-11T05:00:00 | -16.9434 | -34.8786 | 822.0 | 1.88 | -16.41 | 1 | 45.4 | 43.5 | -92.6 | 16 | 84.2 |
| 2025-12-11T05:00:00 | -16.9434 | -34.8786 | 854.0 | 1.89 | -30.41 | 1 | 43.2 | 39.8 | -93.2 | 15 | 78.9 |
| 2025-12-11T05:00:00 | -16.9434 | -34.8786 | 886.0 | -2.43 | -15.62 | 1 | 40.6 | 38.5 | -92.7 | 13 | 68.4 |
| 2025-12-11T05:00:00 | -16.9434 | -34.8786 | 918.0 | -4.68 | -10.06 | 1 | 40.1 | 37.8 | -92.1 | 8 | 42.1 |
| 2025-12-11T05:00:00 | -16.9434 | -34.8786 | 950.0 | -4.13 | -21.41 | 1 | 38.0 | 37.2 | -91.4 | 5 | 26.3 |
| 2025-12-11T05:01:00 | -16.9401 | -34.8769 | 54.0 | -3.92 | -15.88 | 1 | 174.2 | 174.2 | -78.6 | 17 | 94.4 |
| 2025-12-11T05:01:00 | -16.9401 | -34.8769 | 86.0 | -1.42 | -25.47 | 1 | 158.5 | 158.5 | -79.7 | 16 | 88.9 |
| 2025-12-11T05:01:00 | -16.9401 | -34.8769 | 118.0 | -2.59 | -28.99 | 1 | 140.0 | 140.0 | -83.8 | 15 | 83.3 |
| 2025-12-11T05:01:00 | -16.9401 | -34.8769 | 150.0 | -3.31 | -25.51 | 1 | 123.1 | 123.1 | -88.1 | 14 | 77.8 |
| 2025-12-11T05:01:00 | -16.9401 | -34.8769 | 182.0 | 1.68 | -20.66 | 1 | 124.6 | 124.6 | -85.1 | 18 | 100.0 |
| 2025-12-11T05:01:00 | -16.9401 | -34.8769 | 214.0 | -5.02 | -7.78 | 1 | 111.6 | 111.6 | -88.5 | 18 | 100.0 |
| 2025-12-11T05:01:00 | -16.9401 | -34.8769 | 246.0 | -5.85 | -17.52 | 1 | 105.5 | 105.5 | -89.1 | 17 | 94.4 |
| 2025-12-11T05:01:00 | -16.9401 | -34.8769 | 278.0 | 4.44 | -7.05 | 1 | 104.3 | 104.3 | -87.9 | 17 | 94.4 |
| 2025-12-11T05:01:00 | -16.9401 | -34.8769 | 310.0 | -0.65 | -9.71 | 1 | 83.4 | 82.7 | -95.4 | 17 | 94.4 |
| 2025-12-11T05:01:00 | -16.9401 | -34.8769 | 342.0 | 4.98 | -9.84 | 1 | 74.4 | 73.9 | -97.6 | 16 | 88.9 |
| 2025-12-11T05:01:00 | -16.9401 | -34.8769 | 374.0 | -16.61 | -2.26 | 1 | 73.7 | 73.7 | -96.2 | 17 | 94.4 |
| 2025-12-11T05:01:00 | -16.9401 | -34.8769 | 406.0 | -5.33 | -17.95 | 1 | 68.7 | 68.7 | -96.9 | 16 | 88.9 |
| 2025-12-11T05:01:00 | -16.9401 | -34.8769 | 438.0 | 2.33 | -5.81 | 1 | 64.6 | 64.2 | -97.5 | 16 | 88.9 |
| 2025-12-11T05:01:00 | -16.9401 | -34.8769 | 470.0 | -4.21 | -7.82 | 1 | 66.9 | 65.6 | -95.6 | 15 | 83.3 |
| 2025-12-11T05:01:00 | -16.9401 | -34.8769 | 502.0 | 0.95 | -12.82 | 1 | 69.6 | 69.6 | -92.6 | 16 | 88.9 |
| 2025-12-11T05:01:00 | -16.9401 | -34.8769 | 534.0 | 5.19 | -7.89 | 1 | 88.1 | 88.1 | -83.5 | 18 | 100.0 |
| 2025-12-11T05:01:00 | -16.9401 | -34.8769 | 566.0 | -3.44 | -14.81 | 1 | 82.7 | 82.7 | -84.6 | 17 | 94.4 |
| 2025-12-11T05:01:00 | -16.9401 | -34.8769 | 598.0 | 6.62 | -23.00 | 1 | 76.2 | 75.3 | -86.6 | 16 | 88.9 |
| 2025-12-11T05:01:00 | -16.9401 | -34.8769 | 630.0 | 5.76 | -18.90 | 1 | 65.0 | 65.0 | -89.8 | 16 | 88.9 |
| 2025-12-11T05:01:00 | -16.9401 | -34.8769 | 662.0 | 3.62 | -7.86 | 1 | 58.2 | 57.4 | -91.9 | 16 | 88.9 |
| 2025-12-11T05:01:00 | -16.9401 | -34.8769 | 694.0 | -1.07 | -9.23 | 1 | 58.0 | 57.6 | -90.7 | 16 | 88.9 |
| 2025-12-11T05:01:00 | -16.9401 | -34.8769 | 726.0 | -0.45 | -12.82 | 1 | 57.5 | 56.5 | -90.1 | 15 | 83.3 |
| 2025-12-11T05:01:00 | -16.9401 | -34.8769 | 758.0 | 5.58 | -11.57 | 1 | 53.0 | 52.0 | -91.0 | 15 | 83.3 |
| 2025-12-11T05:01:00 | -16.9401 | -34.8769 | 790.0 | 3.32 | -4.84 | 1 | 49.8 | 48.4 | -91.5 | 14 | 77.8 |
| 2025-12-11T05:01:00 | -16.9401 | -34.8769 | 822.0 | -1.56 | -18.65 | 1 | 46.1 | 44.9 | -92.0 | 16 | 88.9 |
| 2025-12-11T05:01:00 | -16.9401 | -34.8769 | 854.0 | -6.07 | -16.24 | 1 | 43.5 | 41.5 | -92.5 | 11 | 61.1 |
| 2025-12-11T05:01:00 | -16.9401 | -34.8769 | 886.0 | 0.40 | -18.74 | 1 | 40.0 | 38.3 | -92.8 | 13 | 72.2 |
| 2025-12-11T05:01:00 | -16.9401 | -34.8769 | 918.0 | 3.80 | -14.68 | 1 | 38.2 | 34.3 | -93.6 | 9 | 50.0 |
| 2025-12-11T05:01:00 | -16.9401 | -34.8769 | 950.0 | -3.51 | -17.51 | 1 | 39.9 | 37.0 | -91.5 | 6 | 33.3 |
| 2025-12-11T05:02:00 | -16.9369 | -34.8751 | 54.0 | 0.79 | -9.43 | 1 | 173.9 | 173.9 | -78.8 | 13 | 72.2 |
| 2025-12-11T05:02:00 | -16.9369 | -34.8751 | 86.0 | -7.07 | -26.41 | 1 | 157.9 | 157.9 | -79.9 | 16 | 88.9 |
| 2025-12-11T05:02:00 | -16.9369 | -34.8751 | 118.0 | 9.73 | -35.13 | 1 | 138.4 | 138.4 | -84.5 | 15 | 83.3 |
| 2025-12-11T05:02:00 | -16.9369 | -34.8751 | 150.0 | 0.73 | -14.45 | 1 | 125.1 | 125.1 | -87.2 | 18 | 100.0 |
| 2025-12-11T05:02:00 | -16.9369 | -34.8751 | 182.0 | -5.05 | -14.48 | 1 | 123.5 | 123.5 | -85.5 | 16 | 88.9 |
| 2025-12-11T05:02:00 | -16.9369 | -34.8751 | 214.0 | -10.27 | -22.53 | 1 | 111.4 | 111.4 | -88.5 | 17 | 94.4 |
| 2025-12-11T05:02:00 | -16.9369 | -34.8751 | 246.0 | 7.27 | -10.98 | 1 | 107.4 | 106.9 | -88.5 | 17 | 94.4 |
| 2025-12-11T05:02:00 | -16.9369 | -34.8751 | 278.0 | -3.92 | -13.73 | 1 | 103.8 | 103.7 | -88.1 | 16 | 88.9 |
| 2025-12-11T05:02:00 | -16.9369 | -34.8751 | 310.0 | -5.02 | -4.99 | 1 | 82.7 | 82.9 | -95.3 | 15 | 83.3 |
| 2025-12-11T05:02:00 | -16.9369 | -34.8751 | 342.0 | 7.35 | -8.31 | 1 | 74.9 | 74.4 | -97.4 | 15 | 83.3 |
| 2025-12-11T05:02:00 | -16.9369 | -34.8751 | 374.0 | 0.89 | -8.98 | 1 | 72.7 | 72.2 | -96.8 | 16 | 88.9 |
| 2025-12-11T05:02:00 | -16.9369 | -34.8751 | 406.0 | 0.93 | -8.23 | 1 | 69.3 | 69.3 | -96.7 | 18 | 100.0 |
| 2025-12-11T05:02:00 | -16.9369 | -34.8751 | 438.0 | -8.04 | -10.58 | 1 | 65.2 | 65.2 | -97.0 | 18 | 100.0 |
| 2025-12-11T05:02:00 | -16.9369 | -34.8751 | 470.0 | 2.75 | -15.01 | 1 | 63.7 | 63.3 | -96.5 | 17 | 94.4 |
| 2025-12-11T05:02:00 | -16.9369 | -34.8751 | 502.0 | 2.82 | -9.83 | 1 | 67.0 | 66.5 | -93.9 | 16 | 88.9 |
| 2025-12-11T05:02:00 | -16.9369 | -34.8751 | 534.0 | 1.86 | -15.20 | 1 | 89.4 | 88.2 | -83.5 | 14 | 77.8 |
| 2025-12-11T05:02:00 | -16.9369 | -34.8751 | 566.0 | 3.64 | -21.09 | 1 | 85.9 | 85.6 | -83.4 | 16 | 88.9 |
| 2025-12-11T05:02:00 | -16.9369 | -34.8751 | 598.0 | 10.21 | -12.95 | 1 | 76.5 | 76.5 | -86.1 | 17 | 94.4 |
| 2025-12-11T05:02:00 | -16.9369 | -34.8751 | 630.0 | 5.66 | -12.52 | 1 | 64.0 | 64.0 | -90.2 | 18 | 100.0 |
| 2025-12-11T05:02:00 | -16.9369 | -34.8751 | 662.0 | 1.97 | -13.26 | 1 | 60.6 | 60.6 | -90.5 | 18 | 100.0 |
| 2025-12-11T05:02:00 | -16.9369 | -34.8751 | 694.0 | -6.12 | -12.03 | 1 | 55.2 | 55.2 | -91.7 | 16 | 88.9 |
| 2025-12-11T05:02:00 | -16.9369 | -34.8751 | 726.0 | 1.67 | -15.68 | 1 | 56.4 | 56.4 | -90.2 | 18 | 100.0 |
| 2025-12-11T05:02:00 | -16.9369 | -34.8751 | 758.0 | 5.00 | -9.97 | 1 | 50.5 | 50.1 | -91.8 | 17 | 94.4 |
| 2025-12-11T05:02:00 | -16.9369 | -34.8751 | 790.0 | 4.44 | -15.48 | 1 | 50.8 | 50.2 | -90.7 | 16 | 88.9 |
| 2025-12-11T05:02:00 | -16.9369 | -34.8751 | 822.0 | -6.38 | -21.25 | 1 | 44.8 | 44.1 | -92.3 | 15 | 83.3 |
| 2025-12-11T05:02:00 | -16.9369 | -34.8751 | 854.0 | -3.80 | -9.14 | 1 | 40.3 | 39.7 | -93.2 | 14 | 77.8 |
| 2025-12-11T05:02:00 | -16.9369 | -34.8751 | 886.0 | -7.52 | -11.54 | 1 | 39.6 | 39.0 | -92.6 | 16 | 88.9 |
| 2025-12-11T05:02:00 | -16.9369 | -34.8751 | 918.0 | 0.52 | -24.00 | 1 | 41.1 | 39.3 | -91.4 | 10 | 55.6 |
| 2025-12-11T05:02:00 | -16.9369 | -34.8751 | 950.0 | 21.44 | -34.13 | 4 | 39.8 | 36.8 | -91.5 | 3 | 16.7 |
| 2025-12-11T05:03:00 | -16.9337 | -34.8734 | 54.0 | -4.03 | -12.17 | 1 | 173.5 | 173.5 | -78.9 | 15 | 83.3 |
| 2025-12-11T05:03:00 | -16.9337 | -34.8734 | 86.0 | 0.24 | -18.49 | 1 | 158.5 | 158.5 | -79.7 | 17 | 94.4 |
| 2025-12-11T05:03:00 | -16.9337 | -34.8734 | 118.0 | 1.23 | -30.65 | 1 | 141.5 | 141.5 | -83.2 | 17 | 94.4 |
| 2025-12-11T05:03:00 | -16.9337 | -34.8734 | 150.0 | -2.34 | -24.79 | 1 | 124.8 | 124.8 | -87.4 | 18 | 100.0 |
| 2025-12-11T05:03:00 | -16.9337 | -34.8734 | 182.0 | -4.14 | -23.38 | 1 | 123.2 | 123.2 | -85.6 | 18 | 100.0 |
| 2025-12-11T05:03:00 | -16.9337 | -34.8734 | 214.0 | 4.00 | -28.06 | 1 | 111.3 | 110.9 | -88.8 | 17 | 94.4 |
| 2025-12-11T05:03:00 | -16.9337 | -34.8734 | 246.0 | 7.70 | -16.60 | 1 | 110.1 | 109.6 | -87.4 | 17 | 94.4 |
| 2025-12-11T05:03:00 | -16.9337 | -34.8734 | 278.0 | -7.90 | -6.81 | 1 | 105.5 | 105.5 | -87.4 | 18 | 100.0 |
| 2025-12-11T05:03:00 | -16.9337 | -34.8734 | 310.0 | 0.04 | -10.71 | 1 | 83.6 | 83.6 | -95.0 | 18 | 100.0 |
| 2025-12-11T05:03:00 | -16.9337 | -34.8734 | 342.0 | -5.89 | -10.29 | 1 | 72.2 | 72.2 | -98.3 | 18 | 100.0 |
| 2025-12-11T05:03:00 | -16.9337 | -34.8734 | 374.0 | 1.64 | -8.69 | 1 | 77.2 | 76.4 | -95.0 | 17 | 94.4 |
| 2025-12-11T05:03:00 | -16.9337 | -34.8734 | 406.0 | -0.97 | -13.97 | 1 | 72.0 | 71.5 | -95.7 | 17 | 94.4 |
| 2025-12-11T05:03:00 | -16.9337 | -34.8734 | 438.0 | 1.79 | -10.33 | 1 | 64.3 | 63.3 | -97.9 | 17 | 94.4 |
| 2025-12-11T05:03:00 | -16.9337 | -34.8734 | 470.0 | 7.42 | -9.45 | 1 | 63.3 | 63.3 | -96.5 | 15 | 83.3 |
| 2025-12-11T05:03:00 | -16.9337 | -34.8734 | 502.0 | 4.99 | -12.11 | 1 | 67.6 | 67.6 | -93.4 | 18 | 100.0 |
| 2025-12-11T05:03:00 | -16.9337 | -34.8734 | 534.0 | 4.35 | -15.70 | 1 | 89.0 | 89.0 | -83.1 | 17 | 94.4 |
| 2025-12-11T05:03:00 | -16.9337 | -34.8734 | 566.0 | -3.78 | -24.82 | 1 | 86.9 | 86.9 | -82.8 | 16 | 88.9 |
| 2025-12-11T05:03:00 | -16.9337 | -34.8734 | 598.0 | 11.43 | -25.96 | 1 | 74.4 | 74.4 | -87.0 | 17 | 94.4 |
| 2025-12-11T05:03:00 | -16.9337 | -34.8734 | 630.0 | 1.87 | -14.86 | 1 | 64.0 | 64.0 | -90.2 | 16 | 88.9 |
| 2025-12-11T05:03:00 | -16.9337 | -34.8734 | 662.0 | 2.25 | -6.21 | 1 | 61.3 | 61.3 | -90.2 | 17 | 94.4 |
| 2025-12-11T05:03:00 | -16.9337 | -34.8734 | 694.0 | 2.21 | -9.54 | 1 | 55.9 | 55.9 | -91.5 | 17 | 94.4 |
| 2025-12-11T05:03:00 | -16.9337 | -34.8734 | 726.0 | 1.15 | -12.19 | 1 | 54.6 | 54.6 | -91.0 | 18 | 100.0 |
| 2025-12-11T05:03:00 | -16.9337 | -34.8734 | 758.0 | -3.68 | -11.00 | 1 | 51.9 | 51.9 | -91.0 | 17 | 94.4 |
| 2025-12-11T05:03:00 | -16.9337 | -34.8734 | 790.0 | 4.98 | -15.48 | 1 | 50.0 | 50.0 | -90.8 | 18 | 100.0 |
| 2025-12-11T05:03:00 | -16.9337 | -34.8734 | 822.0 | -3.68 | -24.88 | 1 | 44.6 | 44.3 | -92.2 | 16 | 88.9 |
| 2025-12-11T05:03:00 | -16.9337 | -34.8734 | 854.0 | -8.91 | -20.60 | 1 | 41.1 | 40.1 | -93.1 | 15 | 83.3 |
| 2025-12-11T05:03:00 | -16.9337 | -34.8734 | 886.0 | 0.36 | -7.06 | 1 | 41.0 | 39.5 | -92.3 | 11 | 61.1 |
| 2025-12-11T05:03:00 | -16.9337 | -34.8734 | 918.0 | 4.35 | -14.42 | 1 | 40.9 | 37.2 | -92.3 | 10 | 55.6 |
| 2025-12-11T05:03:00 | -16.9337 | -34.8734 | 950.0 | 9.53 | 4.61 | 4 | 38.4 | 38.8 | -90.7 | 1 | 5.6 |
| 2025-12-11T05:03:00 | -16.9337 | -34.8734 | 982.0 | 27.91 | -23.19 | 4 | 38.1 | 40.5 | -89.0 | 1 | 5.6 |
| 2025-12-11T05:04:00 | -16.9305 | -34.8717 | 54.0 | -4.10 | -12.80 | 1 | 173.4 | 173.4 | -79.0 | 16 | 88.9 |
| 2025-12-11T05:04:00 | -16.9305 | -34.8717 | 86.0 | 4.32 | -30.76 | 1 | 158.7 | 158.7 | -79.6 | 18 | 100.0 |
| 2025-12-11T05:04:00 | -16.9305 | -34.8717 | 118.0 | -0.15 | -21.80 | 1 | 138.8 | 138.8 | -84.3 | 16 | 88.9 |
| 2025-12-11T05:04:00 | -16.9305 | -34.8717 | 150.0 | 11.56 | -34.21 | 1 | 125.6 | 125.6 | -87.0 | 17 | 94.4 |
| 2025-12-11T05:04:00 | -16.9305 | -34.8717 | 182.0 | 4.62 | -15.92 | 1 | 123.7 | 123.7 | -85.4 | 17 | 94.4 |
| 2025-12-11T05:04:00 | -16.9305 | -34.8717 | 214.0 | 3.26 | -12.63 | 1 | 111.2 | 111.2 | -88.6 | 17 | 94.4 |
| 2025-12-11T05:04:00 | -16.9305 | -34.8717 | 246.0 | 5.37 | -8.62 | 1 | 111.2 | 111.2 | -86.7 | 16 | 88.9 |
| 2025-12-11T05:04:00 | -16.9305 | -34.8717 | 278.0 | 10.63 | -8.58 | 1 | 105.5 | 105.5 | -87.4 | 17 | 94.4 |
| 2025-12-11T05:04:00 | -16.9305 | -34.8717 | 310.0 | 0.02 | 1.20 | 1 | 81.2 | 81.2 | -96.0 | 17 | 94.4 |
| 2025-12-11T05:04:00 | -16.9305 | -34.8717 | 342.0 | 8.16 | -7.24 | 1 | 75.4 | 75.4 | -96.9 | 18 | 100.0 |
| 2025-12-11T05:04:00 | -16.9305 | -34.8717 | 374.0 | 3.06 | 2.14 | 1 | 75.8 | 75.8 | -95.3 | 17 | 94.4 |
| 2025-12-11T05:04:00 | -16.9305 | -34.8717 | 406.0 | 0.72 | -14.63 | 1 | 72.3 | 71.8 | -95.6 | 17 | 94.4 |
| 2025-12-11T05:04:00 | -16.9305 | -34.8717 | 438.0 | 1.97 | -10.59 | 1 | 66.2 | 65.5 | -96.9 | 17 | 94.4 |
| 2025-12-11T05:04:00 | -16.9305 | -34.8717 | 470.0 | -2.20 | -5.63 | 1 | 64.1 | 64.1 | -96.2 | 17 | 94.4 |
| 2025-12-11T05:04:00 | -16.9305 | -34.8717 | 502.0 | 4.79 | -14.09 | 1 | 69.1 | 69.1 | -92.8 | 17 | 94.4 |
| 2025-12-11T05:04:00 | -16.9305 | -34.8717 | 534.0 | 5.58 | -8.20 | 1 | 90.4 | 90.4 | -82.5 | 18 | 100.0 |
| 2025-12-11T05:04:00 | -16.9305 | -34.8717 | 566.0 | 6.49 | -17.43 | 1 | 85.7 | 85.7 | -83.3 | 18 | 100.0 |
| 2025-12-11T05:04:00 | -16.9305 | -34.8717 | 598.0 | -0.11 | -21.06 | 1 | 71.4 | 71.4 | -88.2 | 17 | 94.4 |
| 2025-12-11T05:04:00 | -16.9305 | -34.8717 | 630.0 | 0.78 | -10.41 | 1 | 64.7 | 64.7 | -89.9 | 17 | 94.4 |
| 2025-12-11T05:04:00 | -16.9305 | -34.8717 | 662.0 | 5.02 | -17.14 | 1 | 59.1 | 59.1 | -91.2 | 18 | 100.0 |
| 2025-12-11T05:04:00 | -16.9305 | -34.8717 | 694.0 | 1.85 | -9.90 | 1 | 55.4 | 55.4 | -91.7 | 18 | 100.0 |
| 2025-12-11T05:04:00 | -16.9305 | -34.8717 | 726.0 | 0.29 | -12.17 | 1 | 55.1 | 55.1 | -90.7 | 17 | 94.4 |
| 2025-12-11T05:04:00 | -16.9305 | -34.8717 | 758.0 | 5.20 | -15.05 | 1 | 49.9 | 49.9 | -91.9 | 17 | 94.4 |
| 2025-12-11T05:04:00 | -16.9305 | -34.8717 | 790.0 | 3.31 | -9.34 | 1 | 49.3 | 48.9 | -91.3 | 16 | 88.9 |
| 2025-12-11T05:04:00 | -16.9305 | -34.8717 | 822.0 | -5.22 | -17.33 | 1 | 46.0 | 46.0 | -91.5 | 16 | 88.9 |
| 2025-12-11T05:04:00 | -16.9305 | -34.8717 | 854.0 | -2.49 | -9.12 | 1 | 43.1 | 41.4 | -92.5 | 15 | 83.3 |
| 2025-12-11T05:04:00 | -16.9305 | -34.8717 | 886.0 | 3.22 | -9.86 | 1 | 42.2 | 41.7 | -91.4 | 15 | 83.3 |
| 2025-12-11T05:04:00 | -16.9305 | -34.8717 | 918.0 | -0.45 | -16.07 | 1 | 40.0 | 37.7 | -92.1 | 11 | 61.1 |
| 2025-12-11T05:04:00 | -16.9305 | -34.8717 | 950.0 | 17.51 | 11.52 | 4 | 39.0 | 29.8 | -94.7 | 1 | 5.6 |
| 2025-12-11T05:05:00 | -16.9273 | -34.8701 | 54.0 | 4.26 | -23.80 | 1 | 172.2 | 172.2 | -79.5 | 14 | 77.8 |
| 2025-12-11T05:05:00 | -16.9273 | -34.8701 | 86.0 | -8.83 | -32.21 | 1 | 157.9 | 157.9 | -79.9 | 13 | 72.2 |
| 2025-12-11T05:05:00 | -16.9273 | -34.8701 | 118.0 | -8.11 | -32.10 | 1 | 141.4 | 141.4 | -83.2 | 16 | 88.9 |
| 2025-12-11T05:05:00 | -16.9273 | -34.8701 | 150.0 | 5.88 | -38.07 | 1 | 123.8 | 123.8 | -87.8 | 17 | 94.4 |
| 2025-12-11T05:05:00 | -16.9273 | -34.8701 | 182.0 | 4.06 | -17.07 | 1 | 121.5 | 121.5 | -86.3 | 16 | 88.9 |
| 2025-12-11T05:05:00 | -16.9273 | -34.8701 | 214.0 | -1.41 | -25.01 | 1 | 110.0 | 110.0 | -89.1 | 17 | 94.4 |
| 2025-12-11T05:05:00 | -16.9273 | -34.8701 | 246.0 | 6.03 | -21.83 | 1 | 109.8 | 109.5 | -87.4 | 16 | 88.9 |
| 2025-12-11T05:05:00 | -16.9273 | -34.8701 | 278.0 | -1.48 | -9.80 | 1 | 107.7 | 106.5 | -86.9 | 14 | 77.8 |
| 2025-12-11T05:05:00 | -16.9273 | -34.8701 | 310.0 | -4.58 | -11.88 | 1 | 83.9 | 82.6 | -95.4 | 15 | 83.3 |
| 2025-12-11T05:05:00 | -16.9273 | -34.8701 | 342.0 | -0.99 | -6.57 | 1 | 72.4 | 72.4 | -98.2 | 15 | 83.3 |
| 2025-12-11T05:05:00 | -16.9273 | -34.8701 | 374.0 | -0.63 | -2.12 | 1 | 75.3 | 74.3 | -95.9 | 13 | 72.2 |
| 2025-12-11T05:05:00 | -16.9273 | -34.8701 | 406.0 | 4.59 | -8.42 | 1 | 70.4 | 68.3 | -97.1 | 14 | 77.8 |
| 2025-12-11T05:05:00 | -16.9273 | -34.8701 | 438.0 | 2.12 | -8.92 | 1 | 63.9 | 63.0 | -98.0 | 15 | 83.3 |
| 2025-12-11T05:05:00 | -16.9273 | -34.8701 | 470.0 | 0.26 | -9.67 | 1 | 64.6 | 64.1 | -96.2 | 15 | 83.3 |
| 2025-12-11T05:05:00 | -16.9273 | -34.8701 | 502.0 | 11.45 | -5.47 | 1 | 70.6 | 70.5 | -92.2 | 16 | 88.9 |
| 2025-12-11T05:05:00 | -16.9273 | -34.8701 | 534.0 | 9.90 | -22.34 | 1 | 89.1 | 88.5 | -83.3 | 16 | 88.9 |
| 2025-12-11T05:05:00 | -16.9273 | -34.8701 | 566.0 | 1.64 | -29.36 | 1 | 86.6 | 86.6 | -83.0 | 17 | 94.4 |
| 2025-12-11T05:05:00 | -16.9273 | -34.8701 | 598.0 | -0.16 | -19.71 | 1 | 69.5 | 69.5 | -89.0 | 18 | 100.0 |
| 2025-12-11T05:05:00 | -16.9273 | -34.8701 | 630.0 | 1.39 | -13.40 | 1 | 63.3 | 62.3 | -91.0 | 17 | 94.4 |
| 2025-12-11T05:05:00 | -16.9273 | -34.8701 | 662.0 | -2.97 | -15.34 | 1 | 60.7 | 60.7 | -90.5 | 17 | 94.4 |
| 2025-12-11T05:05:00 | -16.9273 | -34.8701 | 694.0 | -8.67 | -13.51 | 1 | 55.7 | 55.4 | -91.7 | 16 | 88.9 |
| 2025-12-11T05:05:00 | -16.9273 | -34.8701 | 726.0 | 4.05 | -14.29 | 1 | 54.0 | 53.4 | -91.4 | 17 | 94.4 |
| 2025-12-11T05:05:00 | -16.9273 | -34.8701 | 758.0 | -5.29 | -11.00 | 1 | 50.5 | 50.5 | -91.7 | 18 | 100.0 |
| 2025-12-11T05:05:00 | -16.9273 | -34.8701 | 790.0 | -4.48 | -7.48 | 1 | 50.0 | 50.0 | -90.8 | 18 | 100.0 |
| 2025-12-11T05:05:00 | -16.9273 | -34.8701 | 822.0 | -3.36 | -10.74 | 1 | 43.4 | 42.9 | -92.9 | 17 | 94.4 |
| 2025-12-11T05:05:00 | -16.9273 | -34.8701 | 854.0 | -5.28 | -3.75 | 1 | 42.9 | 40.5 | -92.9 | 16 | 88.9 |
| 2025-12-11T05:05:00 | -16.9273 | -34.8701 | 886.0 | -4.96 | -15.31 | 1 | 41.3 | 39.1 | -92.5 | 12 | 66.7 |
| 2025-12-11T05:05:00 | -16.9273 | -34.8701 | 918.0 | -6.82 | -12.77 | 1 | 40.1 | 38.1 | -92.0 | 13 | 72.2 |
| 2025-12-11T05:05:00 | -16.9273 | -34.8701 | 950.0 | 5.05 | -11.52 | 1 | 36.7 | 33.9 | -92.8 | 5 | 27.8 |
| 2025-12-11T05:05:00 | -16.9273 | -34.8701 | 982.0 | 20.80 | -29.42 | 4 | 35.8 | 23.8 | -96.5 | 1 | 5.6 |
| 2025-12-11T05:06:00 | -16.9241 | -34.8683 | 54.0 | -0.73 | -23.74 | 1 | 173.5 | 173.5 | -78.9 | 17 | 94.4 |
| 2025-12-11T05:06:00 | -16.9241 | -34.8683 | 86.0 | 2.73 | -17.91 | 1 | 157.9 | 157.9 | -79.9 | 15 | 83.3 |
| 2025-12-11T05:06:00 | -16.9241 | -34.8683 | 118.0 | 11.52 | -19.26 | 1 | 142.6 | 142.6 | -82.7 | 14 | 77.8 |
| 2025-12-11T05:06:00 | -16.9241 | -34.8683 | 150.0 | 3.85 | -29.41 | 1 | 123.8 | 123.8 | -87.8 | 17 | 94.4 |
| 2025-12-11T05:06:00 | -16.9241 | -34.8683 | 182.0 | -1.48 | -16.19 | 1 | 122.9 | 122.9 | -85.8 | 17 | 94.4 |
| 2025-12-11T05:06:00 | -16.9241 | -34.8683 | 214.0 | 1.59 | -20.21 | 1 | 110.9 | 110.9 | -88.7 | 18 | 100.0 |
| 2025-12-11T05:06:00 | -16.9241 | -34.8683 | 246.0 | 3.74 | -10.11 | 1 | 107.9 | 107.9 | -88.1 | 16 | 88.9 |
| 2025-12-11T05:06:00 | -16.9241 | -34.8683 | 278.0 | 10.84 | -13.79 | 1 | 106.1 | 106.1 | -87.1 | 18 | 100.0 |
| 2025-12-11T05:06:00 | -16.9241 | -34.8683 | 310.0 | -1.74 | -14.53 | 1 | 85.0 | 85.0 | -94.4 | 17 | 94.4 |
| 2025-12-11T05:06:00 | -16.9241 | -34.8683 | 342.0 | 0.29 | -2.07 | 1 | 76.0 | 75.8 | -96.8 | 16 | 88.9 |
| 2025-12-11T05:06:00 | -16.9241 | -34.8683 | 374.0 | 7.82 | -10.35 | 1 | 77.8 | 77.3 | -94.7 | 17 | 94.4 |
| 2025-12-11T05:06:00 | -16.9241 | -34.8683 | 406.0 | -0.85 | -17.14 | 1 | 69.6 | 69.6 | -96.5 | 18 | 100.0 |
| 2025-12-11T05:06:00 | -16.9241 | -34.8683 | 438.0 | -5.58 | -10.52 | 1 | 64.3 | 64.3 | -97.4 | 17 | 94.4 |
| 2025-12-11T05:06:00 | -16.9241 | -34.8683 | 470.0 | 1.33 | -13.71 | 1 | 63.2 | 63.2 | -96.6 | 17 | 94.4 |
| 2025-12-11T05:06:00 | -16.9241 | -34.8683 | 502.0 | 0.57 | -8.01 | 1 | 65.6 | 65.6 | -94.3 | 17 | 94.4 |
| 2025-12-11T05:06:00 | -16.9241 | -34.8683 | 534.0 | 9.36 | -22.14 | 1 | 89.0 | 89.0 | -83.1 | 17 | 94.4 |
| 2025-12-11T05:06:00 | -16.9241 | -34.8683 | 566.0 | 6.98 | -16.53 | 1 | 86.6 | 86.6 | -83.0 | 18 | 100.0 |
| 2025-12-11T05:06:00 | -16.9241 | -34.8683 | 598.0 | 5.79 | -13.36 | 1 | 70.9 | 70.9 | -88.4 | 18 | 100.0 |
| 2025-12-11T05:06:00 | -16.9241 | -34.8683 | 630.0 | 5.67 | -8.26 | 1 | 60.8 | 60.3 | -91.8 | 16 | 88.9 |
| 2025-12-11T05:06:00 | -16.9241 | -34.8683 | 662.0 | 0.05 | -5.27 | 1 | 59.5 | 59.5 | -91.0 | 18 | 100.0 |
| 2025-12-11T05:06:00 | -16.9241 | -34.8683 | 694.0 | -1.73 | -12.10 | 1 | 57.2 | 57.2 | -90.9 | 17 | 94.4 |
| 2025-12-11T05:06:00 | -16.9241 | -34.8683 | 726.0 | 0.62 | -13.93 | 1 | 53.0 | 53.0 | -91.6 | 16 | 88.9 |
| 2025-12-11T05:06:00 | -16.9241 | -34.8683 | 758.0 | 0.78 | -7.77 | 1 | 49.9 | 49.9 | -91.9 | 17 | 94.4 |
| 2025-12-11T05:06:00 | -16.9241 | -34.8683 | 790.0 | -4.38 | -6.51 | 1 | 48.8 | 48.1 | -91.6 | 17 | 94.4 |
| 2025-12-11T05:06:00 | -16.9241 | -34.8683 | 822.0 | -3.68 | -19.31 | 1 | 45.1 | 44.8 | -92.0 | 17 | 94.4 |
| 2025-12-11T05:06:00 | -16.9241 | -34.8683 | 854.0 | -3.80 | -4.96 | 1 | 42.3 | 41.3 | -92.5 | 17 | 94.4 |
| 2025-12-11T05:06:00 | -16.9241 | -34.8683 | 886.0 | -3.80 | -18.35 | 1 | 40.5 | 38.2 | -92.9 | 9 | 50.0 |
| 2025-12-11T05:06:00 | -16.9241 | -34.8683 | 918.0 | -1.90 | -18.76 | 1 | 38.5 | 37.2 | -92.4 | 14 | 77.8 |
| 2025-12-11T05:06:00 | -16.9241 | -34.8683 | 950.0 | -5.69 | -28.58 | 1 | 36.9 | 34.5 | -92.6 | 5 | 27.8 |
| 2025-12-11T05:06:00 | -16.9241 | -34.8683 | 982.0 | -26.67 | -35.69 | 4 | 38.4 | 41.2 | -88.7 | 1 | 5.6 |
| 2025-12-11T05:07:00 | -16.9209 | -34.8666 | 54.0 | -11.99 | -19.01 | 1 | 174.2 | 174.2 | -78.6 | 17 | 94.4 |
| 2025-12-11T05:07:00 | -16.9209 | -34.8666 | 86.0 | -3.92 | -22.24 | 1 | 158.2 | 158.2 | -79.8 | 17 | 94.4 |
| 2025-12-11T05:07:00 | -16.9209 | -34.8666 | 118.0 | -7.46 | -31.32 | 1 | 141.5 | 141.5 | -83.2 | 16 | 88.9 |
| 2025-12-11T05:07:00 | -16.9209 | -34.8666 | 150.0 | 2.43 | -18.57 | 1 | 124.7 | 124.7 | -87.4 | 17 | 94.4 |
| 2025-12-11T05:07:00 | -16.9209 | -34.8666 | 182.0 | 7.53 | -27.37 | 1 | 122.2 | 122.2 | -86.1 | 17 | 94.4 |
| 2025-12-11T05:07:00 | -16.9209 | -34.8666 | 214.0 | -2.12 | -17.91 | 1 | 111.4 | 111.4 | -88.5 | 17 | 94.4 |
| 2025-12-11T05:07:00 | -16.9209 | -34.8666 | 246.0 | -2.52 | -16.06 | 1 | 109.9 | 109.9 | -87.2 | 17 | 94.4 |
| 2025-12-11T05:07:00 | -16.9209 | -34.8666 | 278.0 | -1.54 | -8.34 | 1 | 103.1 | 103.1 | -88.4 | 18 | 100.0 |
| 2025-12-11T05:07:00 | -16.9209 | -34.8666 | 310.0 | 0.89 | -9.83 | 1 | 86.3 | 86.3 | -93.9 | 17 | 94.4 |
| 2025-12-11T05:07:00 | -16.9209 | -34.8666 | 342.0 | 4.42 | 1.04 | 1 | 73.4 | 73.4 | -97.8 | 18 | 100.0 |
| 2025-12-11T05:07:00 | -16.9209 | -34.8666 | 374.0 | 0.32 | -16.87 | 1 | 74.5 | 74.5 | -95.9 | 17 | 94.4 |
| 2025-12-11T05:07:00 | -16.9209 | -34.8666 | 406.0 | -3.81 | -17.24 | 1 | 68.6 | 68.6 | -97.0 | 16 | 88.9 |
| 2025-12-11T05:07:00 | -16.9209 | -34.8666 | 438.0 | -3.41 | -15.34 | 1 | 62.2 | 62.2 | -98.3 | 18 | 100.0 |
| 2025-12-11T05:07:00 | -16.9209 | -34.8666 | 470.0 | 5.92 | -12.87 | 1 | 64.9 | 64.9 | -95.9 | 17 | 94.4 |
| 2025-12-11T05:07:00 | -16.9209 | -34.8666 | 502.0 | -0.79 | -8.40 | 1 | 70.2 | 70.2 | -92.3 | 17 | 94.4 |
| 2025-12-11T05:07:00 | -16.9209 | -34.8666 | 534.0 | -3.28 | -7.55 | 1 | 89.6 | 89.6 | -82.9 | 18 | 100.0 |
| 2025-12-11T05:07:00 | -16.9209 | -34.8666 | 566.0 | 6.49 | -20.53 | 1 | 86.2 | 86.2 | -83.1 | 17 | 94.4 |
| 2025-12-11T05:07:00 | -16.9209 | -34.8666 | 598.0 | -0.11 | -17.77 | 1 | 72.1 | 72.1 | -87.9 | 18 | 100.0 |
| 2025-12-11T05:07:00 | -16.9209 | -34.8666 | 630.0 | 3.09 | -3.74 | 1 | 61.2 | 61.2 | -91.4 | 17 | 94.4 |
| 2025-12-11T05:07:00 | -16.9209 | -34.8666 | 662.0 | -3.02 | -3.98 | 1 | 60.6 | 60.6 | -90.5 | 18 | 100.0 |
| 2025-12-11T05:07:00 | -16.9209 | -34.8666 | 694.0 | -2.25 | -6.92 | 1 | 56.4 | 56.4 | -91.2 | 15 | 83.3 |
| 2025-12-11T05:07:00 | -16.9209 | -34.8666 | 726.0 | 0.66 | -10.15 | 1 | 52.7 | 52.7 | -91.7 | 18 | 100.0 |
| 2025-12-11T05:07:00 | -16.9209 | -34.8666 | 758.0 | 1.54 | -3.64 | 1 | 48.5 | 48.5 | -92.5 | 18 | 100.0 |
| 2025-12-11T05:07:00 | -16.9209 | -34.8666 | 790.0 | -0.33 | -6.92 | 1 | 50.1 | 50.1 | -90.8 | 18 | 100.0 |
| 2025-12-11T05:07:00 | -16.9209 | -34.8666 | 822.0 | 3.74 | -20.88 | 1 | 44.2 | 43.2 | -92.7 | 17 | 94.4 |
| 2025-12-11T05:07:00 | -16.9209 | -34.8666 | 854.0 | -4.32 | -11.55 | 1 | 40.0 | 38.9 | -93.6 | 15 | 83.3 |
| 2025-12-11T05:07:00 | -16.9209 | -34.8666 | 886.0 | 4.25 | -3.66 | 1 | 39.2 | 37.2 | -93.3 | 12 | 66.7 |
| 2025-12-11T05:07:00 | -16.9209 | -34.8666 | 918.0 | -3.53 | -10.07 | 1 | 41.0 | 37.8 | -92.1 | 12 | 66.7 |
| 2025-12-11T05:07:00 | -16.9209 | -34.8666 | 950.0 | -3.97 | -13.07 | 4 | 41.6 | 35.9 | -92.0 | 2 | 11.1 |
| 2025-12-11T05:08:00 | -16.9177 | -34.8649 | 54.0 | -9.20 | -17.93 | 1 | 172.3 | 172.3 | -79.5 | 16 | 88.9 |
| 2025-12-11T05:08:00 | -16.9177 | -34.8649 | 86.0 | 2.81 | -15.80 | 1 | 157.3 | 157.3 | -80.2 | 15 | 83.3 |
| 2025-12-11T05:08:00 | -16.9177 | -34.8649 | 118.0 | -3.73 | -36.69 | 1 | 142.4 | 142.4 | -82.8 | 17 | 94.4 |
| 2025-12-11T05:08:00 | -16.9177 | -34.8649 | 150.0 | -5.77 | -28.70 | 1 | 123.7 | 123.7 | -87.8 | 16 | 88.9 |
| 2025-12-11T05:08:00 | -16.9177 | -34.8649 | 182.0 | -5.72 | -22.78 | 1 | 122.7 | 122.7 | -85.8 | 17 | 94.4 |
| 2025-12-11T05:08:00 | -16.9177 | -34.8649 | 214.0 | -3.01 | -22.79 | 1 | 114.1 | 114.1 | -87.4 | 16 | 88.9 |
| 2025-12-11T05:08:00 | -16.9177 | -34.8649 | 246.0 | -0.90 | -9.56 | 1 | 109.6 | 109.6 | -87.4 | 18 | 100.0 |
| 2025-12-11T05:08:00 | -16.9177 | -34.8649 | 278.0 | -3.66 | -4.96 | 1 | 102.5 | 102.5 | -88.6 | 18 | 100.0 |
| 2025-12-11T05:08:00 | -16.9177 | -34.8649 | 310.0 | 13.56 | -13.73 | 1 | 88.3 | 88.3 | -93.0 | 18 | 100.0 |
| 2025-12-11T05:08:00 | -16.9177 | -34.8649 | 342.0 | -2.58 | -6.66 | 1 | 74.6 | 74.6 | -97.3 | 17 | 94.4 |
| 2025-12-11T05:08:00 | -16.9177 | -34.8649 | 374.0 | 4.83 | -3.89 | 1 | 75.5 | 75.5 | -95.4 | 17 | 94.4 |
| 2025-12-11T05:08:00 | -16.9177 | -34.8649 | 406.0 | 0.13 | -17.25 | 1 | 69.2 | 69.2 | -96.7 | 17 | 94.4 |
| 2025-12-11T05:08:00 | -16.9177 | -34.8649 | 438.0 | -1.68 | -12.86 | 1 | 62.5 | 62.2 | -98.3 | 17 | 94.4 |
| 2025-12-11T05:08:00 | -16.9177 | -34.8649 | 470.0 | -0.14 | -10.80 | 1 | 65.0 | 64.3 | -96.1 | 16 | 88.9 |
| 2025-12-11T05:08:00 | -16.9177 | -34.8649 | 502.0 | -4.74 | -11.04 | 1 | 72.6 | 72.4 | -91.4 | 16 | 88.9 |
| 2025-12-11T05:08:00 | -16.9177 | -34.8649 | 534.0 | 2.91 | -11.94 | 1 | 90.5 | 90.5 | -82.5 | 16 | 88.9 |
| 2025-12-11T05:08:00 | -16.9177 | -34.8649 | 566.0 | 3.46 | -19.57 | 1 | 84.0 | 84.0 | -84.0 | 17 | 94.4 |
| 2025-12-11T05:08:00 | -16.9177 | -34.8649 | 598.0 | -0.23 | -21.17 | 1 | 69.9 | 69.9 | -88.9 | 18 | 100.0 |
| 2025-12-11T05:08:00 | -16.9177 | -34.8649 | 630.0 | 2.81 | -11.99 | 1 | 63.7 | 63.2 | -90.6 | 17 | 94.4 |
| 2025-12-11T05:08:00 | -16.9177 | -34.8649 | 662.0 | 5.04 | -2.12 | 1 | 58.7 | 58.1 | -91.6 | 14 | 77.8 |
| 2025-12-11T05:08:00 | -16.9177 | -34.8649 | 694.0 | -6.04 | -1.42 | 1 | 58.4 | 57.7 | -90.7 | 16 | 88.9 |
| 2025-12-11T05:08:00 | -16.9177 | -34.8649 | 726.0 | 4.64 | -3.39 | 1 | 55.0 | 54.4 | -91.0 | 15 | 83.3 |
| 2025-12-11T05:08:00 | -16.9177 | -34.8649 | 758.0 | -2.97 | -7.36 | 1 | 51.6 | 51.3 | -91.3 | 17 | 94.4 |
| 2025-12-11T05:08:00 | -16.9177 | -34.8649 | 790.0 | -0.18 | -6.62 | 1 | 50.1 | 49.2 | -91.2 | 16 | 88.9 |
| 2025-12-11T05:08:00 | -16.9177 | -34.8649 | 822.0 | 6.01 | -8.93 | 1 | 46.6 | 44.5 | -92.2 | 14 | 77.8 |
| 2025-12-11T05:08:00 | -16.9177 | -34.8649 | 854.0 | -6.19 | -7.89 | 1 | 41.5 | 40.7 | -92.8 | 15 | 83.3 |
| 2025-12-11T05:08:00 | -16.9177 | -34.8649 | 886.0 | -4.17 | -12.24 | 1 | 41.6 | 40.5 | -91.9 | 15 | 83.3 |
| 2025-12-11T05:08:00 | -16.9177 | -34.8649 | 918.0 | 8.42 | -14.19 | 1 | 37.6 | 36.8 | -92.5 | 11 | 61.1 |
| 2025-12-11T05:08:00 | -16.9177 | -34.8649 | 950.0 | -2.31 | -6.54 | 4 | 39.2 | 33.6 | -93.0 | 4 | 22.2 |
| 2025-12-11T05:08:00 | -16.9177 | -34.8649 | 982.0 | 4.12 | 16.23 | 4 | 41.7 | 47.5 | -86.0 | 1 | 5.6 |
| 2025-12-11T05:09:00 | -16.9146 | -34.8632 | 54.0 | 23.33 | -20.49 | 1 | 171.1 | 171.1 | -80.0 | 14 | 77.8 |
| 2025-12-11T05:09:00 | -16.9146 | -34.8632 | 86.0 | 3.51 | -25.84 | 1 | 159.3 | 158.9 | -79.5 | 16 | 88.9 |
| 2025-12-11T05:09:00 | -16.9146 | -34.8632 | 118.0 | -3.88 | -27.63 | 1 | 144.7 | 144.6 | -81.8 | 16 | 88.9 |
| 2025-12-11T05:09:00 | -16.9146 | -34.8632 | 150.0 | 3.02 | -23.90 | 1 | 125.8 | 125.8 | -87.0 | 16 | 88.9 |
| 2025-12-11T05:09:00 | -16.9146 | -34.8632 | 182.0 | 4.95 | -23.34 | 1 | 124.3 | 124.3 | -85.2 | 17 | 94.4 |
| 2025-12-11T05:09:00 | -16.9146 | -34.8632 | 214.0 | 8.17 | -19.06 | 1 | 114.8 | 114.8 | -87.1 | 18 | 100.0 |
| 2025-12-11T05:09:00 | -16.9146 | -34.8632 | 246.0 | 8.17 | -9.90 | 1 | 109.4 | 109.4 | -87.5 | 17 | 94.4 |
| 2025-12-11T05:09:00 | -16.9146 | -34.8632 | 278.0 | -4.57 | -12.38 | 1 | 101.0 | 101.0 | -89.3 | 17 | 94.4 |
| 2025-12-11T05:09:00 | -16.9146 | -34.8632 | 310.0 | 4.42 | -14.67 | 1 | 90.8 | 90.8 | -92.0 | 18 | 100.0 |
| 2025-12-11T05:09:00 | -16.9146 | -34.8632 | 342.0 | 4.59 | -9.97 | 1 | 72.9 | 72.6 | -98.1 | 17 | 94.4 |
| 2025-12-11T05:09:00 | -16.9146 | -34.8632 | 374.0 | -2.58 | -13.02 | 1 | 74.3 | 74.5 | -95.9 | 16 | 88.9 |
| 2025-12-11T05:09:00 | -16.9146 | -34.8632 | 406.0 | -6.40 | -20.41 | 1 | 66.5 | 65.8 | -98.2 | 17 | 94.4 |
| 2025-12-11T05:09:00 | -16.9146 | -34.8632 | 438.0 | -5.23 | -9.50 | 1 | 66.5 | 66.4 | -96.5 | 17 | 94.4 |
| 2025-12-11T05:09:00 | -16.9146 | -34.8632 | 470.0 | -1.46 | -10.66 | 1 | 65.8 | 65.8 | -95.5 | 18 | 100.0 |
| 2025-12-11T05:09:00 | -16.9146 | -34.8632 | 502.0 | -2.86 | -12.79 | 1 | 73.9 | 73.9 | -90.8 | 18 | 100.0 |
| 2025-12-11T05:09:00 | -16.9146 | -34.8632 | 534.0 | 5.59 | -10.52 | 1 | 90.6 | 90.6 | -82.5 | 18 | 100.0 |
| 2025-12-11T05:09:00 | -16.9146 | -34.8632 | 566.0 | 2.42 | -21.93 | 1 | 84.7 | 84.0 | -84.0 | 17 | 94.4 |
| 2025-12-11T05:09:00 | -16.9146 | -34.8632 | 598.0 | 13.60 | -19.94 | 1 | 73.2 | 72.8 | -87.6 | 17 | 94.4 |
| 2025-12-11T05:09:00 | -16.9146 | -34.8632 | 630.0 | 1.81 | -15.30 | 1 | 62.6 | 62.6 | -90.8 | 18 | 100.0 |
| 2025-12-11T05:09:00 | -16.9146 | -34.8632 | 662.0 | -0.59 | -13.76 | 1 | 61.0 | 59.7 | -90.9 | 16 | 88.9 |
| 2025-12-11T05:09:00 | -16.9146 | -34.8632 | 694.0 | 7.60 | -13.83 | 1 | 59.5 | 59.5 | -89.9 | 17 | 94.4 |
| 2025-12-11T05:09:00 | -16.9146 | -34.8632 | 726.0 | 0.52 | -6.78 | 1 | 53.1 | 53.1 | -91.6 | 17 | 94.4 |
| 2025-12-11T05:09:00 | -16.9146 | -34.8632 | 758.0 | -4.43 | -14.98 | 1 | 51.4 | 51.0 | -91.4 | 17 | 94.4 |
| 2025-12-11T05:09:00 | -16.9146 | -34.8632 | 790.0 | 5.35 | -0.51 | 1 | 50.2 | 48.1 | -91.6 | 15 | 83.3 |
| 2025-12-11T05:09:00 | -16.9146 | -34.8632 | 822.0 | 1.08 | -8.06 | 1 | 45.0 | 44.0 | -92.4 | 16 | 88.9 |
| 2025-12-11T05:09:00 | -16.9146 | -34.8632 | 854.0 | 3.03 | -8.71 | 1 | 41.4 | 39.3 | -93.4 | 14 | 77.8 |
| 2025-12-11T05:09:00 | -16.9146 | -34.8632 | 886.0 | 6.30 | -10.99 | 1 | 39.4 | 38.3 | -92.8 | 13 | 72.2 |
| 2025-12-11T05:09:00 | -16.9146 | -34.8632 | 918.0 | -0.76 | -6.68 | 1 | 39.7 | 35.9 | -92.9 | 8 | 44.4 |
| 2025-12-11T05:09:00 | -16.9146 | -34.8632 | 950.0 | -11.82 | -5.28 | 4 | 39.4 | 35.9 | -92.0 | 2 | 11.1 |
| 2025-12-11T05:10:00 | -16.9113 | -34.8614 | 54.0 | 7.68 | -13.37 | 1 | 171.8 | 171.8 | -79.7 | 18 | 94.7 |
| 2025-12-11T05:10:00 | -16.9113 | -34.8614 | 86.0 | -6.20 | -22.15 | 1 | 157.6 | 157.6 | -80.1 | 17 | 89.5 |
| 2025-12-11T05:10:00 | -16.9113 | -34.8614 | 118.0 | 7.91 | -32.75 | 1 | 140.6 | 140.6 | -83.6 | 18 | 94.7 |
| 2025-12-11T05:10:00 | -16.9113 | -34.8614 | 150.0 | 3.49 | -24.50 | 1 | 124.3 | 124.3 | -87.6 | 18 | 94.7 |
| 2025-12-11T05:10:00 | -16.9113 | -34.8614 | 182.0 | 0.47 | -18.95 | 1 | 123.3 | 123.3 | -85.6 | 19 | 100.0 |
| 2025-12-11T05:10:00 | -16.9113 | -34.8614 | 214.0 | 6.00 | -9.05 | 1 | 112.6 | 112.6 | -88.0 | 19 | 100.0 |
| 2025-12-11T05:10:00 | -16.9113 | -34.8614 | 246.0 | 9.86 | -15.78 | 1 | 109.6 | 109.6 | -87.4 | 19 | 100.0 |
| 2025-12-11T05:10:00 | -16.9113 | -34.8614 | 278.0 | 4.22 | -13.95 | 1 | 100.2 | 100.2 | -89.6 | 19 | 100.0 |
| 2025-12-11T05:10:00 | -16.9113 | -34.8614 | 310.0 | -5.35 | -19.60 | 1 | 87.3 | 87.3 | -93.4 | 19 | 100.0 |
| 2025-12-11T05:10:00 | -16.9113 | -34.8614 | 342.0 | 1.26 | -16.20 | 1 | 72.0 | 72.0 | -98.4 | 19 | 100.0 |
| 2025-12-11T05:10:00 | -16.9113 | -34.8614 | 374.0 | -5.31 | -9.54 | 1 | 74.7 | 74.7 | -95.8 | 19 | 100.0 |
| 2025-12-11T05:10:00 | -16.9113 | -34.8614 | 406.0 | -1.52 | -23.77 | 1 | 66.8 | 66.8 | -97.7 | 18 | 94.7 |
| 2025-12-11T05:10:00 | -16.9113 | -34.8614 | 438.0 | -6.30 | -6.42 | 1 | 63.2 | 63.2 | -97.9 | 18 | 94.7 |
| 2025-12-11T05:10:00 | -16.9113 | -34.8614 | 470.0 | 3.53 | -19.49 | 1 | 64.8 | 64.8 | -95.9 | 19 | 100.0 |
| 2025-12-11T05:10:00 | -16.9113 | -34.8614 | 502.0 | 3.62 | -8.85 | 1 | 73.9 | 73.9 | -90.8 | 19 | 100.0 |
| 2025-12-11T05:10:00 | -16.9113 | -34.8614 | 534.0 | 3.84 | -16.09 | 1 | 89.6 | 89.6 | -82.9 | 19 | 100.0 |
| 2025-12-11T05:10:00 | -16.9113 | -34.8614 | 566.0 | 7.67 | -20.80 | 1 | 85.3 | 85.3 | -83.5 | 19 | 100.0 |
| 2025-12-11T05:10:00 | -16.9113 | -34.8614 | 598.0 | 2.81 | -20.66 | 1 | 72.6 | 72.4 | -87.8 | 18 | 94.7 |
| 2025-12-11T05:10:00 | -16.9113 | -34.8614 | 630.0 | -3.14 | -11.10 | 1 | 63.3 | 62.7 | -90.8 | 18 | 94.7 |
| 2025-12-11T05:10:00 | -16.9113 | -34.8614 | 662.0 | -7.75 | -14.18 | 1 | 59.7 | 59.2 | -91.2 | 16 | 84.2 |
| 2025-12-11T05:10:00 | -16.9113 | -34.8614 | 694.0 | 1.68 | -9.86 | 1 | 58.7 | 58.6 | -90.3 | 18 | 94.7 |
| 2025-12-11T05:10:00 | -16.9113 | -34.8614 | 726.0 | 1.17 | -2.85 | 1 | 54.8 | 54.2 | -91.1 | 18 | 94.7 |
| 2025-12-11T05:10:00 | -16.9113 | -34.8614 | 758.0 | 0.56 | -9.12 | 1 | 51.8 | 51.8 | -91.1 | 18 | 94.7 |
| 2025-12-11T05:10:00 | -16.9113 | -34.8614 | 790.0 | -2.91 | -7.00 | 1 | 48.7 | 48.2 | -91.6 | 16 | 84.2 |
| 2025-12-11T05:10:00 | -16.9113 | -34.8614 | 822.0 | -7.71 | -10.38 | 1 | 43.2 | 42.8 | -92.9 | 18 | 94.7 |
| 2025-12-11T05:10:00 | -16.9113 | -34.8614 | 854.0 | -5.01 | -13.35 | 1 | 41.8 | 40.5 | -92.9 | 16 | 84.2 |
| 2025-12-11T05:10:00 | -16.9113 | -34.8614 | 886.0 | -6.00 | -2.24 | 1 | 39.1 | 35.8 | -93.9 | 10 | 52.6 |
| 2025-12-11T05:10:00 | -16.9113 | -34.8614 | 918.0 | 1.76 | -6.05 | 1 | 38.3 | 37.2 | -92.4 | 16 | 84.2 |
| 2025-12-11T05:10:00 | -16.9113 | -34.8614 | 950.0 | 10.83 | -20.36 | 4 | 37.7 | 34.5 | -92.6 | 4 | 21.1 |
| 2025-12-11T05:11:00 | -16.9080 | -34.8596 | 54.0 | -5.41 | -19.76 | 1 | 172.2 | 172.2 | -79.5 | 18 | 100.0 |
| 2025-12-11T05:11:00 | -16.9080 | -34.8596 | 86.0 | -4.95 | -23.32 | 1 | 156.8 | 156.3 | -80.6 | 16 | 88.9 |
| 2025-12-11T05:11:00 | -16.9080 | -34.8596 | 118.0 | -0.51 | -19.36 | 1 | 139.9 | 139.9 | -83.9 | 15 | 83.3 |
| 2025-12-11T05:11:00 | -16.9080 | -34.8596 | 150.0 | -5.30 | -19.57 | 1 | 124.7 | 124.7 | -87.4 | 16 | 88.9 |
| 2025-12-11T05:11:00 | -16.9080 | -34.8596 | 182.0 | -4.40 | -20.21 | 1 | 124.8 | 124.8 | -85.0 | 17 | 94.4 |
| 2025-12-11T05:11:00 | -16.9080 | -34.8596 | 214.0 | -0.02 | -10.25 | 1 | 116.5 | 116.5 | -86.4 | 17 | 94.4 |
| 2025-12-11T05:11:00 | -16.9080 | -34.8596 | 246.0 | 9.28 | -5.95 | 1 | 111.9 | 111.9 | -86.4 | 17 | 94.4 |
| 2025-12-11T05:11:00 | -16.9080 | -34.8596 | 278.0 | 8.37 | -17.01 | 1 | 102.9 | 102.9 | -88.5 | 18 | 100.0 |
| 2025-12-11T05:11:00 | -16.9080 | -34.8596 | 310.0 | -2.08 | -16.69 | 1 | 88.8 | 88.5 | -92.9 | 14 | 77.8 |
| 2025-12-11T05:11:00 | -16.9080 | -34.8596 | 342.0 | -10.33 | -12.26 | 1 | 71.2 | 70.7 | -99.0 | 16 | 88.9 |
| 2025-12-11T05:11:00 | -16.9080 | -34.8596 | 374.0 | -1.27 | -7.48 | 1 | 72.9 | 72.9 | -96.6 | 18 | 100.0 |
| 2025-12-11T05:11:00 | -16.9080 | -34.8596 | 406.0 | 0.68 | -10.25 | 1 | 65.4 | 65.4 | -98.3 | 16 | 88.9 |
| 2025-12-11T05:11:00 | -16.9080 | -34.8596 | 438.0 | 5.19 | -1.64 | 1 | 66.1 | 66.1 | -96.7 | 17 | 94.4 |
| 2025-12-11T05:11:00 | -16.9080 | -34.8596 | 470.0 | -4.19 | -10.71 | 1 | 65.9 | 65.9 | -95.4 | 18 | 100.0 |
Only the first 2000 rows were shown. To view the complete dataset, download it as tab-delimited text. You can still view the full matrix in your browser, but be aware that this may crash the browser due to the huge size.
